[[{"header":{"parameterUnit":"m.s-1","parameterCategory":1,"la1":30.6,"la2":28.766,"lo1":-90.7593,"lo2":-88.6598,"dy":0.0162,"dx":0.0183,"nx":116,"ny":114,"refTime":"2023-08-04T12:00:00:Z","depth":0,"parameterNumber":2,"parameterNumberName":"U-component_of_WINDS"},"data":[0.0,0.0,0.0,0.0,0.0,0.0,0.0,0.0,0.0,0.0,0.0,0.0,0.0,0.0,0.0,0.0,0.0,0.0,0.0,0.0,0.0,0.0,0.0,0.0,0.0,0.0,0.0,0.0,0.0,0.0,0.0,0.0,0.0,0.0,0.0,0.0,0.0,0.0,0.0,0.0,0.0,0.0,0.0,0.0,0.0,0.0,0.0,0.0,0.0,0.0,0.0,0.0,0.0,0.0,0.0,0.0,0.0,0.0,0.0,0.0,0.0,0.0,0.0,0.0,0.0,0.0,0.0,0.0,0.0,0.0,0.0,0.0,0.0,0.0,0.0,0.0,0.0,0.0,0.0,0.0,0.0,0.0,0.0,0.0,0.0,0.0,0.0,0.0,0.0,0.0,0.0,0.0,0.0,0.0,0.0,0.0,0.0,0.0,0.0,0.0,0.0,0.0,0.0,0.0,0.0,0.0,0.0,0.0,0.0,0.0,0.0,0.0,0.0,0.0,0.0,0.0,0.0,0.0,0.0,0.0,0.0,0.0,0.0,0.0,0.0,0.0,0.0,0.0,0.0,0.0,0.0,0.0,0.0,0.0,0.0,0.0,0.0,0.0,0.0,0.0,0.0,0.0,0.0,0.0,0.0,0.0,0.0,0.0,0.0,0.0,0.0,0.0,0.0,0.0,0.0,0.0,0.0,0.0,0.0,0.0,0.0,0.0,0.0,0.0,0.0,0.0,0.0,0.0,0.0,0.0,0.0,0.0,0.0,0.0,0.0,0.0,0.0,0.0,0.0,0.0,0.0,0.0,0.0,0.0,0.0,0.0,0.0,0.0,0.0,0.0,0.0,0.0,0.0,0.0,0.0,0.0,0.0,0.0,0.0,0.0,0.0,0.0,0.0,0.0,0.0,0.0,0.0,0.0,0.0,0.0,0.0,0.0,0.0,0.0,0.0,0.0,0.0,0.0,0.0,0.0,0.0,0.0,0.0,0.0,0.0,0.0,0.0,0.0,0.0,0.0,0.0,0.0,0.0,0.0,0.0,0.0,0.0,0.0,0.0,0.0,0.0,0.0,0.0,0.0,0.0,0.0,0.0,0.0,0.0,0.0,0.0,0.0,0.0,0.0,0.0,0.0,0.0,0.0,0.0,0.0,0.0,0.0,0.0,0.0,0.0,0.0,0.0,0.0,0.0,0.0,0.0,0.0,0.0,0.0,0.0,0.0,0.0,0.0,0.0,0.0,0.0,0.0,0.0,0.0,0.0,0.0,0.0,0.0,0.0,0.0,0.0,0.0,0.0,0.0,0.0,0.0,0.0,0.0,0.0,0.0,0.0,0.0,0.0,0.0,0.0,0.0,0.0,0.0,0.0,0.0,0.0,0.0,0.0,0.0,0.0,0.0,0.0,0.0,0.0,0.0,0.0,0.0,0.0,0.0,0.0,0.0,0.0,0.0,0.0,0.0,0.0,0.0,0.0,0.0,0.0,0.0,0.0,0.0,0.0,0.0,0.0,0.0,0.0,0.0,0.0,0.0,0.0,0.0,0.0,0.0,0.0,0.0,0.0,0.0,0.0,0.0,0.0,0.0,0.0,0.0,0.0,0.0,0.0,0.0,0.0,0.0,0.0,0.0,0.0,0.0,0.0,0.0,0.0,0.0,0.0,0.0,0.0,0.0,0.0,0.0,0.0,0.0,0.0,0.0,0.0,0.0,0.0,0.0,0.0,0.0,0.0,0.0,0.0,0.0,0.0,0.0,0.0,0.0,0.0,0.0,0.0,0.0,0.0,0.0,0.0,0.0,0.0,0.0,0.0,0.0,0.0,0.0,0.0,0.0,0.0,0.0,0.0,0.0,0.0,0.0,0.0,0.0,0.0,0.0,0.0,0.0,0.0,0.0,0.0,0.0,0.0,0.0,0.0,0.0,0.0,0.0,0.0,0.0,0.0,0.0,0.0,0.0,0.0,0.0,0.0,0.0,0.0,0.0,0.0,0.0,0.0,0.0,0.0,0.0,0.0,0.0,0.0,0.0,0.0,0.0,0.0,0.0,0.0,0.0,0.0,0.0,0.0,0.0,0.0,0.0,0.0,0.0,0.0,0.0,0.0,0.0,0.0,0.0,0.0,0.0,0.0,0.0,0.0,0.0,0.0,0.0,0.0,0.0,0.0,0.0,0.0,0.0,0.0,0.0,0.0,0.0,0.0,0.0,0.0,0.0,0.0,0.0,0.0,0.0,0.0,0.0,0.0,0.0,0.0,0.0,0.0,0.0,0.0,0.0,0.0,0.0,0.0,0.0,0.0,0.0,0.0,0.0,0.0,0.0,0.0,0.0,0.0,0.0,0.0,0.0,0.0,0.0,0.0,0.0,0.0,0.0,0.0,0.0,0.0,0.0,0.0,0.0,0.0,0.0,0.0,0.0,0.0,0.0,0.0,0.0,0.0,0.0,0.0,0.0,0.0,0.0,0.0,0.0,0.0,0.0,0.0,0.0,0.0,0.0,0.0,0.0,0.0,0.0,0.0,0.0,0.0,0.0,0.0,0.0,0.0,0.0,0.0,0.0,0.0,0.0,0.0,0.0,0.0,0.0,0.0,0.0,0.0,0.0,0.0,0.0,0.0,0.0,0.0,0.0,0.0,0.0,0.0,0.0,0.0,0.0,0.0,0.0,0.0,0.0,0.0,0.0,0.0,0.0,0.0,0.0,0.0,0.0,0.0,0.0,0.0,0.0,0.0,0.0,0.0,0.0,0.0,0.0,0.0,0.0,0.0,0.0,0.0,0.0,0.0,0.0,0.0,0.0,0.0,0.0,0.0,0.0,0.0,0.0,0.0,0.0,0.0,0.0,0.0,0.0,0.0,0.0,0.0,0.0,0.0,0.0,0.0,0.0,0.0,0.0,0.0,0.0,0.0,0.0,0.0,0.0,0.0,0.0,0.0,0.0,0.0,0.0,0.0,0.0,0.0,0.0,0.0,0.0,0.0,0.0,0.0,0.0,0.0,0.0,0.0,0.0,0.0,0.0,0.0,0.0,0.0,0.0,0.0,0.0,0.0,0.0,0.0,0.0,0.0,0.0,0.0,0.0,0.0,0.0,0.0,0.0,0.0,0.0,0.0,0.0,0.0,0.0,0.0,0.0,0.0,0.0,0.0,0.0,0.0,0.0,0.0,0.0,0.0,0.0,0.0,0.0,0.0,0.0,0.0,0.0,0.0,0.0,0.0,0.0,0.0,0.0,0.0,0.0,0.0,0.0,0.0,0.0,0.0,0.0,0.0,0.0,0.0,0.0,0.0,0.0,0.0,0.0,0.0,0.0,0.0,0.0,0.0,0.0,0.0,0.0,0.0,0.0,0.0,0.0,0.0,0.0,0.0,0.0,0.0,0.0,0.0,0.0,0.0,0.0,0.0,0.0,0.0,0.0,0.0,0.0,0.0,0.0,0.0,0.0,0.0,0.0,0.0,0.0,0.0,0.0,0.0,0.0,0.0,0.0,0.0,0.0,0.0,0.0,0.0,0.0,0.0,0.0,0.0,0.0,0.0,0.0,0.0,0.0,0.0,0.0,0.0,0.0,0.0,0.0,0.0,0.0,0.0,0.0,0.0,0.0,0.0,0.0,0.0,0.0,0.0,0.0,0.0,0.0,0.0,0.0,0.0,0.0,0.0,0.0,0.0,0.0,0.0,0.0,0.0,0.0,0.0,0.0,0.0,0.0,0.0,0.0,0.0,0.0,0.0,0.0,0.0,0.0,0.0,0.0,0.0,0.0,0.0,0.0,0.0,0.0,0.0,0.0,0.0,0.0,0.0,0.0,0.0,0.0,0.0,0.0,0.0,0.0,0.0,0.0,0.0,0.0,0.0,0.0,0.0,0.0,0.0,0.0,0.0,0.0,0.0,0.0,0.0,0.0,0.0,0.0,0.0,0.0,0.0,0.0,0.0,0.0,0.0,0.0,0.0,0.0,0.0,0.0,0.0,0.0,0.0,0.0,0.0,0.0,0.0,0.0,0.0,0.0,0.0,0.0,0.0,0.0,0.0,0.0,0.0,0.0,0.0,0.0,0.0,0.0,0.0,0.0,0.0,0.0,0.0,0.0,0.0,0.0,0.0,0.0,0.0,0.0,0.0,0.0,0.0,0.0,0.0,0.0,0.0,0.0,0.0,0.0,0.0,0.0,0.0,0.0,0.0,0.0,0.0,0.0,0.0,0.0,0.0,0.0,0.0,0.0,0.0,0.0,0.0,0.0,0.0,0.0,0.0,0.0,0.0,0.0,0.0,0.0,0.0,0.0,0.0,0.0,0.0,0.0,0.0,0.0,0.0,0.0,0.0,0.0,0.0,0.0,0.0,0.0,0.0,0.0,0.0,0.0,0.0,0.0,0.0,0.0,0.0,0.0,0.0,0.0,0.0,0.0,0.0,0.0,0.0,0.0,0.0,0.0,0.0,0.0,0.0,0.0,0.0,0.0,0.0,0.0,0.0,0.0,0.0,0.0,0.0,0.0,0.0,0.0,0.0,0.0,0.0,0.0,0.0,0.0,0.0,0.0,0.0,0.0,0.0,0.0,0.0,0.0,0.0,0.0,0.0,0.0,0.0,0.0,0.0,0.0,0.0,0.0,0.0,0.0,0.0,0.0,0.0,0.0,0.0,0.0,0.0,0.0,0.0,0.0,0.0,0.0,0.0,0.0,0.0,0.0,0.0,0.0,0.0,0.0,0.0,0.0,0.0,0.0,0.0,0.0,0.0,0.0,0.0,0.0,0.0,0.0,0.0,0.0,0.0,0.0,0.0,0.0,0.0,0.0,0.0,0.0,0.0,0.0,0.0,0.0,0.0,0.0,0.0,0.0,0.0,0.0,0.0,0.0,0.0,0.0,0.0,0.0,0.0,0.0,0.0,0.0,0.0,0.0,0.0,0.0,0.0,0.0,0.0,0.0,0.0,0.0,0.0,0.0,0.0,0.0,0.0,0.0,0.0,0.0,0.0,0.0,0.0,0.0,0.0,0.0,0.0,0.0,0.0,0.0,0.0,0.0,0.0,0.0,0.0,0.0,0.0,0.0,0.0,0.0,0.0,0.0,0.0,0.0,0.0,0.0,0.0,0.0,0.0,0.0,0.0,0.0,0.0,0.0,0.0,0.0,0.0,0.0,0.0,0.0,0.0,0.0,0.0,0.0,0.0,0.0,0.0,0.0,0.0,0.0,0.0,0.0,0.0,0.0,0.0,0.0,0.0,0.0,0.0,0.0,0.0,0.0,0.0,0.0,0.0,0.0,0.0,0.0,0.0,0.0,0.0,0.0,0.0,0.0,0.0,0.0,0.0,0.0,0.0,0.0,0.0,0.0,0.0,0.0,0.0,0.0,0.0,0.0,0.0,0.0,0.0,0.0,0.0,0.0,0.0,0.0,0.0,0.0,0.0,0.0,0.0,0.0,0.0,0.0,0.0,0.0,0.0,0.0,0.0,0.0,0.0,0.0,0.0,0.0,0.0,0.0,0.0,0.0,0.0,0.0,0.0,0.0,0.0,0.0,0.0,0.0,0.0,0.0,0.0,0.0,0.0,0.0,0.0,0.0,0.0,0.0,0.0,0.0,0.0,0.0,0.0,0.0,0.0,0.0,0.0,0.0,0.0,0.0,0.0,0.0,0.0,0.0,0.0,0.0,0.0,0.0,0.0,0.0,0.0,0.0,0.0,0.0,0.0,0.0,0.0,0.0,0.0,0.0,0.0,0.0,0.0,0.0,0.0,0.0,0.0,0.0,0.0,0.0,0.0,0.0,0.0,0.0,0.0,0.0,0.0,0.0,0.0,0.0,0.0,0.0,0.0,0.0,0.0,0.0,0.0,0.0,0.0,0.0,0.0,0.0,0.0,0.0,0.0,0.0,0.0,0.0,0.0,0.0,0.0,0.0,0.0,0.0,0.0,0.0,0.0,0.0,0.0,0.0,0.0,0.0,0.0,0.0,0.0,0.0,0.0,0.0,0.0,0.0,0.0,0.0,0.0,0.0,0.0,0.0,0.0,0.0,0.0,0.0,0.0,0.0,0.0,0.0,0.0,0.0,0.0,0.0,0.0,0.0,0.0,0.0,0.0,0.0,0.0,0.0,0.0,0.0,-2.8866,0.0,0.0,0.0,0.0,0.0,0.0,0.0,0.0,0.0,0.0,0.0,0.0,0.0,0.0,0.0,0.0,0.0,0.0,0.0,0.0,0.0,0.0,0.0,0.0,0.0,0.0,0.0,0.0,0.0,0.0,0.0,0.0,0.0,0.0,0.0,0.0,0.0,0.0,0.0,0.0,0.0,0.0,0.0,0.0,0.0,0.0,0.0,0.0,0.0,0.0,0.0,0.0,0.0,0.0,0.0,0.0,0.0,0.0,0.0,0.0,0.0,0.0,0.0,0.0,0.0,0.0,0.0,0.0,0.0,0.0,0.0,0.0,0.0,0.0,0.0,0.0,0.0,0.0,0.0,0.0,0.0,0.0,0.0,0.0,0.0,0.0,0.0,0.0,0.0,0.0,0.0,0.0,0.0,0.0,0.0,0.0,0.0,0.0,0.0,0.0,0.0,0.0,0.0,0.0,0.0,0.0,0.0,0.0,0.0,0.0,0.0,0.0,0.0,0.0,0.0,0.0,-2.93,0.0,0.0,0.0,0.0,0.0,0.0,0.0,0.0,0.0,0.0,0.0,0.0,0.0,0.0,0.0,0.0,0.0,0.0,0.0,0.0,0.0,0.0,0.0,0.0,0.0,0.0,0.0,0.0,0.0,0.0,0.0,0.0,0.0,0.0,0.0,0.0,0.0,0.0,0.0,0.0,0.0,0.0,0.0,0.0,0.0,0.0,0.0,0.0,0.0,0.0,0.0,0.0,0.0,0.0,0.0,0.0,0.0,0.0,0.0,0.0,0.0,0.0,0.0,0.0,0.0,0.0,0.0,0.0,0.0,0.0,0.0,0.0,0.0,0.0,0.0,0.0,0.0,0.0,0.0,0.0,0.0,0.0,0.0,0.0,0.0,0.0,0.0,0.0,0.0,0.0,0.0,0.0,0.0,0.0,0.0,0.0,0.0,0.0,0.0,0.0,0.0,0.0,0.0,0.0,0.0,0.0,0.0,0.0,-3.8306,-3.8718,-3.8544,-3.8306,-3.8194,-3.7955,-3.4162,-3.2878,-3.3217,0.0,0.0,0.0,0.0,0.0,0.0,0.0,0.0,0.0,0.0,0.0,0.0,0.0,0.0,0.0,0.0,0.0,0.0,0.0,0.0,0.0,0.0,0.0,0.0,0.0,0.0,0.0,0.0,0.0,0.0,0.0,0.0,0.0,0.0,0.0,0.0,0.0,0.0,0.0,0.0,0.0,0.0,0.0,0.0,0.0,0.0,0.0,0.0,0.0,0.0,0.0,0.0,0.0,0.0,0.0,0.0,0.0,0.0,0.0,0.0,0.0,0.0,0.0,0.0,0.0,0.0,0.0,0.0,0.0,0.0,0.0,0.0,0.0,0.0,0.0,0.0,0.0,0.0,0.0,0.0,0.0,0.0,0.0,0.0,0.0,0.0,0.0,-2.7988,-2.9745,0.0,0.0,0.0,0.0,0.0,0.0,0.0,0.0,0.0,0.0,0.0,0.0,0.0,0.0,-4.0022,-4.1506,-4.1558,-4.0179,-4.2433,-4.3118,-4.2351,-4.147,-4.1399,-4.1819,-3.907,0.0,-3.3181,-3.1448,0.0,0.0,0.0,0.0,0.0,0.0,0.0,0.0,0.0,0.0,0.0,0.0,0.0,0.0,0.0,0.0,0.0,0.0,0.0,0.0,0.0,0.0,0.0,0.0,0.0,0.0,0.0,0.0,0.0,0.0,0.0,0.0,0.0,0.0,0.0,0.0,0.0,0.0,0.0,0.0,0.0,0.0,0.0,0.0,0.0,0.0,0.0,0.0,0.0,0.0,0.0,0.0,0.0,0.0,0.0,0.0,0.0,0.0,0.0,0.0,0.0,0.0,0.0,0.0,0.0,0.0,0.0,0.0,0.0,0.0,0.0,0.0,0.0,0.0,0.0,0.0,0.0,0.0,0.0,0.0,0.0,0.0,0.0,0.0,0.0,-2.669,-2.8886,-3.0601,-2.973,-2.9003,0.0,0.0,0.0,0.0,0.0,0.0,0.0,0.0,0.0,-4.1907,-4.1859,-4.2636,-4.4393,-4.4647,-4.4137,-4.2892,-4.395,-4.4002,-4.3153,-4.2694,-4.2381,-4.2139,-4.0975,-3.8973,-3.6387,-3.4242,-3.2351,-3.0733,0.0,0.0,0.0,0.0,-2.9706,-2.9732,0.0,0.0,0.0,0.0,0.0,0.0,0.0,0.0,0.0,0.0,0.0,0.0,0.0,0.0,0.0,0.0,0.0,0.0,0.0,0.0,0.0,0.0,0.0,0.0,0.0,0.0,0.0,0.0,0.0,0.0,0.0,0.0,0.0,0.0,0.0,0.0,0.0,0.0,0.0,0.0,0.0,0.0,0.0,0.0,0.0,0.0,0.0,0.0,0.0,0.0,0.0,0.0,0.0,0.0,0.0,0.0,0.0,0.0,0.0,0.0,0.0,0.0,0.0,0.0,0.0,0.0,0.0,0.0,0.0,0.0,0.0,0.0,0.0,0.0,0.0,0.0,0.0,-2.8768,-3.0155,-3.1615,-3.1424,-3.1074,0.0,0.0,0.0,0.0,0.0,0.0,-3.8038,-3.9162,-4.136,-4.4997,-4.4686,-4.5453,-4.7559,-4.6687,-4.5893,-4.5195,-4.4959,-4.4486,-4.3868,-4.3616,-4.3011,-4.212,-4.1841,-4.085,-3.9227,-3.6797,-3.5245,-3.4319,-3.328,-3.2109,-3.1092,-3.1888,-3.2104,-3.2024,0.0,0.0,0.0,0.0,0.0,0.0,0.0,0.0,0.0,0.0,0.0,0.0,0.0,0.0,0.0,0.0,0.0,0.0,0.0,0.0,0.0,0.0,0.0,0.0,0.0,0.0,0.0,0.0,0.0,0.0,0.0,0.0,0.0,0.0,0.0,0.0,0.0,0.0,0.0,0.0,0.0,0.0,0.0,0.0,0.0,0.0,0.0,0.0,0.0,0.0,0.0,0.0,0.0,0.0,0.0,0.0,0.0,0.0,0.0,0.0,0.0,0.0,0.0,0.0,0.0,0.0,0.0,0.0,0.0,0.0,0.0,0.0,0.0,0.0,0.0,0.0,0.0,0.0,0.0,-3.4394,-3.5203,0.0,0.0,0.0,0.0,-3.3264,-3.6306,-3.8923,-4.0714,-4.2361,-4.4074,-4.588,-4.6639,-4.7443,-4.8333,-4.7539,-4.7052,-4.6882,-4.609,-4.5703,-4.5645,-4.4758,-4.3859,-4.2992,-4.2156,-4.1242,-4.0197,-3.8408,-3.7154,-3.6279,-3.5389,-3.492,-3.4641,-3.3809,-3.4411,-3.5418,0.0,0.0,0.0,0.0,0.0,0.0,0.0,0.0,0.0,0.0,0.0,0.0,0.0,0.0,0.0,0.0,0.0,0.0,0.0,0.0,0.0,0.0,0.0,0.0,0.0,0.0,0.0,0.0,0.0,0.0,0.0,0.0,0.0,0.0,0.0,0.0,0.0,0.0,0.0,0.0,0.0,0.0,0.0,0.0,0.0,0.0,0.0,0.0,0.0,0.0,0.0,0.0,0.0,0.0,0.0,0.0,0.0,0.0,0.0,0.0,0.0,0.0,0.0,0.0,0.0,0.0,0.0,0.0,0.0,0.0,0.0,0.0,0.0,0.0,0.0,0.0,0.0,0.0,0.0,-3.4532,-3.5907,0.0,0.0,-3.5666,-3.6883,-3.7473,-3.9623,-4.1891,-4.4167,-4.486,-4.6152,-4.8315,-4.8664,-4.8933,-4.9161,-4.8864,-4.8118,-4.7001,-4.6746,-4.6325,-4.5731,-4.5391,-4.4778,-4.3948,-4.3034,-4.2187,-4.133,-4.0119,-3.9026,-3.8139,-3.7821,-3.7295,-3.6615,-3.6312,-3.6102,-3.5922,0.0,0.0,0.0,0.0,0.0,0.0,0.0,0.0,0.0,0.0,0.0,0.0,0.0,0.0,0.0,0.0,0.0,0.0,0.0,0.0,0.0,0.0,0.0,0.0,0.0,0.0,0.0,0.0,0.0,0.0,0.0,0.0,0.0,0.0,0.0,0.0,0.0,0.0,0.0,0.0,0.0,0.0,-3.1546,0.0,0.0,0.0,0.0,0.0,0.0,0.0,0.0,0.0,0.0,0.0,0.0,0.0,0.0,0.0,0.0,0.0,0.0,0.0,0.0,0.0,0.0,0.0,0.0,0.0,0.0,0.0,0.0,0.0,0.0,0.0,0.0,0.0,0.0,0.0,-3.4557,-3.5373,-3.7259,-3.8039,-3.6913,-3.8604,-4.013,-4.0974,-4.2602,-4.4404,-4.6396,-4.6735,-4.7745,-4.9639,-4.9708,-4.9799,-4.9988,-4.9669,-4.8786,-4.7414,-4.7163,-4.6584,-4.5731,-4.5731,-4.5287,-4.4476,-4.3882,-4.2995,-4.1942,-4.1321,-4.0511,-3.9627,-3.9569,-3.9157,-3.8551,-3.8193,-3.7814,-3.7412,0.0,0.0,0.0,0.0,0.0,0.0,0.0,0.0,0.0,0.0,0.0,0.0,0.0,0.0,0.0,0.0,0.0,0.0,0.0,0.0,0.0,0.0,0.0,0.0,0.0,0.0,0.0,0.0,0.0,0.0,0.0,0.0,0.0,0.0,0.0,0.0,0.0,0.0,0.0,0.0,0.0,0.0,-3.4148,0.0,0.0,0.0,0.0,0.0,0.0,0.0,0.0,0.0,0.0,0.0,0.0,0.0,0.0,0.0,0.0,0.0,0.0,0.0,0.0,0.0,0.0,0.0,0.0,0.0,0.0,0.0,0.0,0.0,0.0,0.0,0.0,0.0,-3.3102,-3.4852,-3.6303,-3.7205,-3.952,-4.0395,-3.8714,-4.0879,-4.2711,-4.352,-4.5113,-4.6422,-4.733,-4.805,-4.8856,-4.9713,-4.9741,-5.0085,-5.0773,-4.9963,-4.9097,-4.8235,-4.7369,-4.6571,-4.5853,-4.5815,-4.5351,-4.4539,-4.4587,-4.3626,-4.2033,-4.2052,-4.1531,-4.0725,-4.0508,-4.0476,-4.0377,-3.9425,-3.9545,-3.9986,0.0,0.0,0.0,0.0,0.0,0.0,0.0,0.0,0.0,0.0,0.0,0.0,0.0,0.0,0.0,0.0,0.0,0.0,0.0,0.0,0.0,0.0,0.0,0.0,0.0,0.0,0.0,0.0,0.0,0.0,0.0,0.0,0.0,0.0,0.0,0.0,0.0,0.0,0.0,0.0,0.0,0.0,-3.4274,0.0,0.0,0.0,0.0,0.0,0.0,0.0,0.0,0.0,0.0,0.0,0.0,0.0,0.0,0.0,0.0,0.0,0.0,0.0,0.0,0.0,0.0,0.0,0.0,0.0,0.0,0.0,0.0,0.0,0.0,0.0,0.0,-3.365,-3.4173,-3.6255,-3.828,-3.977,-4.114,-4.1996,-4.2163,-4.3352,-4.4462,-4.5249,-4.6324,-4.7571,-4.8961,-4.919,-4.9668,-5.0546,-5.0532,-5.0595,-5.0793,-5.0506,-4.9984,-4.9206,-4.8343,-4.7491,-4.6714,-4.6095,-4.5675,-4.5394,-4.4791,-4.3921,-4.2943,-4.2883,-4.2394,-4.1635,-4.1528,-4.1046,-4.0479,-4.0837,-4.0251,-3.9109,0.0,0.0,0.0,0.0,0.0,0.0,0.0,0.0,0.0,0.0,0.0,0.0,0.0,0.0,0.0,0.0,0.0,0.0,0.0,0.0,0.0,0.0,0.0,0.0,0.0,0.0,0.0,0.0,0.0,0.0,0.0,0.0,0.0,0.0,0.0,0.0,0.0,0.0,0.0,0.0,0.0,0.0,-3.5449,-3.3749,-3.3531,-3.4087,-3.3428,-3.3662,-3.4217,-3.3866,0.0,0.0,0.0,0.0,0.0,0.0,0.0,0.0,0.0,0.0,0.0,0.0,0.0,0.0,0.0,0.0,0.0,0.0,0.0,0.0,0.0,0.0,0.0,0.0,-3.377,-3.5824,-3.6595,-3.7961,-3.9544,-4.1304,-4.2256,-4.3112,-4.3977,-4.4792,-4.5606,-4.6438,-4.7287,-4.8348,-4.9678,-5.0012,-5.0387,-5.0929,-5.0877,-5.067,-5.0306,-5.0289,-4.9708,-4.8562,-4.8047,-4.7368,-4.654,-4.6037,-4.5776,0.0,-4.521,-4.453,-4.3752,-4.3704,-4.3236,0.0,0.0,0.0,0.0,0.0,-4.0423,-3.9376,0.0,0.0,0.0,0.0,0.0,0.0,0.0,0.0,0.0,0.0,0.0,0.0,0.0,0.0,0.0,0.0,0.0,0.0,0.0,0.0,0.0,0.0,0.0,0.0,0.0,0.0,0.0,0.0,0.0,0.0,0.0,0.0,0.0,0.0,0.0,0.0,0.0,0.0,0.0,0.0,0.0,0.0,-3.7177,-3.5622,-3.5997,-3.7152,-3.5662,-3.612,-3.7336,-3.6542,0.0,0.0,0.0,0.0,0.0,0.0,0.0,0.0,0.0,0.0,0.0,0.0,0.0,0.0,0.0,0.0,0.0,0.0,0.0,0.0,0.0,0.0,0.0,0.0,-3.6065,-3.7859,-3.949,-3.9733,-4.0383,-4.2121,-4.3052,-4.3885,-4.4738,-4.558,-4.6409,-4.7269,-4.8095,-4.8947,-4.9866,0.0,0.0,0.0,0.0,-5.0333,-4.9486,-4.9521,-4.8767,-4.7214,-4.7137,-4.6673,-4.5935,-4.5838,-4.575,-4.5684,-4.5684,-4.5182,-4.4395,-4.4473,-4.4048,-4.3204,-4.2187,-4.1844,-4.1793,-4.0871,-4.0385,0.0,0.0,0.0,0.0,0.0,0.0,0.0,0.0,0.0,0.0,0.0,0.0,0.0,0.0,0.0,0.0,0.0,0.0,0.0,0.0,0.0,0.0,0.0,0.0,0.0,0.0,0.0,0.0,0.0,0.0,0.0,0.0,0.0,0.0,0.0,0.0,0.0,0.0,0.0,0.0,0.0,0.0,0.0,-3.8215,-3.7874,-3.7959,-3.8219,-3.7887,-3.8027,-3.8301,-3.8088,-3.8003,-3.7854,-3.7043,0.0,0.0,0.0,0.0,0.0,0.0,0.0,0.0,0.0,0.0,0.0,0.0,0.0,0.0,0.0,0.0,0.0,0.0,0.0,0.0,-3.5039,-3.7346,-3.9308,-4.0424,-4.056,-4.1203,-4.2964,-4.3932,-4.4773,-4.5588,-4.6429,-4.7295,-4.8111,-4.8958,-4.9814,-5.0639,-5.0819,0.0,-4.9973,-4.9888,-4.9463,-4.8628,-4.8601,-4.8411,-4.806,0.0,0.0,-4.6738,-4.6044,-4.5684,-4.562,-4.562,-4.5086,-4.4283,-4.4993,-4.4783,-4.3844,-4.2324,-4.2078,-4.2506,-4.1609,-4.0864,-4.0368,0.0,0.0,0.0,0.0,0.0,0.0,0.0,0.0,0.0,0.0,0.0,0.0,0.0,0.0,0.0,0.0,0.0,0.0,0.0,0.0,0.0,0.0,0.0,0.0,0.0,0.0,0.0,0.0,0.0,0.0,0.0,0.0,0.0,0.0,0.0,0.0,0.0,0.0,0.0,0.0,0.0,0.0,-3.9058,-3.8219,-3.8141,-3.8494,-3.8495,-3.8783,-3.9207,-3.9626,-3.9708,-3.956,-3.8976,-3.8035,-3.6901,0.0,0.0,0.0,0.0,0.0,0.0,0.0,0.0,0.0,0.0,0.0,0.0,0.0,0.0,-2.9794,0.0,0.0,-3.5311,-3.707,-3.8455,-3.9629,-4.0559,-4.1048,-4.1654,-4.264,-4.3478,-4.4324,-4.5176,-4.5982,-4.698,-4.8295,-4.8377,-4.8918,-5.0229,-4.9821,-4.9379,-4.9019,-4.8968,-4.8546,-4.7712,-4.7697,-4.7449,-4.6986,-4.6513,-4.6323,-4.6323,-4.5899,-4.5637,-4.555,-4.555,-4.5263,-4.4843,-4.5266,-4.5189,-4.4672,-4.3388,-4.2852,-4.2757,-4.2317,-4.1628,-4.096,0.0,0.0,0.0,0.0,0.0,0.0,0.0,0.0,0.0,0.0,0.0,0.0,0.0,0.0,0.0,0.0,0.0,0.0,0.0,0.0,0.0,0.0,0.0,0.0,0.0,0.0,0.0,0.0,0.0,0.0,0.0,0.0,0.0,0.0,0.0,0.0,0.0,0.0,0.0,0.0,0.0,0.0,-4.0577,-3.8712,-3.8428,-3.8998,-3.8986,-3.9283,-3.9828,-4.0662,-4.0729,-4.0466,-4.0308,-3.9,-3.7298,-3.6407,-3.4694,0.0,0.0,0.0,0.0,0.0,0.0,0.0,0.0,0.0,-2.7746,-2.9387,-3.0371,-3.1599,-3.3805,-3.5054,-3.6495,-3.8767,-3.9429,-3.9915,-4.0684,-4.1366,-4.1855,-4.2015,-4.2763,-4.3606,-4.4496,-4.5248,-4.6372,-4.7979,-4.7565,-4.787,-4.9335,-4.8646,-4.8172,-4.8044,-4.8067,-4.7629,-4.6761,-4.6793,-4.6429,-4.5684,-4.5648,-4.5635,-4.564,-4.564,-4.5664,-4.5688,-4.5688,-4.5553,-4.5341,-4.5341,-4.5341,-4.5262,-4.4573,-4.3864,-4.3212,-4.3079,-4.2374,-4.1495,0.0,0.0,0.0,0.0,0.0,0.0,0.0,0.0,0.0,0.0,0.0,0.0,0.0,0.0,0.0,0.0,0.0,0.0,0.0,0.0,0.0,0.0,0.0,0.0,0.0,0.0,0.0,0.0,0.0,0.0,0.0,0.0,0.0,0.0,0.0,0.0,0.0,0.0,0.0,0.0,0.0,0.0,-4.3962,-4.1519,-4.068,-4.0801,-4.0733,-4.0286,-3.9805,-4.05,-4.0138,-3.9353,-3.9144,-3.8156,-3.6873,-3.5953,0.0,-3.2342,-3.0835,-2.8841,-2.7513,-2.8858,-2.8745,-2.9062,0.0,0.0,-3.1808,-3.2864,-3.3696,-3.4396,-3.4812,-3.6234,-3.768,-3.8765,-4.0269,-4.1372,-4.1485,-4.1671,-4.1797,-4.1828,-4.2607,-4.3485,-4.4423,-4.524,-4.6075,-4.7,-4.7694,-4.8137,-4.8347,-4.8307,-4.7937,-4.7182,-4.7163,-4.6722,-4.5835,-4.5789,-4.5736,-4.5603,-4.5475,-4.5438,-4.5438,-4.5419,-4.5781,-4.6388,-4.6317,-4.5852,-4.5129,-4.5129,-4.5129,-4.5129,-4.503,-4.4893,-4.4676,-4.4088,-4.2811,-4.1512,0.0,0.0,0.0,0.0,0.0,0.0,0.0,0.0,0.0,0.0,0.0,0.0,0.0,0.0,0.0,0.0,0.0,0.0,-3.953,0.0,0.0,0.0,0.0,0.0,0.0,0.0,0.0,0.0,0.0,0.0,0.0,0.0,0.0,0.0,0.0,0.0,0.0,0.0,0.0,0.0,0.0,0.0,-4.387,-4.2752,-4.1704,-4.0684,-3.9712,-3.9093,0.0,0.0,-3.9099,-3.8314,-3.8537,-3.7068,-3.515,-3.4705,-3.3065,0.0,-3.0181,0.0,0.0,0.0,-3.0546,-3.16,-3.3537,-3.3687,-3.384,-3.5286,-3.5894,-3.6182,-3.6268,-3.7334,-3.8324,0.0,-3.9871,-4.0864,-4.1399,-4.1093,-4.0825,-4.086,-4.1203,-4.1812,-4.2775,-4.364,-4.4487,-4.5312,-4.5257,-4.5622,-4.6621,-4.6201,-4.5953,-4.6068,-4.6123,-4.595,-4.5584,-4.5549,-4.5531,-4.5531,-4.5457,-4.54,-4.5419,-4.5878,-4.6505,-4.7159,-4.6633,-4.6187,-4.5826,-4.5312,-4.508,-4.5038,-4.5038,-4.4991,-4.4905,-4.468,-4.3504,-4.2093,0.0,0.0,0.0,0.0,0.0,0.0,0.0,0.0,0.0,0.0,0.0,0.0,0.0,0.0,0.0,0.0,0.0,0.0,0.0,-4.0226,0.0,0.0,0.0,0.0,0.0,0.0,0.0,0.0,0.0,0.0,0.0,0.0,0.0,0.0,0.0,0.0,0.0,0.0,0.0,0.0,0.0,0.0,-4.3988,-4.3447,-4.2279,-4.0684,-3.9069,-3.8092,0.0,0.0,-3.7806,-3.7146,-3.7219,-3.5856,-3.4205,-3.4028,-3.2658,-3.1047,-3.0142,0.0,0.0,-3.1041,-3.1763,-3.3191,-3.4327,-3.4736,-3.5268,-3.6633,-3.6967,-3.7014,-3.7134,-3.7543,0.0,-3.8603,-3.9383,-4.0281,-4.1201,-4.0611,-4.0098,-4.0158,-3.9757,-3.9853,-4.0802,-4.1911,-4.2961,-4.382,-4.3305,-4.3517,-4.4781,-4.444,-4.4461,-4.5055,-4.5323,-4.5457,-4.5457,-4.5457,-4.5438,-4.5458,-4.559,-4.5551,-4.536,-4.6388,-4.714,-4.7577,-4.6939,-4.6516,-4.625,-4.5352,-4.4943,-4.4938,-4.4895,-4.4846,-4.4796,-4.4821,-4.381,-4.2393,0.0,0.0,0.0,0.0,0.0,0.0,0.0,0.0,0.0,0.0,0.0,0.0,0.0,0.0,0.0,0.0,0.0,0.0,0.0,-3.7323,0.0,0.0,0.0,0.0,0.0,0.0,0.0,0.0,0.0,0.0,0.0,0.0,0.0,0.0,0.0,0.0,0.0,0.0,0.0,0.0,0.0,0.0,-4.5465,-4.3755,-4.2505,-4.1447,-3.9777,0.0,0.0,0.0,-3.6178,-3.5754,-3.4675,-3.4578,0.0,-3.4498,-3.3661,0.0,0.0,0.0,-3.1102,-3.1074,-3.1861,-3.3062,-3.4696,-3.5735,-3.6407,-3.6679,-3.6694,-3.6777,-3.6967,-3.6437,-3.6506,-3.8154,-3.9211,-4.0132,-4.107,-4.0507,-4.0017,-4.0098,-3.8671,-3.8004,0.0,-4.0502,-4.1915,-4.2776,-4.2833,-4.2871,-4.2983,-4.3751,-4.4211,-4.425,-4.4998,-4.54,-4.54,-4.5339,-4.5317,-4.5317,-4.6027,-4.5944,-4.5163,-4.6749,-4.7454,-4.7397,-4.7307,-4.6845,-4.6025,-4.5096,-4.4712,-4.4712,-4.4632,-4.4551,-4.4496,-4.444,-4.348,-4.2203,0.0,0.0,0.0,0.0,0.0,0.0,0.0,0.0,0.0,0.0,0.0,0.0,0.0,0.0,0.0,0.0,0.0,0.0,0.0,-3.9078,0.0,0.0,0.0,0.0,0.0,0.0,0.0,0.0,0.0,0.0,0.0,0.0,0.0,0.0,0.0,0.0,0.0,0.0,0.0,0.0,0.0,0.0,-4.5432,-4.4172,-4.2412,-4.0405,0.0,0.0,0.0,0.0,0.0,0.0,-3.4515,0.0,0.0,-3.2715,-3.2592,-3.2449,0.0,0.0,-3.2188,-3.1708,-3.235,-3.3439,-3.4564,-3.5604,-3.6527,-3.7165,-3.6943,-3.666,-3.6731,-3.6162,-3.6077,-3.7234,-3.8197,-3.9326,-4.0788,-4.0306,-3.9615,-3.911,-3.9037,0.0,0.0,0.0,0.0,-4.1017,-4.1532,-4.2085,-4.2737,-4.3003,-4.3651,-4.4756,-4.4531,-4.4666,-4.5258,-4.5235,-4.5235,-4.5254,-4.5452,-4.565,-4.5908,-4.6478,-4.696,-4.7359,-4.6802,-4.6398,-4.6025,-4.5148,-4.4693,-4.4632,-4.4605,-4.4524,-4.4411,-4.4411,-4.3671,-4.2595,0.0,0.0,0.0,0.0,0.0,0.0,0.0,0.0,0.0,0.0,0.0,0.0,0.0,0.0,0.0,0.0,0.0,0.0,0.0,0.0,-3.9442,0.0,0.0,0.0,0.0,0.0,0.0,0.0,0.0,0.0,0.0,0.0,0.0,0.0,0.0,0.0,0.0,0.0,0.0,0.0,0.0,0.0,-4.4825,-4.3215,-4.1338,0.0,0.0,0.0,0.0,0.0,0.0,0.0,0.0,0.0,-3.4458,-3.2645,-3.277,-3.3032,0.0,-3.1862,-3.303,-3.1974,-3.2714,-3.3864,-3.4474,-3.5417,-3.6325,-3.7004,-3.6583,-3.6019,-3.575,-3.4897,-3.4628,-3.5776,-3.6512,-3.7526,-3.9245,-3.9091,-3.8587,-3.8105,-3.881,0.0,0.0,0.0,0.0,-4.0475,-4.1273,-4.1977,-4.2569,-4.2876,-4.3523,-4.4585,-4.4398,-4.4576,-4.517,-4.5125,-4.5255,-4.5559,-4.519,-4.5599,-4.6695,-4.641,-4.6689,-4.734,-4.6493,-4.5911,-4.5526,-4.4643,-4.4037,-4.3686,-4.3933,-4.399,-4.3914,-4.4184,-4.3852,-4.3185,0.0,0.0,0.0,0.0,0.0,0.0,0.0,0.0,0.0,0.0,0.0,0.0,0.0,0.0,0.0,0.0,0.0,0.0,0.0,0.0,0.0,0.0,0.0,0.0,0.0,0.0,0.0,0.0,0.0,0.0,0.0,0.0,0.0,0.0,0.0,0.0,0.0,0.0,0.0,0.0,0.0,0.0,-4.3695,-4.1168,0.0,0.0,0.0,0.0,0.0,0.0,0.0,0.0,0.0,0.0,-3.6927,-3.4407,-3.4158,-3.4212,-3.183,-3.2458,-3.3509,-3.2119,-3.3009,-3.4225,-3.4326,-3.5108,-3.5836,-3.5999,-3.5515,-3.4852,0.0,0.0,-3.2321,-3.4017,-3.4354,-3.5025,-3.6817,-3.7146,-3.7234,0.0,0.0,0.0,0.0,0.0,0.0,-4.1194,0.0,-4.2511,-4.2442,-4.3301,-4.3764,-4.3734,-4.4493,-4.4976,-4.5061,-4.4943,-4.5312,-4.6127,-4.5255,-4.5672,-4.7169,-4.6373,-4.6411,-4.7093,-4.618,-4.5334,-4.4485,-4.3592,-4.275,-4.2066,-4.2698,-4.2959,-4.3023,-4.3695,-4.3931,-4.3838,0.0,0.0,0.0,0.0,0.0,0.0,0.0,0.0,0.0,0.0,0.0,0.0,0.0,0.0,0.0,0.0,0.0,0.0,0.0,0.0,0.0,0.0,0.0,0.0,0.0,0.0,0.0,0.0,0.0,0.0,0.0,0.0,0.0,0.0,0.0,0.0,0.0,0.0,0.0,0.0,0.0,0.0,-4.2067,0.0,0.0,0.0,0.0,0.0,0.0,0.0,0.0,0.0,0.0,0.0,-3.7901,-3.7066,-3.6107,-3.5035,-3.3737,-3.3873,-3.4321,-3.4041,-3.4018,-3.3773,-3.2732,-3.3304,-3.3717,-3.2639,-3.282,-3.3138,0.0,0.0,0.0,-3.3795,-3.4204,0.0,-3.7359,-3.832,0.0,0.0,0.0,-4.0851,-4.0405,-4.1694,0.0,0.0,-4.2975,-4.3165,-4.3209,-4.3447,-4.3825,-4.443,-4.409,-4.4191,-4.487,-4.4846,-4.4934,-4.5142,-4.426,-4.409,-4.4487,-4.3593,-4.3328,-4.3498,-4.3215,-4.2956,-4.2679,-4.2438,-4.2133,-4.1884,-4.2089,-4.2128,-4.2126,-4.2917,-4.3155,-4.3169,0.0,0.0,0.0,0.0,0.0,0.0,0.0,0.0,0.0,0.0,0.0,0.0,0.0,0.0,0.0,0.0,0.0,0.0,0.0,0.0,0.0,0.0,0.0,0.0,0.0,0.0,0.0,0.0,0.0,0.0,0.0,0.0,0.0,0.0,0.0,0.0,0.0,0.0,0.0,0.0,0.0,0.0,0.0,0.0,0.0,0.0,0.0,0.0,0.0,0.0,0.0,-3.9553,-3.9812,-3.9797,-3.9487,-3.8238,0.0,-3.5706,-3.4943,-3.4874,-3.4944,-3.4851,-3.4606,-3.4122,-3.3041,-3.2823,-3.2596,-3.1774,-3.1482,0.0,0.0,0.0,0.0,0.0,0.0,0.0,-3.6474,-3.791,-3.9014,0.0,-4.1334,0.0,-4.2221,-4.338,-4.4007,0.0,-4.3811,-4.3874,-4.3901,-4.3981,-4.4214,-4.4587,-4.4199,-4.4233,-4.4712,-4.4745,-4.4764,-4.4745,-4.4266,-4.4033,-4.3995,-4.3146,-4.2769,-4.2699,0.0,-4.1818,-4.1466,-4.1769,-4.1659,-4.1334,-4.2044,-4.2286,-4.2284,-4.2701,-4.2809,-4.2853,0.0,0.0,0.0,0.0,0.0,0.0,0.0,0.0,0.0,0.0,0.0,0.0,0.0,0.0,0.0,0.0,0.0,0.0,0.0,0.0,0.0,0.0,0.0,0.0,0.0,0.0,0.0,0.0,0.0,0.0,0.0,0.0,0.0,0.0,0.0,0.0,0.0,0.0,0.0,0.0,0.0,0.0,0.0,0.0,0.0,0.0,0.0,0.0,0.0,0.0,-4.0456,-4.1438,-4.0477,-4.0824,-4.1077,-3.8677,-3.7232,-3.6284,-3.5641,-3.5555,-3.554,-3.5164,-3.4976,-3.4659,-3.3942,-3.2791,-3.182,-3.1562,0.0,0.0,-2.9759,0.0,-2.9342,-3.1011,0.0,-3.2373,-3.5147,-3.696,-3.8674,-4.0402,-4.2079,-4.3394,-4.4158,-4.486,-4.4972,-4.4311,-4.4373,-4.4411,-4.4383,-4.4551,-4.4605,-4.4487,-4.457,-4.4578,-4.4578,-4.4659,-4.4629,-4.4516,-4.4376,-4.4263,-4.4131,-4.3321,-4.2919,-4.2829,0.0,0.0,-4.0536,-4.1212,-4.1128,-4.0709,-4.2071,-4.2571,-4.2571,-4.2593,-4.263,-4.2649,0.0,0.0,0.0,0.0,0.0,0.0,0.0,0.0,0.0,0.0,-2.2082,0.0,0.0,0.0,0.0,0.0,0.0,0.0,0.0,0.0,0.0,0.0,0.0,0.0,0.0,0.0,0.0,0.0,0.0,0.0,0.0,0.0,0.0,0.0,0.0,0.0,0.0,0.0,0.0,0.0,0.0,0.0,0.0,0.0,0.0,0.0,0.0,0.0,0.0,0.0,-4.1083,-4.2266,-4.2572,-4.2079,-4.1126,-3.9829,-3.8353,-3.6964,-3.6122,-3.6128,-3.6342,-3.6444,-3.5545,-3.4199,-3.2423,-3.139,0.0,0.0,0.0,-2.8637,-2.7997,-2.7833,0.0,-2.9922,0.0,0.0,0.0,0.0,-3.9309,0.0,0.0,0.0,0.0,0.0,0.0,0.0,0.0,-4.4158,-4.4314,-4.4344,-4.4373,-4.4344,-4.4458,-4.4515,-4.4515,-4.4542,-4.4185,-4.3509,-4.2706,-4.1958,-4.1285,-4.0461,-4.0087,-4.0087,0.0,0.0,-3.948,-3.9728,-4.0066,-4.0477,-4.0849,-4.0933,-4.0932,-4.1512,-4.1753,-4.1765,0.0,0.0,0.0,0.0,0.0,0.0,0.0,0.0,0.0,0.0,-2.4842,-2.455,0.0,0.0,0.0,0.0,0.0,0.0,0.0,0.0,0.0,0.0,0.0,0.0,0.0,0.0,0.0,0.0,0.0,0.0,0.0,0.0,0.0,0.0,0.0,0.0,0.0,0.0,0.0,0.0,0.0,0.0,0.0,0.0,0.0,0.0,0.0,0.0,0.0,0.0,-4.0323,-4.1301,-4.2736,-4.2308,-4.1133,-4.0123,-3.8646,-3.7195,-3.6895,-3.6671,-3.6643,-3.6869,-3.5814,-3.4411,-3.3064,0.0,0.0,0.0,0.0,-2.7752,-2.7405,0.0,0.0,0.0,0.0,0.0,0.0,0.0,0.0,0.0,0.0,0.0,0.0,0.0,0.0,0.0,0.0,-4.4438,-4.4263,-4.4244,-4.4255,-4.4285,-4.4373,-4.4401,-4.4401,-4.4401,-4.3971,-4.3147,-4.2632,-4.1988,-4.1185,-4.0381,-4.0026,-3.9935,-3.9415,0.0,-3.923,-4.0151,-4.0719,-4.1089,-4.2031,-4.2318,-4.2222,-4.1686,-4.1519,-4.1445,0.0,0.0,0.0,0.0,0.0,0.0,0.0,-2.1948,-2.3207,-2.6561,-2.713,-2.6961,-2.6134,-2.637,0.0,0.0,0.0,0.0,0.0,0.0,0.0,0.0,0.0,0.0,0.0,0.0,0.0,0.0,0.0,0.0,0.0,0.0,0.0,0.0,0.0,0.0,0.0,0.0,0.0,0.0,0.0,0.0,0.0,0.0,0.0,0.0,0.0,0.0,0.0,0.0,-3.885,-3.9132,-4.1173,-4.1095,-4.0085,-3.9326,-3.8025,-3.6835,-3.7154,-3.6945,-3.6684,-3.6869,-3.587,-3.4606,-3.3739,-3.1542,0.0,0.0,0.0,-2.7399,-2.7245,0.0,0.0,0.0,0.0,0.0,0.0,0.0,0.0,0.0,0.0,0.0,0.0,0.0,0.0,0.0,0.0,0.0,-4.416,-4.4153,-4.4184,-4.4237,-4.4255,-4.4304,-4.4304,-4.4304,-4.3762,-4.2735,-4.2706,-4.2184,-4.1222,-4.0578,-4.0271,-4.016,-3.9462,0.0,0.0,-4.0746,-4.1471,-4.1739,-4.3218,-4.3745,-4.3578,-4.2057,-4.1508,-4.1329,0.0,0.0,0.0,0.0,0.0,0.0,0.0,-2.1783,-2.3188,-2.7024,-2.7108,-2.7264,-2.8278,-2.8423,0.0,0.0,0.0,0.0,0.0,0.0,0.0,0.0,0.0,0.0,0.0,0.0,0.0,0.0,0.0,0.0,0.0,0.0,0.0,0.0,0.0,0.0,0.0,0.0,0.0,0.0,0.0,0.0,0.0,0.0,0.0,0.0,0.0,0.0,0.0,0.0,0.0,-3.5703,-3.7256,-3.7341,-3.6817,-3.6671,0.0,0.0,-3.6097,-3.6446,-3.6544,-3.6684,-3.5619,-3.423,-3.2982,0.0,0.0,0.0,-2.8246,-2.796,-2.7173,0.0,0.0,0.0,0.0,0.0,0.0,0.0,0.0,0.0,0.0,0.0,0.0,0.0,0.0,0.0,0.0,0.0,-4.3947,-4.3947,-4.3961,-4.4036,-4.4135,-4.4214,-4.4214,-4.4214,-4.3413,-4.1828,-4.176,-4.0923,-3.9434,-3.9305,-3.9268,-3.9322,-3.9166,0.0,0.0,-4.0179,-4.0998,-4.1683,-4.2616,-4.2969,-4.2816,-4.1853,-4.1508,-4.1237,0.0,0.0,0.0,0.0,0.0,0.0,0.0,-2.0752,-2.2203,-2.675,-2.705,-2.7387,-2.8954,-2.8992,-2.8344,0.0,0.0,0.0,0.0,0.0,0.0,0.0,0.0,0.0,0.0,0.0,0.0,0.0,0.0,0.0,0.0,0.0,0.0,0.0,0.0,0.0,0.0,0.0,0.0,0.0,0.0,0.0,0.0,0.0,0.0,0.0,0.0,0.0,0.0,0.0,0.0,0.0,-3.4356,-3.3955,0.0,0.0,-3.4995,-3.5042,-3.5476,-3.6115,-3.6643,-3.6725,-3.5696,-3.4321,-3.286,0.0,0.0,-2.8358,-2.778,-2.7362,-2.7049,-2.7074,0.0,0.0,0.0,0.0,0.0,0.0,0.0,0.0,0.0,0.0,0.0,0.0,0.0,0.0,0.0,0.0,-4.4417,-4.4044,-4.4105,-4.4633,-4.4252,-4.4042,-4.4085,-4.4085,-4.3267,-4.1649,-4.1619,-4.0746,-3.9129,-3.9129,-3.9129,-3.9129,-3.9101,0.0,0.0,-4.0578,-4.1341,-4.172,-4.3051,-4.3553,-4.3398,-4.2495,-4.1872,-4.1249,0.0,0.0,0.0,0.0,0.0,0.0,-1.9849,-2.0236,-2.1774,-2.5986,-2.6392,-2.7008,-2.8796,-2.8356,-2.7662,-2.6993,0.0,0.0,0.0,0.0,0.0,0.0,0.0,0.0,0.0,0.0,0.0,0.0,0.0,0.0,0.0,0.0,0.0,0.0,0.0,0.0,0.0,0.0,0.0,0.0,0.0,0.0,0.0,0.0,0.0,0.0,0.0,0.0,0.0,0.0,0.0,0.0,0.0,0.0,0.0,0.0,-3.3687,-3.4197,-3.5007,-3.5798,-3.6429,-3.6719,-3.5773,-3.4375,0.0,0.0,-2.9496,-2.8621,-2.7992,-2.7601,-2.771,-2.754,-2.7424,0.0,0.0,0.0,0.0,0.0,0.0,0.0,0.0,0.0,0.0,0.0,0.0,0.0,0.0,0.0,0.0,-4.4007,-4.4088,-4.5049,-4.4309,-4.3897,-4.3961,-4.3961,-4.3126,-4.1512,-4.156,-4.0688,-3.9101,-3.9101,-3.9101,-3.9129,0.0,0.0,0.0,-4.0903,-4.159,-4.1739,-4.3113,-4.3652,-4.3509,-4.2606,-4.173,-4.0923,0.0,0.0,0.0,0.0,0.0,0.0,0.0,-2.0533,-2.2248,-2.4594,-2.5057,-2.5854,-2.78,-2.6461,-2.5913,-2.709,0.0,0.0,0.0,0.0,0.0,0.0,0.0,0.0,0.0,0.0,0.0,0.0,0.0,0.0,0.0,0.0,0.0,0.0,0.0,0.0,0.0,0.0,0.0,0.0,0.0,0.0,0.0,0.0,0.0,0.0,0.0,0.0,0.0,0.0,0.0,0.0,0.0,0.0,0.0,0.0,-3.1743,-3.2187,-3.4713,-3.5456,-3.5732,-3.6579,-3.5752,-3.432,0.0,0.0,-3.09,-2.9544,-2.9236,-2.9218,-2.934,-2.8727,-2.8182,0.0,0.0,0.0,0.0,0.0,0.0,0.0,0.0,0.0,0.0,0.0,0.0,0.0,0.0,0.0,0.0,-4.3634,-4.3759,-4.4967,-4.4229,-4.3804,-4.3804,-4.3804,-4.2955,-4.1292,-4.144,-4.0648,-3.9101,-3.9101,-3.9129,0.0,0.0,0.0,0.0,-4.0903,-4.159,-4.1683,-4.2482,-4.2816,-4.2723,-4.1834,-4.091,-4.0111,0.0,0.0,0.0,0.0,0.0,0.0,0.0,-1.7934,-1.8983,-2.1723,-2.2252,-2.3465,-2.6304,-2.5831,-2.5837,-2.7048,0.0,0.0,0.0,0.0,0.0,0.0,0.0,0.0,0.0,0.0,-3.1284,-3.2754,-3.3187,0.0,0.0,0.0,0.0,0.0,0.0,0.0,0.0,0.0,0.0,0.0,0.0,0.0,0.0,0.0,0.0,0.0,0.0,0.0,0.0,0.0,0.0,0.0,0.0,0.0,0.0,0.0,0.0,0.0,-3.2152,-3.3422,-3.4571,-3.4501,-3.4139,-3.3458,-3.2015,-3.1049,-3.0096,-2.8705,-2.8357,-2.8329,-2.8415,-2.823,-2.8426,0.0,0.0,0.0,0.0,0.0,0.0,0.0,0.0,0.0,0.0,0.0,0.0,0.0,0.0,0.0,0.0,-4.356,-4.3634,-4.4761,-4.4023,-4.3652,-4.3804,-4.3804,-4.2955,-4.1292,-4.1459,-4.0619,-3.9036,-3.9073,0.0,0.0,0.0,0.0,0.0,-4.0203,-4.0619,-4.0663,-4.1514,-4.1878,-4.1871,-4.1484,-4.1176,-4.0923,0.0,0.0,0.0,0.0,0.0,0.0,0.0,-1.7287,-1.8018,-1.9786,-2.0585,-2.1971,-2.4524,-2.4637,-2.518,-2.6847,0.0,0.0,0.0,0.0,0.0,0.0,0.0,0.0,0.0,-3.0649,-3.1843,-3.343,-3.4074,-3.4514,-3.4685,-3.535,0.0,0.0,0.0,0.0,0.0,0.0,0.0,0.0,0.0,0.0,-3.757,0.0,0.0,0.0,0.0,0.0,0.0,0.0,0.0,0.0,0.0,0.0,0.0,0.0,0.0,0.0,0.0,-3.2483,-3.339,-3.3384,-3.3421,0.0,0.0,-3.0876,-3.0191,-2.9059,-2.8553,-2.8341,-2.8411,-2.8209,-2.8304,0.0,0.0,0.0,0.0,0.0,0.0,0.0,0.0,0.0,0.0,0.0,0.0,0.0,0.0,0.0,0.0,-4.2956,-4.2868,-4.356,-4.3449,-4.3316,-4.3195,-4.3177,-4.2382,-4.0756,-4.0917,-4.0263,-3.895,-3.9036,0.0,0.0,0.0,0.0,0.0,-3.9819,-4.0122,-4.0148,-4.0683,-4.0935,-4.1003,-4.12,-4.0861,-4.0406,0.0,0.0,0.0,0.0,0.0,0.0,0.0,0.0,0.0,0.0,-1.9833,-2.1253,-2.2598,-2.2992,-2.416,0.0,0.0,0.0,0.0,0.0,0.0,0.0,0.0,0.0,0.0,-3.068,-3.1642,-3.4148,-3.442,-3.4619,-3.488,-3.6494,-3.6821,-3.6066,0.0,0.0,-3.7239,-3.6919,-3.6656,-3.6523,-3.7202,-3.6839,0.0,0.0,0.0,0.0,0.0,0.0,0.0,0.0,0.0,0.0,0.0,0.0,0.0,0.0,0.0,0.0,0.0,0.0,0.0,0.0,0.0,0.0,0.0,-3.1072,0.0,-3.0149,-2.9427,-2.8981,-2.916,-2.857,-2.8116,0.0,0.0,0.0,0.0,0.0,0.0,0.0,0.0,0.0,0.0,0.0,0.0,0.0,0.0,0.0,0.0,-4.1913,-4.1594,-4.1596,-4.2505,-4.2704,-4.2132,-4.2114,-4.1361,-3.9882,-4.0019,-3.9649,-3.8818,-3.8876,0.0,0.0,0.0,0.0,0.0,-3.9704,-4.0,-4.0018,-4.0074,-4.0092,-4.0173,-4.0941,-4.0202,-3.9093,0.0,0.0,0.0,0.0,0.0,0.0,0.0,0.0,0.0,0.0,0.0,-1.9934,-2.1823,-2.2584,0.0,0.0,0.0,0.0,0.0,0.0,0.0,0.0,0.0,0.0,0.0,-3.2045,-3.3332,-3.4779,-3.6095,-3.6887,-3.7154,-3.8212,-3.7965,-3.6737,-3.7947,-3.8525,-3.8569,-3.7812,-3.7727,-3.8071,-3.7429,-3.698,0.0,0.0,0.0,0.0,-3.347,-3.3262,0.0,0.0,0.0,0.0,0.0,0.0,0.0,0.0,-3.042,-2.9886,-3.1629,0.0,-3.03,-3.1237,0.0,0.0,0.0,0.0,0.0,0.0,0.0,-2.8325,-2.9628,-2.922,0.0,0.0,0.0,0.0,0.0,0.0,0.0,0.0,0.0,0.0,0.0,0.0,0.0,0.0,0.0,0.0,0.0,-4.1414,-4.1153,-4.0616,-4.0871,-4.1035,-4.1115,-4.122,-4.0778,-3.9841,-3.9963,-3.9282,-3.79,-3.7987,0.0,0.0,0.0,0.0,-3.884,-3.9024,-3.9086,-3.9099,-3.9706,-3.9976,-4.013,-4.0909,-4.0964,-4.0675,0.0,0.0,0.0,0.0,0.0,0.0,0.0,0.0,0.0,0.0,0.0,0.0,0.0,0.0,0.0,0.0,0.0,0.0,0.0,0.0,0.0,0.0,0.0,0.0,-3.1195,-3.2252,-3.347,-3.4867,-3.6208,-3.719,-3.7776,-3.8646,-3.8655,-3.7944,-3.8401,-3.8516,-3.8293,-3.7044,-3.6633,-3.676,-3.6181,0.0,0.0,0.0,0.0,0.0,-3.2857,-3.2755,0.0,-3.2494,-3.2232,-3.2091,0.0,0.0,0.0,0.0,-3.0162,-2.9765,-3.0972,-3.092,-3.068,-3.1289,-3.1098,-3.0664,0.0,0.0,0.0,0.0,0.0,0.0,-2.8798,0.0,0.0,0.0,0.0,0.0,0.0,0.0,0.0,0.0,0.0,0.0,0.0,0.0,0.0,0.0,0.0,0.0,0.0,-4.0196,-3.9881,-3.9528,-3.9227,-3.9428,-4.0122,-4.0175,-3.9859,-3.914,-3.8884,-3.8334,-3.7566,-3.7595,-3.7421,0.0,0.0,0.0,-3.8247,-3.8584,-3.8719,-3.8744,-3.9184,-3.9601,-4.0,-4.0441,-4.0575,-4.0561,0.0,0.0,0.0,0.0,0.0,0.0,0.0,0.0,0.0,0.0,0.0,0.0,0.0,0.0,0.0,0.0,0.0,0.0,0.0,0.0,0.0,0.0,0.0,-3.0822,-3.1836,-3.2224,-3.3298,-3.5042,-3.6085,-3.7124,-3.814,-3.9128,-3.9549,-3.9369,-3.8109,-3.7608,-3.7551,-3.5936,-3.5111,-3.495,-3.4666,0.0,0.0,0.0,0.0,0.0,0.0,0.0,0.0,-3.1917,-3.1865,-3.1759,-3.089,0.0,0.0,0.0,0.0,0.0,-3.0713,-3.1489,-3.1975,-3.2072,-3.1897,-3.1601,0.0,0.0,0.0,0.0,0.0,0.0,0.0,0.0,0.0,0.0,0.0,0.0,0.0,0.0,0.0,0.0,0.0,0.0,0.0,0.0,0.0,0.0,0.0,0.0,0.0,-3.8819,-3.851,-3.8386,-3.7791,-3.7972,-3.9011,-3.9099,-3.8803,-3.8168,-3.757,-3.7223,-3.7081,-3.7081,-3.6743,0.0,0.0,0.0,-3.7551,-3.8328,-3.8658,-3.8707,-3.8836,-3.9294,-3.9918,-4.0175,-4.0162,-3.9991,0.0,0.0,0.0,0.0,0.0,0.0,0.0,0.0,0.0,0.0,0.0,0.0,0.0,0.0,0.0,0.0,0.0,0.0,0.0,0.0,0.0,0.0,-3.155,-3.1553,-3.261,-3.3444,-3.4799,-3.6649,-3.815,-3.9477,-4.0593,-4.2081,-4.211,-4.0738,-3.7768,-3.7147,-3.8217,-3.6547,-3.617,-3.649,-3.497,0.0,0.0,0.0,0.0,0.0,0.0,0.0,0.0,-3.0417,-3.0525,-3.0872,-3.0109,0.0,0.0,0.0,0.0,0.0,-3.1834,-3.2607,-3.2538,-3.2031,-3.1408,-3.0888,0.0,0.0,0.0,0.0,0.0,0.0,0.0,0.0,0.0,0.0,0.0,0.0,0.0,0.0,0.0,0.0,0.0,0.0,0.0,0.0,0.0,0.0,0.0,0.0,0.0,0.0,-3.8107,-3.7509,-3.6769,-3.6826,-3.7864,-3.8095,-3.7887,-3.7225,-3.7144,-3.6455,-3.5214,-3.5214,-3.5141,0.0,0.0,-3.6796,-3.7461,-3.823,-3.8609,-3.8781,-3.9441,-3.979,-4.0065,-4.1423,-4.1497,-4.0863,0.0,0.0,0.0,0.0,0.0,0.0,0.0,0.0,0.0,0.0,0.0,0.0,0.0,0.0,0.0,0.0,0.0,0.0,0.0,0.0,0.0,-3.3373,-3.304,-3.3141,-3.388,-3.4474,-3.5805,-3.7971,-3.8868,-4.0237,-4.2067,-4.2044,-4.1181,-3.9598,-3.7613,-3.732,-3.814,-3.6108,-3.5571,-3.5921,0.0,0.0,0.0,0.0,0.0,0.0,0.0,0.0,0.0,0.0,-2.9952,-3.004,-2.9262,0.0,0.0,0.0,0.0,0.0,-3.0575,-3.1588,-3.2084,-3.1906,-3.2182,-3.2545,0.0,0.0,0.0,0.0,0.0,0.0,0.0,0.0,0.0,0.0,0.0,0.0,0.0,0.0,0.0,0.0,0.0,0.0,0.0,0.0,0.0,0.0,0.0,0.0,0.0,0.0,-3.613,-3.5817,-3.5504,-3.5614,-3.6095,-3.6274,-3.652,-3.6829,-3.6045,-3.5326,-3.4691,-3.4732,-3.4524,-3.4225,0.0,-3.6644,-3.673,-3.7935,-3.8496,-3.8583,-3.8962,-3.9433,-3.9983,-4.1207,-4.1357,-4.0928,0.0,0.0,0.0,0.0,0.0,0.0,0.0,0.0,0.0,0.0,0.0,0.0,0.0,0.0,0.0,0.0,0.0,0.0,0.0,0.0,-3.2802,-3.4106,-3.4335,-3.4697,-3.5308,-3.5386,-3.6595,-3.9075,-3.9282,-4.0528,-4.2611,-4.1177,-3.9735,-3.8332,-3.7681,-3.7548,-3.7654,-3.5814,-3.513,-3.5166,0.0,0.0,0.0,0.0,0.0,0.0,0.0,0.0,0.0,0.0,0.0,0.0,0.0,0.0,0.0,-2.8403,-2.8232,-2.8319,-2.9438,-3.0503,-3.1408,-3.1881,0.0,0.0,0.0,0.0,0.0,0.0,0.0,0.0,0.0,0.0,0.0,0.0,0.0,0.0,0.0,0.0,0.0,0.0,0.0,0.0,0.0,0.0,0.0,0.0,0.0,0.0,0.0,0.0,-3.4428,-3.4411,-3.4477,-3.455,-3.4726,-3.4535,-3.4977,-3.6088,-3.495,-3.4362,-3.4256,-3.4329,-3.4073,-3.3629,-3.5715,-3.6383,-3.6073,-3.7494,-3.8218,-3.8415,-3.8446,-3.9118,-4.0174,-4.1046,-4.1254,-4.1118,0.0,0.0,0.0,0.0,0.0,0.0,0.0,0.0,0.0,0.0,0.0,0.0,0.0,0.0,0.0,0.0,0.0,0.0,0.0,0.0,-3.294,-3.4861,-3.5046,-3.5677,-3.6794,-3.63,-3.7303,-3.9825,-3.9958,-4.0651,-4.1778,-4.034,-3.9155,-3.8223,-3.8099,-3.76,-3.6766,-3.65,-3.595,-3.522,-3.416,0.0,0.0,0.0,0.0,0.0,0.0,0.0,0.0,0.0,0.0,0.0,0.0,0.0,-2.8403,-2.8403,-2.7772,-2.7587,-2.9814,-3.0465,-3.082,-3.2188,0.0,0.0,0.0,0.0,0.0,0.0,0.0,0.0,0.0,0.0,0.0,0.0,0.0,0.0,0.0,0.0,0.0,0.0,0.0,0.0,0.0,0.0,0.0,0.0,0.0,0.0,0.0,0.0,0.0,-3.4241,-3.3731,-3.3824,-3.4526,-3.3301,-3.3208,-3.4276,-3.4202,-3.3802,-3.3206,-3.3334,-3.3376,-3.3376,-3.4359,-3.5211,-3.5975,-3.6848,-3.7662,-3.8382,-3.8415,-3.9433,-4.0998,-4.1821,-4.2008,-4.2011,0.0,0.0,0.0,0.0,0.0,0.0,0.0,0.0,0.0,0.0,0.0,0.0,0.0,0.0,0.0,0.0,0.0,0.0,0.0,0.0,-3.3296,-3.461,-3.5352,-3.5983,-3.655,-3.7556,-3.9047,-4.0948,-4.1777,-4.1662,-4.0762,-3.9752,-3.9102,-3.8724,-3.8202,-3.7701,-3.722,-3.6666,-3.5865,-3.4925,-3.3988,-3.3038,0.0,0.0,0.0,0.0,0.0,0.0,0.0,0.0,-2.7489,-2.7661,0.0,0.0,-2.7713,-2.7713,-2.7474,-2.7375,-2.8283,-2.9728,-3.1175,-3.1816,0.0,0.0,0.0,0.0,0.0,0.0,0.0,0.0,0.0,0.0,0.0,0.0,0.0,0.0,0.0,0.0,0.0,0.0,0.0,0.0,0.0,0.0,0.0,0.0,0.0,0.0,0.0,0.0,0.0,-3.2572,-3.2501,-3.2576,-3.2891,-3.2458,-3.2511,-3.3034,-3.3202,-3.3187,-3.2979,-3.3091,-3.3152,-3.3219,-3.4042,-3.4596,-3.502,-3.6367,-3.7105,-3.7464,-3.8071,-3.9385,-4.0979,-4.1241,-4.192,-4.2632,0.0,0.0,0.0,0.0,0.0,0.0,0.0,0.0,0.0,0.0,0.0,0.0,0.0,0.0,0.0,0.0,0.0,0.0,0.0,-3.1624,-3.2966,-3.4438,-3.5214,-3.5822,-3.6276,-3.7652,-3.9073,-4.0524,-4.1434,-4.1167,-3.9747,-3.9246,-3.8905,-3.8654,-3.8349,-3.7954,-3.7487,-3.663,-3.5704,-3.4727,-3.4073,-3.3106,0.0,0.0,0.0,0.0,0.0,0.0,0.0,0.0,0.0,0.0,0.0,0.0,0.0,0.0,0.0,0.0,-2.7514,-2.9229,0.0,0.0,0.0,0.0,0.0,0.0,0.0,0.0,0.0,0.0,0.0,0.0,0.0,0.0,0.0,0.0,0.0,0.0,0.0,0.0,0.0,0.0,0.0,0.0,0.0,0.0,0.0,0.0,0.0,0.0,0.0,0.0,-3.1691,-3.1802,-3.1802,-3.1948,-3.2108,-3.2232,-3.2473,-3.2657,-3.2802,-3.2902,-3.2979,-3.306,-3.3647,-3.4056,-3.4393,-3.5537,-3.6342,-3.6934,-3.8186,-3.9392,-4.0477,-4.063,-4.1414,-4.2232,0.0,0.0,0.0,0.0,0.0,0.0,0.0,0.0,0.0,0.0,0.0,0.0,0.0,0.0,0.0,0.0,0.0,0.0,-3.026,-3.0576,-3.185,-3.437,-3.4618,-3.5164,-3.6131,-3.6335,-3.6991,-3.8169,-3.8447,-3.8658,-3.8808,-3.8866,-3.8456,-3.7739,-3.847,-3.8269,-3.7303,-3.639,-3.5483,-3.467,-3.4541,-3.345,-3.1981,0.0,0.0,0.0,0.0,0.0,0.0,0.0,0.0,0.0,0.0,0.0,0.0,0.0,-2.747,-2.7998,-2.7998,0.0,0.0,0.0,0.0,0.0,0.0,0.0,0.0,0.0,0.0,0.0,0.0,0.0,0.0,0.0,0.0,0.0,0.0,0.0,0.0,0.0,0.0,0.0,0.0,0.0,0.0,0.0,0.0,0.0,0.0,0.0,0.0,0.0,-3.1445,-3.1579,-3.1579,-3.1802,-3.1894,-3.1894,-3.202,-3.2266,-3.2606,-3.274,-3.2838,-3.2916,-3.2948,-3.349,-3.4271,-3.4321,-3.5303,-3.697,-3.8749,-3.9504,-3.9579,-4.0254,-4.0581,-4.0652,0.0,0.0,0.0,0.0,0.0,0.0,0.0,0.0,0.0,0.0,0.0,0.0,0.0,0.0,0.0,0.0,0.0,0.0,0.0,-2.9947,-3.1098,-3.1933,-3.3228,-3.4099,-3.4428,-3.5266,-3.5971,-3.6517,-3.7686,-3.8086,-3.7745,-3.7765,-3.766,-3.7447,-3.817,-3.7403,-3.5539,-3.5746,-3.5001,-3.3661,-3.4144,-3.328,-3.1906,0.0,0.0,0.0,0.0,0.0,0.0,0.0,0.0,0.0,0.0,0.0,0.0,0.0,-2.7128,-2.7316,-2.7316,0.0,0.0,0.0,0.0,0.0,0.0,0.0,0.0,0.0,0.0,0.0,0.0,0.0,0.0,0.0,0.0,0.0,0.0,0.0,0.0,0.0,0.0,0.0,0.0,0.0,0.0,0.0,0.0,0.0,0.0,0.0,0.0,0.0,-3.1134,-3.1329,-3.1329,-3.1538,-3.1634,-3.1691,-3.1819,-3.2037,-3.2318,-3.2439,-3.2574,-3.2705,-3.2705,-3.2944,-3.3373,-3.3992,-3.5321,-3.6982,-3.7386,-3.8287,-3.9385,-3.9551,-3.9932,-4.0329,0.0,0.0,0.0,0.0,0.0,0.0,0.0,0.0,0.0,0.0,0.0,0.0,0.0,0.0,0.0,0.0,0.0,0.0,0.0,0.0,-2.9949,-3.1281,-3.2165,-3.2961,-3.3686,-3.5029,-3.5416,-3.4731,-3.6365,-3.7167,-3.7182,-3.7482,-3.7662,-3.7736,-3.8377,-3.7325,-3.5107,-3.5209,-3.4237,-3.2711,-3.3398,-3.2869,-3.1703,0.0,0.0,0.0,0.0,0.0,0.0,0.0,0.0,0.0,0.0,0.0,0.0,-2.6892,-2.708,-2.7386,0.0,0.0,0.0,0.0,0.0,0.0,0.0,0.0,0.0,0.0,0.0,0.0,0.0,0.0,0.0,0.0,0.0,0.0,0.0,0.0,0.0,0.0,0.0,0.0,0.0,0.0,0.0,0.0,0.0,0.0,0.0,0.0,0.0,0.0,-3.0855,-3.1072,-3.119,-3.1308,-3.1423,-3.1559,-3.1651,-3.18,-3.1948,-3.2196,-3.2371,-3.2573,-3.2639,-3.2755,-3.2923,-3.382,-3.5076,-3.6381,-3.662,-3.7554,-3.8723,-3.8635,-3.8924,-3.9265,0.0,0.0,0.0,0.0,0.0,0.0,0.0,0.0,0.0,0.0,0.0,0.0,0.0,0.0,0.0,0.0,0.0,0.0,0.0,0.0,-2.8688,-3.1666,-3.1685,-3.2377,-3.3953,-3.5522,-3.5304,-3.3363,-3.4843,-3.5976,-3.6794,-3.7509,-3.7905,-3.795,0.0,-3.7458,-3.5203,-3.4321,-3.302,-3.1608,-3.228,-3.2046,-3.1274,-3.1363,0.0,0.0,0.0,0.0,0.0,0.0,0.0,0.0,0.0,0.0,0.0,-2.6691,-2.7147,-2.7857,0.0,0.0,0.0,0.0,0.0,0.0,0.0,0.0,0.0,0.0,0.0,0.0,0.0,0.0,0.0,0.0,0.0,0.0,0.0,0.0,0.0,0.0,0.0,0.0,0.0,0.0,0.0,0.0,0.0,0.0,0.0,0.0,0.0,0.0,-3.0609,-3.0814,-3.1151,-3.1151,-3.1235,0.0,-3.1376,-3.1363,-3.1411,-3.186,-3.2214,-3.2489,-3.2674,-3.2773,-3.2826,-3.3716,-3.4551,-3.5357,-3.6141,-3.6984,-3.7756,-3.7649,-3.7667,-3.7739,0.0,0.0,0.0,0.0,0.0,0.0,0.0,0.0,0.0,0.0,0.0,0.0,0.0,0.0,0.0,0.0,0.0,0.0,0.0,0.0,-2.8733,-3.0208,-3.3203,-3.523,-3.6219,-3.6648,-3.6378,-3.5385,-3.4794,-3.4662,0.0,0.0,0.0,-3.5269,0.0,-3.4571,-3.1719,-3.0835,-3.0229,-2.9846,-3.0019,-2.9896,-2.9666,-3.0187,-2.9929,0.0,0.0,0.0,0.0,0.0,0.0,0.0,0.0,-2.6691,-2.664,-2.664,-2.6707,0.0,0.0,0.0,0.0,0.0,0.0,0.0,0.0,0.0,0.0,0.0,0.0,0.0,0.0,0.0,0.0,0.0,0.0,0.0,0.0,0.0,0.0,0.0,0.0,0.0,0.0,0.0,0.0,0.0,0.0,0.0,0.0,0.0,0.0,-3.0103,-3.0401,-3.0568,-3.0651,-3.0871,-3.0729,0.0,-3.0366,-3.0211,-2.9936,-3.1248,-3.2001,-3.2284,-3.2473,-3.2557,-3.2574,-3.295,-3.3616,-3.4413,-3.4592,-3.5574,-3.6878,-3.6844,-3.6791,-3.6827,0.0,0.0,0.0,0.0,0.0,0.0,0.0,0.0,0.0,0.0,0.0,0.0,0.0,0.0,0.0,0.0,0.0,0.0,0.0,0.0,0.0,0.0,-3.3592,-3.5497,-3.6378,-3.6082,-3.5625,-3.4899,0.0,0.0,0.0,0.0,0.0,-3.5307,0.0,-3.3692,-3.0999,-2.9849,-2.9093,-2.8681,-2.8646,-2.8779,-2.8941,-2.8918,-2.8662,-2.8325,-2.8253,0.0,0.0,0.0,0.0,0.0,0.0,0.0,-2.6554,-2.6554,-2.6554,-2.6705,0.0,0.0,0.0,0.0,0.0,0.0,0.0,0.0,0.0,0.0,0.0,0.0,0.0,0.0,0.0,0.0,0.0,0.0,0.0,0.0,0.0,0.0,0.0,0.0,0.0,0.0,0.0,0.0,0.0,0.0,0.0,-2.9297,-2.9221,-2.9007,-2.914,-2.9321,-2.9483,-2.9619,-2.9594,-2.9307,-2.9437,-2.957,-2.9828,-3.0887,-3.1445,-3.1551,-3.2178,-3.2439,-3.2473,-3.2707,-3.3268,-3.3995,-3.4064,-3.4863,-3.5969,-3.6327,-3.6185,-3.5883,0.0,0.0,0.0,0.0,0.0,0.0,0.0,0.0,0.0,0.0,0.0,0.0,0.0,0.0,0.0,0.0,0.0,0.0,0.0,0.0,0.0,0.0,-3.3489,-3.4739,-3.5525,-3.4975,-3.4253,0.0,0.0,0.0,0.0,0.0,0.0,-3.5828,0.0,-3.3134,-3.0779,-2.916,-2.8032,-2.7352,-2.7165,-2.745,-2.795,-2.7257,-2.7023,-2.7023,-2.6987,-2.6721,-2.6488,-2.7111,0.0,0.0,0.0,0.0,-2.6284,-2.6284,-2.62,-2.6233,0.0,0.0,0.0,0.0,0.0,0.0,0.0,0.0,0.0,0.0,0.0,0.0,0.0,0.0,0.0,0.0,0.0,0.0,0.0,0.0,0.0,0.0,0.0,0.0,0.0,0.0,0.0,0.0,0.0,0.0,-2.8624,-2.8576,-2.8382,-2.7859,-2.7867,-2.8003,-2.8295,-2.8334,-2.8384,-2.8457,-2.8589,-2.9039,-2.9816,-3.0506,-3.0872,-3.1028,-3.1935,-3.2319,-3.2388,-3.2767,-3.3237,-3.3699,-3.3959,-3.4438,-3.5062,-3.5669,-3.5456,-3.4977,0.0,0.0,0.0,0.0,0.0,0.0,0.0,0.0,0.0,0.0,0.0,0.0,0.0,0.0,0.0,0.0,0.0,0.0,0.0,0.0,0.0,0.0,-3.3048,-3.4264,-3.441,-3.4415,-3.376,0.0,0.0,0.0,0.0,0.0,0.0,-3.3984,0.0,0.0,-2.8321,-2.603,-2.5002,-2.4818,-2.4101,-2.4255,-2.4877,-2.4662,-2.4629,-2.4726,-2.4629,-2.5012,-2.5564,-2.5665,-2.6067,0.0,0.0,0.0,-2.5363,-2.5363,-2.493,0.0,0.0,0.0,0.0,0.0,0.0,0.0,0.0,0.0,0.0,0.0,0.0,0.0,0.0,0.0,0.0,0.0,0.0,0.0,0.0,0.0,0.0,0.0,0.0,0.0,0.0,0.0,0.0,0.0,0.0,0.0,-2.8554,-2.8506,-2.8271,-2.7671,-2.7721,-2.7786,-2.7963,-2.8145,-2.7987,-2.7487,-2.7799,-2.7992,-2.8163,-2.9756,-3.0896,-3.1681,-3.1821,-3.2018,-3.2267,-3.3073,-3.3176,-3.2851,-3.361,-3.4066,-3.4225,-3.4246,-3.4125,-3.416,0.0,0.0,0.0,0.0,0.0,0.0,0.0,0.0,0.0,0.0,0.0,0.0,0.0,0.0,0.0,0.0,0.0,0.0,0.0,0.0,0.0,-3.0642,-3.2067,-3.3088,-3.3594,-3.2832,0.0,0.0,0.0,0.0,0.0,-3.3136,-3.4109,0.0,0.0,0.0,0.0,0.0,0.0,-2.4842,-2.3591,0.0,0.0,-2.4414,-2.458,-2.5263,-2.4365,-2.4298,-2.4679,-2.4679,-2.5163,-2.5697,-2.5297,0.0,0.0,0.0,-2.4298,0.0,0.0,0.0,0.0,0.0,0.0,0.0,0.0,0.0,0.0,0.0,0.0,0.0,0.0,0.0,0.0,0.0,0.0,0.0,0.0,0.0,0.0,0.0,0.0,0.0,0.0,0.0,0.0,0.0,0.0,-2.8738,-2.7817,-2.7769,-2.7301,-2.6334,-2.6326,-2.646,-2.6617,-2.6678,-2.6721,-2.6684,-2.6847,-2.719,-2.7734,-2.8938,-3.0074,-3.1031,-3.1573,-3.1893,-3.209,-3.2652,-3.2738,-3.2592,-3.3029,-3.3204,-3.3344,-3.411,-3.3829,-3.3229,0.0,0.0,0.0,0.0,0.0,0.0,0.0,0.0,0.0,0.0,0.0,0.0,0.0,0.0,0.0,0.0,0.0,0.0,0.0,0.0,0.0,-3.0052,-3.0817,-3.1491,-3.2168,0.0,0.0,0.0,0.0,0.0,-3.1993,-3.2562,-3.4158,0.0,-3.3912,0.0,0.0,0.0,0.0,0.0,0.0,0.0,0.0,0.0,-2.5357,-2.5986,-2.4746,-2.4315,-2.4314,-2.3932,-2.4281,-2.4797,-2.4264,-2.4282,0.0,0.0,0.0,0.0,0.0,0.0,0.0,0.0,0.0,0.0,0.0,0.0,0.0,0.0,0.0,0.0,0.0,0.0,0.0,0.0,0.0,0.0,0.0,0.0,0.0,0.0,0.0,0.0,0.0,0.0,0.0,0.0,0.0,-2.7913,-2.6873,-2.6809,-2.6338,-2.5249,-2.5201,-2.5333,-2.5524,-2.5578,-2.5766,-2.6132,-2.6349,-2.6823,-2.7554,-2.8364,-2.9205,-3.0057,-3.1219,-3.1783,-3.1948,-3.2406,-3.2546,-3.2491,-3.2769,-3.2767,-3.2765,-3.4006,-3.36,-3.2581,0.0,0.0,0.0,0.0,0.0,0.0,0.0,0.0,0.0,0.0,0.0,0.0,-2.083,-2.1006,-2.1135,-2.1183,0.0,0.0,0.0,0.0,0.0,-2.8495,-2.9168,0.0,-2.9582,0.0,0.0,0.0,0.0,0.0,-3.1993,-3.2027,-3.3539,-3.6135,-3.4676,-3.1633,-2.7604,0.0,0.0,0.0,0.0,0.0,0.0,0.0,0.0,0.0,0.0,0.0,-2.4829,-2.3421,-2.3437,-2.405,-2.4017,-2.3553,-2.3007,0.0,0.0,0.0,0.0,0.0,0.0,0.0,0.0,0.0,0.0,0.0,0.0,0.0,0.0,0.0,0.0,0.0,0.0,0.0,0.0,0.0,0.0,0.0,0.0,0.0,0.0,0.0,0.0,0.0,0.0,0.0,0.0,-2.6529,-2.5811,-2.5764,-2.556,-2.5037,-2.5005,-2.5123,-2.5333,-2.5486,-2.5712,-2.5934,-2.6702,-2.7139,-2.7334,-2.816,-2.8661,-2.8982,-3.0755,-3.1671,-3.1963,-3.2802,-3.2878,-3.251,-3.3318,-3.3228,-3.2679,-3.3336,-3.3073,-3.2476,0.0,0.0,0.0,0.0,0.0,0.0,0.0,0.0,0.0,0.0,0.0,0.0,0.0,-2.0925,-2.1006,-2.1135,-2.2394,0.0,0.0,0.0,0.0,-2.8112,-2.8836,-2.9445,-2.9905,0.0,0.0,0.0,0.0,-2.7404,-2.901,-2.9902,-3.0651,-3.1224,-3.2217,-3.1408,-2.9231,-2.6087,0.0,0.0,0.0,0.0,0.0,0.0,0.0,0.0,0.0,0.0,0.0,0.0,0.0,-2.463,-2.41,-2.3439,-2.2632,-2.1661,-2.12,0.0,0.0,0.0,0.0,0.0,0.0,0.0,0.0,0.0,0.0,0.0,0.0,0.0,0.0,0.0,0.0,0.0,0.0,0.0,0.0,0.0,0.0,0.0,0.0,0.0,0.0,0.0,0.0,0.0,0.0,0.0,-2.6361,-2.5951,-2.5389,-2.4782,-2.4751,-2.4846,-2.51,-2.5294,-2.5486,-2.5712,-2.6052,-2.6278,-2.6418,-2.7313,-2.7777,-2.8009,-2.982,-3.0748,-3.1076,-3.1942,-3.2298,-3.2302,-3.2617,-3.2616,-3.2527,-3.3213,-3.2931,-3.2301,0.0,0.0,0.0,0.0,0.0,0.0,0.0,0.0,0.0,0.0,0.0,0.0,0.0,0.0,-2.1788,-2.2176,-2.3425,-2.446,-2.5075,-2.6024,-2.6875,-2.7633,-2.8354,-2.896,0.0,0.0,0.0,0.0,0.0,0.0,0.0,-2.8031,-2.8378,-2.8692,-2.949,-2.9632,0.0,0.0,0.0,-2.5198,0.0,0.0,-2.6951,0.0,0.0,0.0,0.0,0.0,0.0,0.0,0.0,0.0,0.0,-2.321,-2.1749,-2.0492,-2.0295,0.0,0.0,0.0,0.0,0.0,0.0,0.0,0.0,0.0,0.0,0.0,0.0,0.0,0.0,0.0,0.0,0.0,0.0,0.0,0.0,0.0,0.0,0.0,0.0,0.0,0.0,0.0,0.0,0.0,0.0,0.0,-2.6158,-2.5694,-2.518,-2.4523,-2.4549,-2.471,-2.5005,-2.5123,-2.5333,-2.5524,-2.5567,-2.568,-2.5844,-2.6484,-2.6846,-2.7111,-2.8803,-2.9932,-3.0553,-3.1436,-3.1929,-3.2091,-3.2144,-3.2232,-3.2372,-3.3069,-3.277,-3.2141,0.0,0.0,0.0,0.0,0.0,0.0,0.0,0.0,0.0,-2.0642,0.0,0.0,0.0,0.0,0.0,-2.4365,-2.5008,-2.5492,-2.568,-2.5717,-2.608,-2.6946,0.0,0.0,0.0,0.0,0.0,0.0,0.0,0.0,0.0,0.0,-2.7038,0.0,-2.6787,-2.625,-2.6944,0.0,-2.6454,-2.5946,0.0,-2.6737,-2.7225,0.0,0.0,0.0,-3.092,-3.0342,0.0,-2.8379,0.0,0.0,0.0,0.0,0.0,0.0,0.0,0.0,0.0,0.0,0.0,0.0,0.0,0.0,0.0,0.0,0.0,0.0,0.0,0.0,0.0,0.0,0.0,0.0,0.0,0.0,0.0,0.0,0.0,0.0,0.0,0.0,0.0,0.0,0.0,0.0,0.0,-2.5713,-2.5058,-2.4998,-2.478,-2.4333,-2.4467,-2.471,-2.4966,-2.5005,-2.5123,-2.5378,-2.5394,-2.5492,-2.5701,-2.5701,-2.5881,-2.6319,-2.7823,-2.9198,-3.0478,-3.1416,-3.1819,-3.1894,-3.2037,-3.2073,-3.2177,-3.2815,-3.257,-3.1962,0.0,0.0,0.0,0.0,0.0,0.0,0.0,0.0,-2.1171,0.0,0.0,0.0,-2.2864,-2.3449,-2.4334,-2.56,-2.5509,-2.5603,-2.6117,-2.5744,-2.5815,-2.6469,-2.717,0.0,0.0,0.0,0.0,0.0,0.0,0.0,0.0,0.0,0.0,0.0,-2.4781,-2.406,-2.3733,-2.3243,0.0,0.0,-2.4181,-2.5475,0.0,0.0,0.0,0.0,0.0,-3.0803,-3.0614,0.0,-2.9923,-2.797,0.0,0.0,0.0,0.0,0.0,0.0,-1.9541,0.0,0.0,0.0,0.0,0.0,0.0,0.0,0.0,0.0,0.0,0.0,0.0,0.0,0.0,0.0,0.0,0.0,0.0,0.0,0.0,0.0,0.0,0.0,0.0,0.0,0.0,0.0,-2.6184,-2.5697,-2.5058,-2.4615,-2.4349,-2.4208,-2.44,-2.4605,-2.471,-2.4886,-2.5045,-2.5185,-2.5278,-2.5394,-2.5492,-2.5584,-2.6043,-2.6846,-2.7959,-2.902,-3.0027,-3.1045,-3.1579,-3.1819,-3.1873,-3.1965,-3.2107,-3.2191,-3.2085,-3.1893,0.0,0.0,0.0,0.0,0.0,0.0,0.0,0.0,-2.2809,0.0,0.0,0.0,-2.4918,-2.592,-2.6936,-2.789,-2.737,-2.707,-2.7157,-2.631,-2.5798,-2.587,-2.6558,-2.716,0.0,0.0,0.0,0.0,0.0,0.0,0.0,0.0,0.0,0.0,0.0,0.0,0.0,0.0,0.0,0.0,-2.4103,0.0,0.0,-2.9065,-3.01,0.0,0.0,0.0,-3.1868,-3.2627,-3.1297,0.0,0.0,0.0,0.0,0.0,0.0,0.0,0.0,0.0,0.0,0.0,0.0,0.0,0.0,-1.9636,0.0,0.0,0.0,0.0,0.0,0.0,0.0,0.0,0.0,0.0,0.0,0.0,0.0,0.0,0.0,0.0,0.0,0.0,0.0,-2.6153,-2.5986,-2.5606,-2.4881,-2.4405,-2.4124,-2.4124,-2.4317,-2.4482,-2.4589,-2.4766,-2.491,-2.5091,-2.5185,-2.5262,-2.5432,-2.5792,-2.6318,-2.7005,-2.8256,-2.9131,-2.9794,-3.0774,-3.1351,-3.1688,-3.1726,-3.1819,-3.1965,-3.1893,-3.1839,-3.1765,0.0,0.0,0.0,0.0,0.0,0.0,0.0,0.0,0.0,0.0,-2.5792,-2.6561,-2.8168,-2.9296,-3.0115,-3.0513,-2.9767,-2.9003,-2.8375,-2.7019,-2.5991,-2.5288,-2.5895,-2.6262,-2.6302,0.0,0.0,0.0,0.0,0.0,0.0,0.0,0.0,0.0,0.0,0.0,0.0,0.0,0.0,-2.2356,-2.4836,-2.6558,0.0,0.0,-3.1454,0.0,-3.3285,-3.3315,-3.283,-3.3462,-3.187,0.0,0.0,0.0,0.0,0.0,-2.0831,0.0,0.0,0.0,0.0,0.0,0.0,0.0,-1.9876,-1.9798,-1.9957,0.0,0.0,0.0,0.0,0.0,0.0,0.0,0.0,0.0,0.0,0.0,0.0,0.0,0.0,0.0,0.0,0.0,-2.6062,-2.5773,-2.5621,-2.5243,-2.4552,-2.4172,-2.4024,-2.4024,-2.4234,-2.4385,-2.4589,-2.4589,-2.4791,-2.5107,-2.5107,-2.5217,-2.5522,-2.6165,-2.667,-2.7095,-2.8631,-2.9426,-2.9759,-3.0627,-3.119,-3.1517,-3.1559,-3.1671,-3.1763,-3.18,-3.1709,-3.1596,-2.5285,0.0,0.0,0.0,0.0,0.0,0.0,0.0,0.0,0.0,-2.6896,-2.8264,-3.076,-3.0276,-3.0214,-3.144,-2.9939,-2.8699,-2.8052,-2.6783,-2.5774,-2.5076,-2.571,-2.6116,-2.6238,-2.6739,0.0,0.0,0.0,0.0,0.0,0.0,0.0,0.0,0.0,0.0,0.0,0.0,0.0,-2.1292,-2.2444,0.0,-2.9102,-2.9026,-3.0416,-3.2478,-3.2883,-3.3219,-3.3342,0.0,-3.1004,-2.9147,0.0,0.0,0.0,0.0,0.0,0.0,0.0,0.0,0.0,0.0,0.0,0.0,-1.9701,-1.9449,-1.9672,0.0,0.0,0.0,0.0,0.0,0.0,0.0,0.0,0.0,0.0,0.0,0.0,0.0,0.0,0.0,0.0,0.0,-2.541,-2.4307,-2.4086,-2.4026,-2.3949,-2.3958,-2.4024,-2.4166,-2.4374,-2.4523,-2.4589,-2.4726,-2.4846,-2.5005,-2.5005,-2.5386,-2.6038,-2.6254,-2.7106,-2.8426,-2.8952,-2.956,-3.0286,-3.0723,-3.1095,-3.1351,-3.1462,-3.1555,-3.1593,-3.1634,-3.1596,-3.15,-2.554,0.0,0.0,0.0,0.0,0.0,0.0,0.0,0.0,0.0,0.0,0.0,-3.1554,-3.1716,-3.1856,-3.232,-3.1138,-2.9953,-2.903,-2.7693,-2.6493,-2.5535,-2.5487,-2.5527,-2.5608,-2.5941,0.0,0.0,0.0,0.0,0.0,0.0,0.0,0.0,0.0,0.0,0.0,0.0,-2.0099,-2.1508,-2.2957,0.0,-2.9323,-2.9672,-3.1101,-3.2978,-3.3115,-3.3115,-3.286,-3.115,-3.0032,0.0,0.0,-2.6805,-2.6388,0.0,-2.4274,-2.4376,0.0,0.0,0.0,-2.3167,0.0,0.0,0.0,-2.0256,0.0,0.0,0.0,0.0,0.0,0.0,0.0,0.0,0.0,0.0,0.0,0.0,0.0,0.0,0.0,0.0,0.0,0.0,-2.4623,-2.3842,-2.3739,-2.3739,-2.3797,-2.3982,-2.4277,-2.4713,-2.491,-2.5233,-2.5659,-2.5759,-2.59,-2.604,-2.6091,-2.6306,-2.6713,-2.724,-2.7953,-2.8848,-2.9401,-2.9971,-3.0568,-3.0733,-3.0935,-3.1157,-3.1312,-3.1462,-3.1517,-3.1538,-3.1462,-3.1346,-2.5585,0.0,0.0,0.0,0.0,0.0,0.0,0.0,0.0,0.0,0.0,0.0,0.0,0.0,0.0,0.0,0.0,-3.1846,0.0,0.0,0.0,-2.6572,-2.5778,-2.5377,-2.5361,-2.5234,-2.5148,0.0,0.0,0.0,0.0,0.0,0.0,0.0,0.0,0.0,0.0,0.0,0.0,-2.3038,0.0,-2.6435,-2.8489,-3.0022,-3.1492,-3.274,-3.3149,-3.2771,-3.1819,-2.9925,0.0,-2.8815,-2.7445,-2.7095,0.0,0.0,0.0,0.0,0.0,0.0,0.0,0.0,0.0,-2.3934,0.0,0.0,0.0,0.0,0.0,0.0,0.0,0.0,0.0,0.0,0.0,0.0,0.0,0.0,0.0,0.0,0.0,0.0,0.0,0.0,-2.3867,-2.4143,-2.3812,-2.3809,-2.4245,-2.4341,-2.4729,-2.5402,-2.5605,-2.5982,-2.6645,-2.6792,-2.6954,-2.7056,-2.7153,-2.7243,-2.7429,-2.8057,-2.8581,-2.9043,-2.9711,-3.0227,-3.0651,-3.0692,-3.0814,-3.0975,-3.1196,-3.1329,-3.1385,-3.1423,-3.1346,-3.1168,-2.5495,-2.5196,0.0,0.0,0.0,0.0,0.0,0.0,0.0,0.0,0.0,0.0,0.0,0.0,0.0,0.0,0.0,0.0,-3.3253,0.0,0.0,0.0,-2.7306,-2.6643,-2.6612,-2.6141,-2.5598,0.0,0.0,0.0,0.0,0.0,0.0,0.0,-2.1965,0.0,0.0,0.0,-2.3437,0.0,-2.6056,-2.5708,0.0,-2.7683,-2.9327,-3.0701,-3.1985,-3.1672,-3.0513,0.0,-2.8846,-2.8012,0.0,-2.6687,0.0,0.0,0.0,0.0,0.0,0.0,0.0,0.0,-2.5408,0.0,0.0,0.0,0.0,0.0,0.0,0.0,0.0,0.0,0.0,0.0,0.0,0.0,0.0,0.0,0.0,0.0,0.0,0.0,0.0,0.0,-2.3634,-2.5455,-2.3917,-2.3776,-2.5802,-2.5389,-2.5461,-2.6257,-2.6226,-2.6301,-2.6528,-2.666,-2.6792,-2.6895,-2.704,-2.7502,-2.816,-2.7732,-2.8303,-2.9648,-2.9368,-2.9683,-3.0459,-3.0609,-3.0692,-3.0773,-3.1112,-3.1151,-3.1095,-3.1274,-3.1196,-3.1116,-2.4911,-2.4761,0.0,0.0,0.0,0.0,0.0,0.0,0.0,0.0,0.0,0.0,0.0,0.0,0.0,0.0,0.0,-3.549,0.0,0.0,0.0,0.0,0.0,0.0,-2.6764,-2.6119,-2.5472,-2.4766,-2.4766,0.0,0.0,0.0,0.0,0.0,-2.2588,0.0,-2.5591,0.0,0.0,0.0,0.0,0.0,0.0,-2.8331,-3.0275,-3.0812,-3.0986,-3.0718,-3.0101,0.0,-2.8123,0.0,0.0,0.0,0.0,0.0,0.0,0.0,0.0,0.0,0.0,0.0,0.0,0.0,-2.2394,0.0,-2.1993,0.0,0.0,0.0,0.0,0.0,0.0,0.0,0.0,0.0,0.0,0.0,0.0,0.0,0.0,0.0,0.0,0.0,0.0,0.0,0.0,-2.3269,-2.5273,-2.5312,-2.5737,-2.6826,-2.6995,-2.7318,-2.7829,-2.7936,-2.8056,-2.8178,-2.8373,-2.8621,-2.8876,-2.8838,-2.9189,-2.9777,-2.9675,-2.991,-3.0417,-3.0485,-3.0568,-3.0609,-3.0733,-3.0855,-3.0952,-3.1055,-3.1244,-3.15,-2.4582,0.0,0.0,0.0,0.0,0.0,0.0,0.0,0.0,0.0,0.0,0.0,-3.5861,-3.6645,0.0,0.0,0.0,-3.7415,0.0,0.0,-3.2485,0.0,0.0,0.0,0.0,0.0,-2.5831,-2.4885,0.0,0.0,0.0,0.0,0.0,0.0,0.0,-2.4876,-2.7415,0.0,0.0,-2.643,-2.6182,-2.5724,-2.555,-2.9027,-3.0416,-3.0542,-3.0291,-3.0054,-2.9659,-2.846,-2.7734,0.0,-2.729,0.0,0.0,0.0,0.0,0.0,-2.3431,0.0,0.0,0.0,0.0,0.0,0.0,0.0,0.0,0.0,0.0,0.0,0.0,0.0,0.0,0.0,0.0,0.0,0.0,0.0,0.0,0.0,0.0,0.0,0.0,0.0,0.0,0.0,-2.2449,-2.3051,-2.5334,-2.5542,-2.6273,-2.7825,-2.7844,-2.8263,-2.9292,-2.8982,-2.903,-2.9281,-2.937,-2.9366,-2.935,-2.9428,-2.9604,-2.9853,-2.9762,-2.9966,-3.0375,-3.0375,-3.0359,-3.0443,-3.0443,-3.0568,-3.0692,-3.0831,-3.1083,-3.1482,-2.4847,-2.4762,0.0,0.0,0.0,0.0,0.0,0.0,0.0,0.0,0.0,0.0,0.0,0.0,0.0,0.0,0.0,-4.0108,-3.937,0.0,-3.4442,0.0,0.0,-3.051,0.0,0.0,0.0,0.0,0.0,0.0,0.0,0.0,0.0,0.0,0.0,-2.5363,-2.6673,-2.6009,-2.7394,-2.9959,-2.9264,-2.9785,-3.0749,0.0,-2.8509,-2.9061,-2.988,0.0,0.0,-2.8151,-2.7915,0.0,0.0,0.0,0.0,0.0,0.0,0.0,0.0,0.0,0.0,-2.2998,0.0,0.0,0.0,0.0,-2.1579,0.0,0.0,0.0,0.0,0.0,0.0,-2.2332,0.0,0.0,0.0,0.0,0.0,0.0,0.0,0.0,0.0,0.0,0.0,-2.3616,-2.2682,-2.3518,-2.6948,-2.6657,-2.7319,-2.9472,-2.8753,-2.9061,-3.0525,-2.9401,-2.9122,-2.9777,-2.9328,-2.9229,-2.9457,-2.8766,-2.8989,-2.9941,-2.9316,-2.9499,-3.0189,-3.0189,-3.0189,-3.0231,-3.0359,-3.0316,-3.0274,-3.0568,-3.0626,-3.0659,0.0,0.0,0.0,0.0,0.0,0.0,0.0,-2.7098,0.0,0.0,0.0,0.0,0.0,0.0,-4.0285,0.0,0.0,-4.0555,-3.8954,-3.7353,0.0,0.0,0.0,-3.2237,0.0,0.0,0.0,0.0,0.0,0.0,0.0,0.0,0.0,0.0,0.0,-2.503,0.0,0.0,0.0,0.0,0.0,-2.89,-3.0401,0.0,0.0,-2.8889,-2.8823,-2.8495,0.0,-2.7415,-2.6882,-2.6404,-2.6259,-2.5765,-2.5144,-2.4663,-2.4368,0.0,0.0,0.0,-2.4129,-2.2279,0.0,0.0,0.0,0.0,0.0,0.0,0.0,0.0,0.0,0.0,-2.3805,-2.359,-2.1759,0.0,0.0,0.0,0.0,0.0,0.0,0.0,0.0,0.0,0.0,-2.2335,-2.1812,-2.2626,0.0,-2.6016,-2.6842,-2.809,-2.8288,-2.8757,-2.9467,-2.9013,-2.8998,-2.9344,-2.9294,-2.9321,-2.9502,-2.9335,-2.95,-2.993,-2.9702,-2.9735,-2.9989,-2.9957,-3.0,-3.006,-3.0044,-3.0087,-3.0231,-3.0417,-3.0714,-3.1073,-2.6382,0.0,0.0,0.0,0.0,0.0,0.0,0.0,0.0,0.0,-3.3819,0.0,-3.8705,0.0,-4.0228,0.0,-4.1423,-4.0607,-3.8836,-3.8085,0.0,-3.6538,-3.4983,0.0,0.0,0.0,0.0,0.0,0.0,-2.6272,0.0,0.0,0.0,0.0,0.0,0.0,0.0,0.0,-2.715,0.0,0.0,-2.8774,0.0,0.0,-2.8982,-2.8826,0.0,-2.8028,-2.761,-2.7279,-2.6611,-2.6006,-2.6063,-2.5679,-2.5091,-2.4596,-2.4246,-2.3891,-2.3072,-2.3475,0.0,-2.2121,-2.2324,0.0,-2.1322,0.0,0.0,0.0,0.0,0.0,0.0,0.0,0.0,-2.4254,-2.2185,-2.0298,0.0,-1.85,0.0,0.0,0.0,0.0,0.0,0.0,-2.0066,-2.1726,-2.166,-2.2391,0.0,0.0,-2.6534,-2.7813,-2.7982,-2.8558,-2.9498,-2.9028,-2.8951,-2.9375,-2.9248,-2.9305,-2.9412,-2.9502,-2.9637,-2.9786,-2.9786,-2.9786,-2.9726,-2.971,-2.9738,-2.9814,-2.981,-2.9913,-3.0033,-3.0205,-3.0527,-3.0893,0.0,0.0,0.0,0.0,-2.7033,0.0,0.0,0.0,-3.1384,0.0,-3.4228,-3.6061,-3.8766,-3.9085,-3.9844,-4.168,-4.1271,0.0,-3.9253,-3.8534,0.0,0.0,-3.5907,-3.523,-3.4583,0.0,0.0,0.0,0.0,0.0,0.0,0.0,0.0,0.0,-2.4348,0.0,-2.5654,-2.6444,-2.7646,-2.9028,-2.9028,-2.9501,-3.0054,-2.9218,-2.8842,-2.8794,-2.8763,-2.8249,-2.755,-2.7519,-2.7022,-2.628,-2.55,-2.5733,-2.6026,-2.4702,-2.4764,-2.4979,-2.3702,-2.3348,-2.3179,-2.2501,0.0,0.0,0.0,0.0,-2.3363,0.0,0.0,0.0,0.0,0.0,0.0,-2.4334,-2.2859,-2.0873,-1.8326,0.0,0.0,0.0,0.0,0.0,0.0,-2.024,-2.0458,-2.1842,-2.211,0.0,0.0,0.0,-2.6373,-2.8356,-2.7814,-2.8432,-3.0432,-2.937,-2.9122,-2.9762,-2.9313,-2.9167,-2.9305,-2.9305,-2.9366,-2.9473,-2.9518,-2.9518,-2.9518,-2.9473,-2.9473,-2.9518,-2.9694,-2.9738,-2.9697,-2.9902,-3.006,-3.0146,-2.6734,-2.7688,-2.8624,0.0,-2.785,-2.7646,0.0,0.0,0.0,0.0,-3.606,-3.7654,-3.933,-4.0218,-4.0451,-3.9978,-3.9933,0.0,0.0,0.0,0.0,-3.7984,-3.6861,-3.6153,-3.5984,-3.4121,0.0,-3.1366,0.0,0.0,-2.6811,0.0,0.0,0.0,0.0,0.0,-2.4193,-2.4879,-2.6338,-2.8196,-2.8196,-2.8667,0.0,0.0,-2.8842,-2.8732,-2.8186,-2.7426,-2.6655,-2.6174,-2.5524,-2.4837,-2.461,-2.4702,-2.4779,-2.441,-2.4425,-2.4487,-2.4148,-2.404,-2.3887,-2.3209,-2.304,-2.2902,0.0,0.0,0.0,0.0,0.0,0.0,0.0,0.0,0.0,0.0,0.0,0.0,0.0,0.0,0.0,-1.9696,0.0,0.0,-1.9561,-2.0228,-2.0797,-2.1107,-2.1705,0.0,0.0,0.0,0.0,-2.6277,-2.7025,-2.7814,-2.8592,-2.8748,-2.8967,-2.9265,-2.917,-2.9121,-2.9167,-2.9259,-2.9305,-2.935,-2.9473,-2.9518,-2.9473,-2.9412,-2.9412,-2.9518,-2.9441,-2.9441,-2.9441,-2.9814,-2.993,-2.9897,-2.7272,0.0,0.0,-3.0228,0.0,0.0,-3.108,0.0,0.0,-3.5416,-3.6637,0.0,-3.8364,-3.9237,-3.9451,-3.8705,-3.8727,0.0,0.0,0.0,0.0,-3.7631,-3.7184,-3.6799,-3.6507,-3.506,0.0,-3.1951,0.0,0.0,-2.601,0.0,0.0,0.0,0.0,-2.3088,0.0,-2.4947,-2.6275,-2.7504,-2.7758,0.0,0.0,-2.8967,-2.8873,-2.8717,-2.7937,-2.7117,-2.6287,-2.5651,-2.4914,-2.4302,-2.4302,-2.4302,-2.4302,-2.4302,-2.4302,-2.4302,-2.4302,-2.4302,-2.4287,-2.421,-2.4179,-2.4164,-2.4087,-2.4671,-2.5333,0.0,0.0,0.0,0.0,0.0,0.0,0.0,0.0,0.0,0.0,0.0,0.0,0.0,0.0,0.0,-1.955,-2.0349,-2.0797,-2.0458,0.0,0.0,0.0,0.0,0.0,-2.4898,-2.6271,-2.7071,-2.7237,-2.8295,-2.8686,-2.845,-2.8841,-2.8825,-2.8496,-2.8903,-2.8963,-2.8724,-2.9057,-2.9245,-2.9321,-2.9152,-2.9213,-2.9321,-2.9259,-2.9213,-2.9259,-2.9457,-2.9531,-2.947,0.0,0.0,0.0,0.0,0.0,0.0,0.0,-3.3772,0.0,-3.5928,0.0,-3.6914,-3.7096,-3.7597,-3.7916,-3.784,0.0,-3.7603,-3.7128,-3.7617,-3.7579,-3.6538,-3.7061,-3.7092,-3.6507,-3.5645,0.0,0.0,0.0,0.0,0.0,0.0,0.0,0.0,0.0,0.0,0.0,-2.545,-2.6483,0.0,-2.7507,-2.8275,-2.9075,-2.8967,-2.892,-2.8795,-2.7937,-2.7087,-2.6317,-2.5549,-2.4856,-2.4302,-2.4302,-2.4302,-2.4302,-2.4302,-2.4364,-2.4441,-2.4441,-2.4502,-2.4718,-2.5318,-2.5456,-2.5626,-2.6241,-2.6441,-2.6518,-2.6518,-2.6595,-2.6826,0.0,0.0,0.0,0.0,0.0,0.0,0.0,0.0,0.0,0.0,0.0,0.0,0.0,-2.0691,0.0,0.0,0.0,0.0,0.0,0.0,0.0,-2.4055,-2.5638,0.0,-2.6425,0.0,-2.8389,-2.7612,-2.8404,-2.8326,-2.7548,-2.8233,-2.8217,-2.7729,-2.8295,-2.8654,-2.8903,-2.8779,-2.8888,-2.9075,-2.9045,-2.9045,-2.9029,-2.8982,-2.8982,-2.8982,0.0,0.0,0.0,0.0,0.0,-3.3706,-3.56,-3.534,-3.5415,-3.6691,-3.7486,-3.7979,-3.7964,-3.8233,-3.8146,-3.7594,-3.7548,0.0,0.0,0.0,0.0,-3.6507,-3.6599,-3.6615,-3.6492,-3.4706,-3.326,0.0,0.0,0.0,0.0,0.0,0.0,0.0,0.0,0.0,-2.3372,-2.3727,0.0,-2.6585,-2.6814,-2.77,-2.8967,-2.9029,-2.8951,-2.8732,-2.7983,-2.7176,-2.6344,-2.5592,-2.4856,-2.4302,-2.4302,-2.4302,-2.4302,-2.4302,-2.4702,-2.5133,-2.5133,-2.5564,-2.6057,-2.618,-2.6195,-2.6226,-2.6318,-2.6795,-2.7211,-2.7211,-2.7657,-2.8088,-2.8211,0.0,0.0,0.0,0.0,0.0,0.0,0.0,0.0,0.0,0.0,0.0,0.0,0.0,0.0,0.0,0.0,0.0,0.0,0.0,0.0,0.0,0.0,0.0,0.0,0.0,-2.8436,-2.7673,-2.7964,-2.7606,-2.6712,-2.6956,-2.6941,-2.6756,-2.6927,-2.7346,-2.7936,-2.7997,-2.8372,-2.892,-2.8873,-2.8779,-2.8668,-2.8589,-2.8429,-2.8365,0.0,0.0,0.0,0.0,0.0,0.0,0.0,-3.6153,0.0,-3.7113,-3.6899,-3.6654,-3.6796,-3.6875,-3.6799,-3.6476,-3.6138,-3.5799,-3.546,-3.5445,-3.5599,-3.5953,-3.5968,0.0,-3.5968,-3.4645,-3.3275,-3.1874,0.0,0.0,0.0,0.0,0.0,0.0,0.0,-2.2363,0.0,0.0,0.0,-2.6088,-2.6445,-2.7545,-2.8982,-2.8527,-2.8575,-2.8717,-2.7501,-2.682,-2.6388,-2.5577,-2.4856,-2.4302,-2.4302,-2.4302,-2.4302,-2.4302,-2.4533,-2.4795,-2.4795,-2.5302,-2.5918,-2.6287,-2.6657,-2.6995,-2.7334,-2.7673,-2.7919,-2.7919,-2.8181,-2.8288,-2.795,-2.7042,0.0,0.0,0.0,0.0,0.0,0.0,0.0,0.0,0.0,0.0,0.0,0.0,0.0,0.0,0.0,0.0,0.0,0.0,0.0,0.0,0.0,0.0,0.0,0.0,0.0,-2.7039,-2.7501,-2.7083,-2.5898,-2.6313,-2.6326,-2.5985,-2.6344,-2.6729,-2.7114,-2.7098,-2.7502,-2.8109,-2.7999,-2.8121,-2.8381,-2.825,-2.8152,-2.8088,0.0,-3.2613,0.0,0.0,-3.4214,0.0,-3.6307,-3.6492,-3.6738,-3.7415,-3.6305,-3.5554,-3.563,-3.563,-3.5569,-3.5431,-3.4924,-3.4629,-3.4491,-3.4475,-3.4722,-3.5245,-3.5276,-3.5276,-3.5276,-3.4599,-3.3306,0.0,0.0,0.0,0.0,0.0,0.0,0.0,0.0,0.0,0.0,0.0,-2.5358,-2.5882,-2.6168,-2.7188,-2.8479,-2.7748,-2.7873,-2.8232,-2.6958,-2.6388,-2.6143,-2.5487,-2.4856,-2.4302,-2.4302,-2.421,-2.4087,-2.4087,-2.4194,-2.4302,-2.4302,-2.4902,-2.5672,-2.6241,-2.6888,-2.7503,-2.7873,-2.8196,-2.8365,-2.8227,-2.8196,-2.798,-2.7303,-2.6703,0.0,0.0,0.0,0.0,0.0,0.0,0.0,0.0,0.0,0.0,0.0,0.0,0.0,0.0,0.0,0.0,0.0,0.0,0.0,0.0,0.0,-2.5924,-2.5433,0.0,-2.7875,0.0,-2.7257,-2.6793,-2.5333,-2.5903,-2.5885,-2.5462,-2.5962,-2.6286,-2.6514,-2.6702,-2.7011,-2.7365,-2.7393,-2.7679,-2.8137,-2.8005,-2.7955,-2.7955,0.0,0.0,0.0,0.0,0.0,0.0,0.0,-3.6492,-3.6738,-3.7415,-3.6861,-3.6322,-3.6182,-3.6104,-3.5859,-3.5248,-3.5141,-3.4971,-3.4506,-3.4475,-3.4506,-3.4568,-3.4568,-3.4568,-3.4568,-3.3875,-3.2798,0.0,0.0,0.0,0.0,0.0,0.0,0.0,0.0,0.0,0.0,-2.461,-2.5133,-2.6286,-2.5799,-2.606,-2.6756,-2.6754,-2.6769,-2.6696,-2.6572,-2.605,-2.5395,-2.5333,-2.4856,-2.4302,-2.4302,-2.3887,-2.3394,-2.3394,-2.3825,-2.4302,-2.4302,-2.5287,-2.6303,-2.6364,-2.6888,-2.7242,-2.6657,-2.7488,-2.8227,-2.7626,-2.7488,-2.7288,-2.6611,-2.6395,-2.5874,0.0,0.0,0.0,0.0,0.0,0.0,0.0,0.0,0.0,0.0,0.0,0.0,0.0,0.0,0.0,0.0,0.0,0.0,-2.2666,0.0,-2.6047,-2.6092,-2.7641,0.0,-2.7303,-2.7489,-2.6793,-2.5318,-2.5379,-2.5379,-2.5318,-2.5323,-2.5663,-2.6321,-2.7546,-2.773,-2.7286,-2.7719,-2.7959,-2.8005,-2.7855,-2.784,-2.779,0.0,0.0,0.0,0.0,0.0,0.0,0.0,-3.6492,-3.6599,-3.6861,-3.6661,-3.6492,-3.6414,-3.5906,-3.5492,-3.5217,-3.4408,-3.3785,-3.3584,-3.3245,-3.32,-3.3612,-3.3628,-3.3628,-3.3628,-3.3395,-3.264,0.0,0.0,0.0,0.0,0.0,0.0,0.0,0.0,-2.5041,-2.5949,-2.5672,-2.5901,-2.6421,-2.5666,-2.5892,-2.6582,-2.615,-2.62,-2.6435,-2.6032,-2.5636,-2.5256,-2.4856,-2.4533,-2.4302,-2.4302,-2.4117,-2.3825,-2.3409,-2.3486,-2.3609,-2.3209,-2.4102,-2.5149,-2.5078,-2.5935,-2.6703,-2.6395,-2.678,-2.7119,-2.6917,-2.7149,-2.718,-2.6472,-2.6334,-2.612,0.0,0.0,0.0,0.0,0.0,0.0,0.0,0.0,0.0,0.0,0.0,0.0,0.0,0.0,0.0,0.0,0.0,0.0,-2.1558,0.0,-2.5531,-2.4787,-2.661,-2.704,-2.5985,-2.6857,-2.6474,-2.5116,-2.5543,-2.5771,-2.5816,-2.5636,-2.5788,-2.6214,-2.6516,-2.6803,-2.7098,-2.7146,-2.7444,-2.7855,-2.774,-2.764,-2.7539,-3.4291,0.0,-3.4752,0.0,-3.5784,-3.5938,-3.6415,-3.6492,-3.6492,-3.6492,-3.6492,-3.6492,-3.6414,-3.5676,-3.5202,-3.5141,-3.3817,-3.2983,-3.2983,-3.2361,-3.2209,-3.268,-3.2752,0.0,-3.2752,-3.2909,-3.2492,-3.1527,-3.0499,0.0,0.0,0.0,0.0,0.0,-2.5933,-2.6318,-2.6965,-2.6765,-2.6594,-2.6406,-2.5638,-2.5574,-2.5948,-2.5339,-2.5447,-2.5787,-2.5339,-2.5068,-2.4948,-2.4471,-2.4302,-2.4302,-2.4302,-2.4164,-2.3917,-2.344,-2.3302,-2.3194,-2.2717,-2.3286,-2.3969,-2.3943,-2.4722,-2.541,-2.5195,-2.5626,-2.6178,-2.6452,-2.684,-2.6918,-2.6209,-2.5872,-2.5628,-2.5415,0.0,0.0,0.0,0.0,0.0,0.0,0.0,-2.1765,-2.1084,0.0,0.0,0.0,0.0,0.0,0.0,0.0,0.0,0.0,0.0,0.0,0.0,-2.5969,-2.6364,-2.5198,-2.6456,-2.6289,-2.4955,-2.5697,-2.6153,-2.6459,-2.6455,-2.6425,-2.6351,-2.6251,-2.6444,-2.6892,-2.6797,-2.7171,-2.769,-2.7524,-2.7437,-2.735,-3.4198,-3.4475,-3.4906,-3.6245,-3.6476,-3.6476,-3.6492,-3.6492,-3.6492,-3.6492,-3.6492,-3.6414,-3.6211,-3.5599,-3.5141,-3.5033,-3.3757,-3.2983,-3.2983,-3.2361,-3.1996,0.0,0.0,-3.2206,-3.2206,-3.2358,-3.2398,-3.2382,0.0,0.0,-2.935,0.0,-2.6734,-2.7365,-2.7365,-2.775,-2.8334,-2.7673,-2.6995,-2.6318,-2.561,-2.4918,-2.4333,-2.4317,-2.4317,-2.4333,-2.4317,-2.4317,-2.4317,-2.4302,-2.4302,-2.4302,-2.4302,-2.3856,-2.3302,-2.3302,-2.3302,-2.3302,-2.3286,-2.3302,-2.3302,-2.3302,-2.3317,-2.3163,-2.2486,-2.3887,-2.5518,-2.6344,-2.6499,-2.6298,-2.5644,-2.4879,-2.4035,-2.3173,0.0,0.0,0.0,0.0,0.0,0.0,-1.9827,-1.9465,-1.8807,0.0,0.0,0.0,0.0,0.0,0.0,0.0,0.0,-2.355,-2.4896,0.0,-2.4672,-2.6086,-2.6417,-2.5708,-2.6559,-2.6213,-2.4851,-2.5622,-2.635,-2.7048,-2.7701,-2.7512,-2.6841,-2.734,-2.7171,-2.6647,-2.7018,-2.7284,-2.7401,-2.7233,-2.7181,-2.7181,-3.3752,-3.4506,-3.5291,-3.5722,-3.5414,-3.543,-3.6353,-3.6107,-3.5968,-3.643,-3.6492,-3.6492,-3.6414,-3.609,-3.5875,0.0,-3.4773,-3.3955,0.0,-3.2809,-3.2178,-3.1856,-3.1883,-3.1996,-3.2038,-3.2206,-3.2231,-3.2231,0.0,0.0,0.0,-2.8288,-2.7873,-2.8088,-2.8088,-2.8211,-2.8319,-2.7165,-2.6565,-2.6287,-2.5203,-2.4642,-2.4441,-2.4467,-2.4482,-2.4457,-2.4457,-2.4359,-2.4302,-2.4302,-2.4302,-2.4302,-2.4302,-2.4148,-2.3887,-2.3425,-2.3302,-2.3194,-2.2732,-2.2609,-2.2609,-2.2516,-2.2555,-2.2548,-2.2332,-2.3242,-2.4008,-2.3721,-2.4729,-2.5164,-2.3538,-2.3774,-2.3937,-2.3143,-2.3021,0.0,0.0,0.0,0.0,0.0,0.0,-1.928,0.0,-1.9624,0.0,0.0,0.0,0.0,0.0,0.0,0.0,0.0,-2.4581,0.0,-2.3881,-2.5116,-2.5159,-2.4089,-2.5759,-2.609,-2.5254,-2.5959,-2.6378,-2.6632,-2.7305,-2.7485,-2.7325,-2.7333,-2.7268,-2.7155,-2.7071,-2.7107,-2.7107,-2.6907,-2.6907,-2.687,-3.3444,-3.4106,-3.4783,-3.506,-3.4752,-3.4752,-3.5599,-3.5599,-3.563,-3.6061,-3.6322,-3.6492,-3.6492,-3.6414,0.0,-3.6211,-3.517,-3.4394,-3.412,-3.3427,-3.2885,-3.2553,-3.2397,-3.2361,-3.2475,0.0,0.0,-3.2302,-3.142,-3.0474,-2.9396,-2.8719,-2.8411,-2.8411,-2.8411,-2.8411,-2.835,-2.7473,-2.7026,-2.6747,-2.5679,-2.5144,-2.4922,-2.4657,-2.4539,-2.4498,-2.4457,-2.4359,-2.4302,-2.4302,-2.4317,-2.4359,-2.4317,-2.4317,-2.4266,-2.3794,-2.3686,-2.3533,-2.2855,-2.2486,-2.2224,-2.1888,-2.1664,-2.1593,-2.1855,-2.2353,-2.2654,-2.2408,-2.3582,-2.422,-2.2839,-2.3099,-2.3432,-2.3303,-2.2762,-2.2254,-2.1838,0.0,0.0,0.0,0.0,0.0,0.0,-2.0393,0.0,0.0,0.0,0.0,0.0,0.0,0.0,-2.3415,-2.4745,0.0,-2.3807,-2.4547,-2.4336,-2.3171,-2.4574,-2.529,-2.5426,-2.5875,-2.6336,-2.6778,-2.7259,-2.7488,-2.7408,-2.6952,-2.6813,-2.6864,-2.6572,-2.6454,-2.6497,-2.6596,-2.6645,-2.6606,-3.3275,-3.3398,0.0,0.0,-3.4398,0.0,-3.446,-3.5014,-3.543,-3.5476,-3.6076,-3.6492,-3.6492,-3.6492,-3.6414,-3.6274,0.0,0.0,0.0,-3.4334,-3.3985,-3.3819,-3.3391,-3.3184,-3.32,-3.2696,-3.2398,-3.2398,-3.1074,-3.0104,-2.9458,-2.875,-2.8411,-2.8411,-2.8411,-2.8411,-2.8411,-2.835,-2.806,-2.7534,-2.676,-2.615,-2.5597,-2.4787,-2.4498,-2.4498,-2.4359,-2.4302,-2.4302,-2.4302,-2.4359,-2.4457,-2.4359,-2.44,-2.4457,-2.4359,-2.4302,-2.4148,-2.3486,-2.2809,-2.2132,-2.1491,-2.0813,-2.0474,-2.1106,-2.1296,-2.1585,-2.2267,-2.2979,-2.342,-2.324,-2.2748,-2.2631,-2.3507,-2.2345,-2.1436,-2.1711,0.0,0.0,0.0,0.0,0.0,0.0,-2.1006,-2.1994,0.0,0.0,0.0,0.0,0.0,-2.3807,-2.4567,-2.5224,-2.5161,-2.4292,-2.4384,-2.3966,-2.3033,-2.323,-2.4043,-2.5396,-2.555,-2.6251,-2.7327,-2.7458,-2.7423,-2.7137,-2.6367,-2.6067,-2.6017,-2.5749,-2.5632,-2.5704,-2.6242,-2.6365,-2.6286,0.0,0.0,-3.3629,-3.4352,-3.3598,-3.3244,-3.4306,-3.4614,-3.4906,-3.5414,-3.6076,-3.6492,-3.6492,-3.6492,-3.6492,-3.6414,-3.5983,-3.5507,-3.5095,-3.4881,-3.4577,-3.4105,-3.3493,-3.3257,-3.3341,-3.2736,-3.2398,-3.2398,-3.1074,-3.0351,-3.0166,-2.8965,-2.8411,-2.8411,-2.8411,-2.8411,-2.8365,-2.7984,-2.7721,-2.7503,-2.6392,-2.5842,-2.5639,-2.4854,-2.4523,-2.4498,-2.4359,-2.4302,-2.4302,-2.4302,-2.4317,-2.4359,-2.4302,-2.4317,-2.4359,-2.4302,-2.4302,-2.4148,-2.3486,-2.2809,-2.2132,-2.1491,-2.0813,-2.035,-2.0505,-2.0936,-2.1353,-2.1574,-2.2509,-2.3148,-2.2446,-2.2589,-2.2717,-2.2305,-2.1922,-2.1538,-2.1114,-2.0496,0.0,0.0,-1.9579,-2.0035,-2.1126,-2.1868,-2.217,0.0,0.0,0.0,0.0,-2.2687,-2.3585,-2.4354,-2.5006,-2.4988,-2.4153,-2.4092,-2.4206,-2.448,-2.3985,-2.43,-2.5269,-2.5673,-2.6035,-2.6358,-2.6924,-2.7041,-2.687,-2.6672,-2.6533,-2.6347,-2.6203,-2.6058,-2.6019,-2.6054,-2.6111,-2.6111,-3.3333,-3.3191,-3.3187,-3.3589,-3.2962,-3.2659,-3.3398,-3.3783,-3.4229,-3.4922,-3.5337,-3.5691,-3.5999,-3.603,-3.603,-3.603,-3.623,-3.612,-3.5691,-3.5676,-3.5508,-3.5126,-3.4252,-3.3848,-3.3891,-3.2906,-3.2244,-3.1921,-3.092,-3.0258,-2.9935,-2.8889,-2.8411,-2.8411,-2.8411,-2.8411,-2.8381,-2.8138,-2.8078,-2.8077,-2.7121,-2.6741,-2.6604,-2.5488,-2.503,-2.4874,-2.4467,-2.4302,-2.4302,-2.4359,-2.44,-2.44,-2.44,-2.44,-2.4359,-2.4317,-2.4087,-2.3702,-2.3025,-2.2332,-2.167,-2.1029,-2.0582,-2.0381,-2.0705,-2.106,-2.1399,-2.167,-2.2332,-2.2786,-2.2489,-2.2574,-2.2589,-2.2315,-2.1879,-2.1424,-2.0985,-2.0328,0.0,-2.0255,-2.0475,-2.0983,-2.2039,-2.267,-2.2852,-2.2494,0.0,0.0,-2.2342,-2.3143,-2.3864,-2.4277,-2.4678,-2.4584,-2.4092,-2.3647,-2.363,-2.4025,-2.4014,-2.4414,-2.5236,-2.585,-2.627,-2.6564,-2.6931,-2.6989,-2.6765,-2.6393,-2.6159,-2.5988,-2.5845,-2.57,-2.5621,-2.5849,-2.5893,-2.5893,-3.3037,-3.2851,-3.271,-3.2912,-3.2647,-3.2484,-3.2592,-3.3029,-3.3614,-3.4229,-3.4398,-3.4691,-3.5276,-3.5414,-3.5476,-3.5476,-3.6107,-3.6414,-3.6274,-3.6414,-3.6414,-3.6274,-3.5123,-3.4475,-3.4475,-3.3106,-3.2105,-3.1536,-3.0797,-3.0135,-2.955,-2.8765,-2.8411,-2.8411,-2.8411,-2.8396,-2.8444,-2.8589,-2.8684,-2.8779,-2.8168,-2.7931,-2.7729,-2.6358,-2.5683,-2.5385,-2.4713,-2.4394,-2.4317,-2.4457,-2.4498,-2.4498,-2.4498,-2.4498,-2.4498,-2.44,-2.3788,-2.3048,-2.2478,-2.1753,-2.1029,-2.0443,-2.0381,-2.0613,-2.1183,-2.1399,-2.1624,-2.2301,-2.244,-2.2578,-2.3051,-2.2836,-2.26,-2.2672,-2.1949,-2.1289,-2.1002,0.0,-2.0334,-2.0894,-2.1497,-2.2069,-2.2664,-2.3236,-2.3595,-2.3595,-2.3538,-2.3509,0.0,-2.3911,-2.413,-2.413,-2.4233,-2.4187,-2.3946,-2.3254,-2.2989,-2.3192,-2.3868,-2.4666,-2.556,-2.607,-2.6615,-2.7181,-2.713,-2.6974,-2.6683,-2.6,-2.563,-2.5488,-2.5384,-2.5226,-2.5177,-2.5697,-2.5784,-2.5674,-3.3795,-3.3341,-3.3201,-3.4338,-3.3463,-3.2779,-3.3408,-3.3465,-3.3444,-3.3552,-3.4091,-3.4506,-3.4614,-3.5137,-3.5476,-3.5476,-3.6107,-3.6492,-3.6492,-3.6492,-3.6492,-3.6429,-3.5199,-3.4475,-3.4475,-3.3106,-3.2336,-3.2228,-3.1028,-3.0366,-3.0243,-2.8996,-2.8411,-2.8411,-2.8411,-2.8444,-2.8589,-2.8684,-2.8811,-2.881,-2.8273,-2.7915,-2.7625,-2.6829,-2.6044,-2.5318,-2.5296,-2.4894,-2.4343,-2.4508,-2.4564,-2.4498,-2.4564,-2.4564,-2.4498,-2.4549,-2.3608,-2.2508,-2.2399,-2.1528,-2.06,-2.0404,-2.0791,-2.1239,-2.1291,-2.1716,-2.2332,-2.3009,-2.3148,-2.3268,-2.3751,-2.388,-2.3509,-2.2313,-2.2002,-2.1485,-2.0345,0.0,-2.0685,-2.073,-2.1824,-2.2604,-2.2761,-2.3263,-2.3595,-2.3595,-2.3538,-2.3466,-2.3319,-2.3423,-2.3482,-2.3482,-2.3983,-2.3981,-2.3243,-2.3036,-2.3424,-2.4496,-2.4646,-2.5427,-2.6762,-2.6695,-2.6849,-2.7003,-2.6884,-2.6765,-2.6563,-2.6409,-2.6222,-2.5969,-2.5861,-2.5807,-2.5767,-2.5742,-2.5729,-2.5729,-3.3612,-3.3316,-3.3192,-3.3818,-3.3302,-3.2882,-3.3208,-3.3113,-3.311,-3.3496,-3.3439,-3.349,-3.386,-3.4168,-3.4368,-3.4368,-3.4999,-3.5568,-3.5922,-3.6292,-3.6322,-3.5968,-3.4999,-3.4121,-3.3367,-3.2721,-3.2398,-3.2398,-3.1074,-3.0428,-3.0397,-2.9042,-2.8411,-2.8411,-2.8493,-2.8541,-2.8621,-2.8763,-2.8873,-2.8873,-2.8728,-2.8495,-2.8263,-2.7574,-2.7032,-2.6497,-2.5854,-2.5388,-2.5004,-2.477,-2.4645,-2.4564,-2.4686,-2.4645,-2.4564,-2.4589,-2.3849,-2.2824,-2.2065,-2.1678,-2.1456,-2.1523,-2.1703,-2.2013,-2.2437,-2.2686,-2.3064,-2.3798,-2.3896,-2.3907,-2.4063,-2.4208,-2.3871,-2.2781,-2.2629,0.0,0.0,-2.1416,-2.166,-2.1985,-2.2496,-2.3009,-2.3398,-2.3601,-2.3696,-2.3696,-2.361,-2.3523,-2.348,-2.3451,-2.3407,-2.348,-2.3585,-2.3479,-2.3082,-2.2992,-2.3178,-2.3771,-2.4167,-2.4694,-2.5453,-2.5988,-2.6345,-2.6477,-2.6686,-2.6712,-2.651,-2.651,-2.6365,-2.6111,-2.6111,-2.6002,-2.5893,-2.5839,-2.5784,-2.5674,-3.3309,-3.3203,-3.3197,-3.3354,-3.3152,-3.3013,-3.317,-3.2866,-3.2889,-3.3432,-3.2903,-3.2709,-3.3177,-3.3378,-3.347,-3.3398,-3.406,-3.4691,-3.5214,-3.5737,-3.5861,-3.5507,-3.4675,-3.366,-3.2428,-3.2398,-3.2398,-3.2398,-3.1213,-3.0566,-3.0397,-2.9196,-2.8599,-2.8444,-2.8589,-2.8684,-2.8668,-2.8826,-2.8904,-2.8967,-2.9075,-2.9013,-2.8841,-2.8323,-2.7934,-2.7578,-2.6576,-2.5983,-2.5639,-2.523,-2.4907,-2.4686,-2.4806,-2.4766,-2.4645,-2.4645,-2.4231,-2.3452,-2.2077,-2.2055,-2.2437,-2.249,-2.2561,-2.2771,-2.3452,-2.3568,-2.3727,-2.4389,-2.44,-2.4276,-2.4208,-2.4276,-2.4087,-2.3234,0.0,0.0,0.0,-2.2325,-2.2537,-2.3025,-2.3158,-2.3462,-2.3979,-2.394,-2.3839,-2.3882,-2.3739,-2.3653,-2.3653,-2.3581,-2.3538,-2.3595,-2.3334,-2.3171,-2.3171,-2.3037,-2.302,-2.312,-2.3659,-2.4025,-2.4261,-2.5174,-2.5697,-2.5923,-2.6381,-2.6567,-2.651,-2.651,-2.6365,-2.6165,-2.6179,-2.6111,-2.5948,-2.5853,-2.5729,-2.5674,-3.3309,-3.3309,-3.3498,-3.4115,-3.3612,-3.33,-3.3913,-3.3396,-3.2912,-3.2975,-3.2874,-3.2788,-3.2655,-3.3284,-3.3599,-3.3398,-3.406,-3.4491,-3.4552,-3.4599,-3.4876,-3.546,-3.4198,-3.3136,-3.2413,-3.2398,-3.2398,-3.2398,-3.1674,-3.1012,-3.0412,-2.9774,-2.9177,-2.8589,-2.8747,-2.8811,-2.8873,-2.8904,-2.8967,-2.9075,-2.9075,-2.9013,-2.8904,-2.8857,-2.8357,-2.7703,-2.7715,-2.6854,-2.5701,-2.5863,-2.5422,-2.4822,-2.4926,-2.4902,-2.4782,-2.4782,-2.4655,-2.4255,-2.2926,-2.2723,-2.2807,-2.2623,-2.307,-2.3515,-2.36,-2.394,-2.4297,-2.4441,-2.44,-2.4276,-2.4208,-2.4333,-2.4184,-2.3274,0.0,0.0,-2.2294,-2.262,-2.2975,-2.3021,-2.3527,-2.3979,-2.4166,-2.4082,-2.4024,-2.4166,-2.394,-2.3797,-2.3797,-2.3653,-2.3595,-2.3595,-2.3538,-2.3422,-2.3275,-2.3157,-2.3329,-2.3818,-2.3876,-2.4163,-2.4659,-2.4829,-2.5177,-2.5625,-2.5785,-2.6133,-2.651,-2.651,-2.6418,-2.6286,-2.6002,-2.6002,-2.6071,-2.5647,-2.5592,-2.5674,-3.3309,-3.3309,-3.3388,-3.364,-3.3414,-3.3282,-3.3587,-3.3269,-3.3005,-3.3005,-3.2951,-3.2843,-3.2773,-3.3022,-3.3161,-3.3106,-3.3355,-3.3624,-3.3986,-3.3558,-3.3547,-3.4168,-3.329,-3.2659,-3.2398,-3.2453,-3.2523,-3.2523,-3.1935,-3.1523,-3.1259,-3.0208,-2.9588,-2.9323,-2.8982,-2.8873,-2.8904,-2.8967,-2.9075,-2.9075,-2.9075,-2.9075,-2.9013,-2.9013,-2.8809,-2.8542,-2.8147,-2.7406,-2.6524,-2.6125,-2.551,-2.4926,-2.4966,-2.4982,-2.4926,-2.4926,-2.4886,-2.4721,-2.4163,-2.3944,-2.3905,-2.3944,-2.4068,-2.4175,-2.4311,-2.4418,-2.4508,-2.4564,-2.4482,-2.4441,-2.4441,-2.4498,-2.4364,-2.402,0.0,-2.3937,-2.3554,-2.3697,-2.381,-2.381,-2.4024,-2.4193,-2.4223,-2.4166,-2.4124,-2.4082,-2.3882,-2.3839,-2.3925,-2.3797,-2.3696,-2.3595,-2.3566,-2.3538,-2.3407,-2.3216,-2.3214,-2.3402,-2.3296,-2.3395,-2.3609,-2.4438,-2.4699,-2.4626,-2.5879,-2.6263,-2.5992,-2.6352,-2.6365,-2.6136,-2.5739,-2.5544,-2.5385,-2.5345,-2.5278,-2.532,-3.28,-3.2923,-3.3065,-3.3013,-3.3203,-3.3361,-3.3309,-3.3203,-3.315,-3.315,-3.3112,-3.3005,-3.2951,-3.2951,-3.2951,-3.2897,-3.2897,-3.3045,-3.3441,-3.2912,-3.2724,-3.3059,-3.2644,-3.2398,-3.2453,-3.2523,-3.2648,-3.2703,-3.2344,-3.2039,-3.1789,-3.0701,-3.0029,-2.9859,-2.9234,-2.8967,-2.8967,-2.9075,-2.9075,-2.9075,-2.9075,-2.9075,-2.9075,-2.9075,-2.9075,-2.9012,-2.8584,-2.7857,-2.7051,-2.6767,-2.6056,-2.5298,-2.5298,-2.514,-2.4942,-2.4966,-2.4966,-2.4942,-2.4862,-2.4742,-2.462,-2.4782,-2.4661,-2.4564,-2.4822,-2.4726,-2.4589,-2.4645,-2.4605,-2.4564,-2.4589,-2.4564,-2.4523,-2.4498,-2.4498,-2.4457,-2.4317,-2.4302,-2.4302,-2.4302,-2.4302,-2.4276,-2.425,-2.425,-2.4208,-2.4109,-2.3925,-2.3882,-2.394,-2.3797,-2.3696,-2.3653,-2.3595,-2.3566,-2.3538,-2.3334,-2.3171,-2.3082,-2.3023,-2.308,-2.3267,-2.4138,-2.4578,-2.4559,-2.5843,-2.624,-2.5934,-2.6299,-2.6212,-2.5852,-2.5678,-2.5412,-2.5085,-2.5033,-2.498,-2.4984,-3.1598,-3.2125,-3.2538,-3.2437,-3.3026,-3.345,-3.3309,-3.3309,-3.3309,-3.3309,-3.3309,-3.3256,-3.3112,-3.3096,-3.3058,-3.2897,-3.2897,-3.2897,-3.2897,-3.2703,-3.2508,-3.2382,-3.2398,-3.2453,-3.2594,-3.2594,-3.2703,-3.2897,-3.2897,-3.2538,-3.1821,-3.1252,-3.0663,-2.9972,-2.936,-2.9075,-2.9075,-2.9075,-2.9075,-2.9075,-2.9075,-2.9075,-2.9075,-2.9075,-2.9075,-2.9075,-2.9075,-2.8252,-2.7209,-2.7873,-2.7162,-2.6009,-2.6009,-2.5453,-2.4822,-2.4966,-2.4902,-2.4822,-2.4966,-2.4886,-2.4782,-2.4782,-2.4686,-2.467,-2.4926,-2.4791,-2.463,-2.4782,-2.4686,-2.4589,-2.4589,-2.4589,-2.4589,-2.4498,-2.4498,-2.4457,-2.4317,-2.4302,-2.4302,-2.4302,-2.4302,-2.4302,-2.4302,-2.4302,-2.4302,-2.4302,-2.4109,-2.394,-2.3797,-2.3696,-2.3653,-2.3797,-2.3653,-2.3595,-2.3595,-2.3538,-2.3393,-2.3082,-2.3246,-2.3524,-2.3891,-2.4046,-2.4732,-2.5763,-2.5654,-2.5949,-2.6496,-2.6312,-2.5969,-2.5469,-2.5923,-2.5728,-2.5123,-2.4755,-2.4702,-2.4702,-3.2238,-3.2444,-3.2588,-3.2538,-3.3077,-3.3503,-3.345,-3.3346,-3.3309,-3.3309,-3.3309,-3.3293,-3.3256,-3.3256,-3.3203,-3.3203,-3.3203,-3.315,-3.3058,-3.2413,-3.2027,-3.1958,-3.2315,-3.2648,-3.2843,-3.2881,-3.2989,-3.3058,-3.315,-3.3093,-3.2856,-3.1675,-3.1047,-3.0811,-2.9612,-2.9075,-2.9075,-2.9075,-2.9075,-2.9075,-2.9075,-2.9075,-2.9121,-2.9213,-2.9167,-2.9121,-2.9213,-2.8643,-2.7762,-2.7494,-2.713,-2.6688,-2.6167,-2.5559,-2.4989,-2.5005,-2.5045,-2.5139,-2.5068,-2.5005,-2.4926,-2.4926,-2.4862,-2.4766,-2.4862,-2.4846,-2.4846,-2.4822,-2.4782,-2.4726,-2.4726,-2.4686,-2.4589,-2.4498,-2.4498,-2.4457,-2.4317,-2.4302,-2.4302,-2.4302,-2.4302,-2.4276,-2.425,-2.425,-2.425,-2.425,-2.4234,-2.4135,-2.394,-2.3882,-2.3839,-2.3797,-2.3653,-2.3595,-2.3595,-2.3538,-2.3466,-2.3378,-2.3319,-2.3289,-2.3343,-2.3888,-2.4002,-2.38,-2.4615,-2.5041,-2.5178,-2.5431,-2.5464,-2.5331,-2.4869,-2.4374,-2.3858,-2.361,-2.3509,-2.3515,-3.2386,-3.261,-3.2753,-3.2688,-3.323,-3.3607,-3.3503,-3.345,-3.3346,-3.3309,-3.3309,-3.3309,-3.3309,-3.3309,-3.3309,-3.3309,-3.3309,-3.313,-3.2688,-3.216,-3.1857,-3.1857,-3.2211,-3.2391,-3.2513,-3.2619,-3.2814,-3.3203,-3.3256,-3.3309,-3.3277,-3.2155,-3.1492,-3.116,-3.0038,-2.939,-2.9075,-2.9075,-2.9121,-2.9167,-2.9167,-2.9213,-2.9275,-2.9366,-2.9321,-2.9275,-2.9305,-2.8624,-2.7739,-2.7525,-2.7173,-2.6693,-2.6233,-2.5695,-2.5162,-2.5123,-2.5217,-2.5294,-2.5201,-2.5162,-2.5123,-2.5123,-2.4982,-2.4822,-2.4862,-2.4926,-2.4966,-2.4902,-2.4902,-2.4902,-2.4902,-2.4726,-2.4605,-2.4564,-2.4482,-2.44,-2.4302,-2.4359,-2.4359,-2.4359,-2.4359,-2.4359,-2.4359,-2.4333,-2.4291,-2.425,-2.4234,-2.4193,-2.4082,-2.4024,-2.3982,-2.3882,-2.3797,-2.3696,-2.3595,-2.3566,-2.3538,-2.3509,-2.3422,-2.3422,-2.3582,-2.3948,-2.4036,-2.3856,-2.4418,-2.4653,-2.4603,-2.4804,-2.4767,-2.4526,-2.4247,-2.3809,-2.3291,-2.3049,-2.2902,-2.2908,-3.2166,-3.2625,-3.2951,-3.282,-3.3432,-3.3797,-3.3555,-3.3555,-3.345,-3.3361,-3.3309,-3.3293,-3.3309,-3.3309,-3.3309,-3.3309,-3.3309,-3.2972,-3.2154,-3.2044,-3.2013,-3.2013,-3.1966,-3.2002,-3.2065,-3.2076,-3.2541,-3.3309,-3.3309,-3.3293,-3.333,-3.257,-3.189,-3.1176,-3.0481,-2.9785,-2.9137,-2.9137,-2.9213,-2.9305,-2.9305,-2.9412,-2.9518,-2.9518,-2.9518,-2.9473,-2.9366,-2.8478,-2.7476,-2.7933,-2.7216,-2.6109,-2.6254,-2.5854,-2.5333,-2.5294,-2.5333,-2.5333,-2.5333,-2.5333,-2.5333,-2.5333,-2.5045,-2.4862,-2.5021,-2.5045,-2.5005,-2.5005,-2.5005,-2.5005,-2.4966,-2.4766,-2.4589,-2.4589,-2.4426,-2.4302,-2.4317,-2.4441,-2.4498,-2.4498,-2.4498,-2.4539,-2.4605,-2.4539,-2.4457,-2.4317,-2.425,-2.4208,-2.4208,-2.4082,-2.4024,-2.4024,-2.3982,-2.3839,-2.3595,-2.361,-2.3566,-2.3509,-2.3509,-2.3748,-2.4204,-2.4114,-2.4423,-2.4982,-2.4612,-2.4445,-2.4503,-2.439,-2.39,-2.3348,-2.3915,-2.3759,-2.3158,-2.2818,-2.2622,-2.2572,-3.1832,-3.2141,-3.2417,-3.2919,-3.3482,-3.3899,-3.3797,-3.3694,-3.3607,-3.345,-3.345,-3.3414,-3.3293,-3.3309,-3.3309,-3.3309,-3.3309,-3.323,-3.3019,-3.2514,-3.225,-3.225,-3.1763,-3.1781,-3.2387,-3.2787,-3.3135,-3.345,-3.345,-3.3503,-3.3575,-3.2364,-3.1694,-3.1437,-3.0209,-2.9571,-2.9428,-2.9428,-2.9428,-2.9473,-2.9473,-2.9473,-2.9518,-2.9608,-2.9608,-2.9518,-2.9608,-2.9294,-2.878,-2.8338,-2.691,-2.5441,-2.6078,-2.5894,-2.5355,-2.5333,-2.541,-2.5486,-2.5394,-2.5394,-2.5394,-2.5394,-2.5278,-2.5217,-2.5217,-2.5217,-2.5217,-2.5107,-2.5068,-2.5029,-2.4862,-2.4822,-2.4701,-2.4539,-2.4523,-2.4508,-2.4441,-2.4523,-2.4589,-2.4589,-2.4589,-2.4564,-2.4539,-2.4498,-2.4416,-2.425,-2.4333,-2.4374,-2.4276,-2.4208,-2.4166,-2.4166,-2.394,-2.3839,-2.3739,-2.3581,-2.3538,-2.3566,-2.3407,-2.3393,-2.3496,-2.3362,-2.336,-2.3385,-2.323,-2.3472,-2.3889,-2.3746,-2.3612,-2.3464,-2.3496,-2.3121,-2.2569,-2.2381,-2.2192,-2.2021,-3.2036,-3.2106,-3.2125,-3.2514,-3.3096,-3.3466,-3.3383,-3.3623,-3.3761,-3.3607,-3.3607,-3.3555,-3.3503,-3.3503,-3.3503,-3.3503,-3.3503,-3.336,-3.3026,-3.266,-3.2504,-3.2504,-3.2203,-3.2331,-3.3048,-3.2978,-3.3153,-3.3607,-3.3607,-3.3642,-3.3678,-3.2942,-3.2238,-3.155,-3.083,-3.0142,-2.9518,-2.9518,-2.9518,-2.9608,-2.9608,-2.9653,-2.9697,-2.9786,-2.9742,-2.9697,-2.9697,-2.9383,-2.8742,-2.7732,-2.6686,-2.5837,-2.5963,-2.5837,-2.5621,-2.553,-2.5584,-2.5621,-2.5508,-2.5524,-2.5524,-2.5524,-2.5486,-2.541,-2.5333,-2.524,-2.5185,-2.5107,-2.5068,-2.5045,-2.4926,-2.4822,-2.4782,-2.4661,-2.4605,-2.4589,-2.4564,-2.4645,-2.4686,-2.4686,-2.4686,-2.4686,-2.4661,-2.458,-2.4482,-2.44,-2.44,-2.4359,-2.4302,-2.4276,-2.425,-2.4223,-2.4094,-2.4009,-2.3882,-2.3711,-2.3668,-2.3696,-2.3494,-2.3363,-2.3319,-2.329,-2.3171,-2.2992,-2.2962,-2.3045,-2.3213,-2.3241,-2.3102,-2.2946,-2.2946,-2.2747,-2.237,-2.2184,-2.2044,-2.1944,-3.2171,-3.2004,-3.1913,-3.2026,-3.2545,-3.2886,-3.2708,-3.3304,-3.3705,-3.3569,-3.3681,-3.3761,-3.3694,-3.3694,-3.3694,-3.3694,-3.3694,-3.3454,-3.2928,-3.288,-3.288,-3.288,-3.2768,-3.2976,-3.3553,-3.288,-3.2912,-3.3745,-3.3633,-3.3633,-3.3745,-3.3633,-3.2944,-3.1871,-3.1742,-3.0941,-2.9739,-2.9739,-2.972,-2.9742,-2.9742,-2.9786,-2.9918,-2.9918,-2.9918,-2.9874,-2.9786,-2.9187,-2.8372,-2.721,-2.6808,-2.6685,-2.607,-2.595,-2.5971,-2.5787,-2.5782,-2.5859,-2.5778,-2.5891,-2.594,-2.5826,-2.5794,-2.5724,-2.5404,-2.5278,-2.5185,-2.5146,-2.5084,-2.5045,-2.5005,-2.4902,-2.4822,-2.4822,-2.4726,-2.463,-2.463,-2.4726,-2.4822,-2.4822,-2.4822,-2.4782,-2.4782,-2.4686,-2.463,-2.4589,-2.4467,-2.4359,-2.4359,-2.4317,-2.4276,-2.4208,-2.4276,-2.4193,-2.4024,-2.3882,-2.3839,-2.3839,-2.3625,-2.3466,-2.3319,-2.3422,-2.3305,-2.3082,-2.3082,-2.2933,-2.2754,-2.2828,-2.2706,-2.2477,-2.2569,-2.2509,-2.2417,-2.2184,-2.2091,-2.2077,-3.1303,-3.1434,-3.1569,-3.2174,-3.2354,-3.239,-3.2283,-3.2868,-3.321,-3.2965,-3.3462,-3.3848,-3.3694,-3.3694,-3.3694,-3.3694,-3.3694,-3.3662,-3.3566,-3.355,-3.355,-3.355,-3.3058,-3.2819,-3.2915,-3.2353,-3.2692,-3.3848,-3.3221,-3.3287,-3.4034,-3.3452,-3.3064,-3.287,-3.2239,-3.1496,-3.069,-3.069,-3.038,-2.9874,-2.9874,-2.9858,-2.9918,-2.9918,-2.9918,-2.9918,-2.9874,-2.9302,-2.8555,-2.8394,-2.7927,-2.7381,-2.6812,-2.66,-2.6448,-2.5896,-2.6097,-2.6578,-2.6539,-2.6976,-2.7284,-2.6701,-2.6555,-2.6393,-2.5724,-2.554,-2.5486,-2.5333,-2.5256,-2.5217,-2.5045,-2.4966,-2.4926,-2.4822,-2.4782,-2.4782,-2.4782,-2.4782,-2.4822,-2.4966,-2.4862,-2.4782,-2.4782,-2.4782,-2.4726,-2.4589,-2.4686,-2.4661,-2.4498,-2.4457,-2.4416,-2.4317,-2.425,-2.4208,-2.4166,-2.4024,-2.3982,-2.3982,-2.3839,-2.3668,-2.3466,-2.326,-2.3127,-2.3082,-2.2992,-2.2902,-2.2888,-2.2888,-2.2826,-2.2749,-2.2615,-2.2615,-2.2555,-2.2417,-2.2417,-2.2438,-3.0771,-3.075,-3.0778,-3.1073,-3.1466,-3.1745,-3.1716,-3.2259,-3.2653,-3.2559,-3.3145,-3.36,-3.3551,-3.3907,-3.4101,-3.405,-3.405,-3.4,-3.3949,-3.3899,-3.3899,-3.3899,-3.3338,-3.2967,-3.2967,-3.1932,-3.1851,-3.2837,-3.2918,-3.3161,-3.3534,-3.3615,-3.3242,-3.2465,-3.2158,-3.138,-3.0328,-3.0328,-3.015,-2.9918,-2.9918,-2.9918,-2.9918,-2.9918,-2.9918,-2.9918,-2.9918,-2.9648,-2.9265,-2.8834,-2.8537,-2.8151,-2.7189,-2.7108,-2.7303,-2.6591,-2.6841,-2.7364,-2.7267,-2.7203,-2.7073,-2.6766,-2.6701,-2.6506,-2.5778,-2.6231,-2.6477,-2.5493,-2.5217,-2.525,-2.5592,-2.5314,-2.5132,-2.5527,-2.5258,-2.4966,-2.4942,-2.5021,-2.51,-2.5178,-2.5045,-2.5005,-2.506,-2.4982,-2.4902,-2.4846,-2.4822,-2.4742,-2.4564,-2.4564,-2.4523,-2.4467,-2.4416,-2.439,-2.439,-2.4208,-2.4124,-2.4124,-2.3982,-2.3797,-2.3566,-2.3451,-2.3319,-2.3201,-2.3157,-2.3053,-2.2918,-2.2888,-2.2812,-2.2675,-2.2737,-2.2768,-2.2768,-2.2723,-2.2678,-2.2589]},{"header":{"parameterUnit":"m.s-1","parameterCategory":1,"la1":30.6,"la2":28.766,"lo1":-90.7593,"lo2":-88.6598,"dy":0.0162,"dx":0.0183,"nx":116,"ny":114,"refTime":"2023-08-04T12:00:00:Z","depth":0,"parameterNumber":3,"parameterNumberName":"V-component_of_WINDS"},"data":[0.0,0.0,0.0,0.0,0.0,0.0,0.0,0.0,0.0,0.0,0.0,0.0,0.0,0.0,0.0,0.0,0.0,0.0,0.0,0.0,0.0,0.0,0.0,0.0,0.0,0.0,0.0,0.0,0.0,0.0,0.0,0.0,0.0,0.0,0.0,0.0,0.0,0.0,0.0,0.0,0.0,0.0,0.0,0.0,0.0,0.0,0.0,0.0,0.0,0.0,0.0,0.0,0.0,0.0,0.0,0.0,0.0,0.0,0.0,0.0,0.0,0.0,0.0,0.0,0.0,0.0,0.0,0.0,0.0,0.0,0.0,0.0,0.0,0.0,0.0,0.0,0.0,0.0,0.0,0.0,0.0,0.0,0.0,0.0,0.0,0.0,0.0,0.0,0.0,0.0,0.0,0.0,0.0,0.0,0.0,0.0,0.0,0.0,0.0,0.0,0.0,0.0,0.0,0.0,0.0,0.0,0.0,0.0,0.0,0.0,0.0,0.0,0.0,0.0,0.0,0.0,0.0,0.0,0.0,0.0,0.0,0.0,0.0,0.0,0.0,0.0,0.0,0.0,0.0,0.0,0.0,0.0,0.0,0.0,0.0,0.0,0.0,0.0,0.0,0.0,0.0,0.0,0.0,0.0,0.0,0.0,0.0,0.0,0.0,0.0,0.0,0.0,0.0,0.0,0.0,0.0,0.0,0.0,0.0,0.0,0.0,0.0,0.0,0.0,0.0,0.0,0.0,0.0,0.0,0.0,0.0,0.0,0.0,0.0,0.0,0.0,0.0,0.0,0.0,0.0,0.0,0.0,0.0,0.0,0.0,0.0,0.0,0.0,0.0,0.0,0.0,0.0,0.0,0.0,0.0,0.0,0.0,0.0,0.0,0.0,0.0,0.0,0.0,0.0,0.0,0.0,0.0,0.0,0.0,0.0,0.0,0.0,0.0,0.0,0.0,0.0,0.0,0.0,0.0,0.0,0.0,0.0,0.0,0.0,0.0,0.0,0.0,0.0,0.0,0.0,0.0,0.0,0.0,0.0,0.0,0.0,0.0,0.0,0.0,0.0,0.0,0.0,0.0,0.0,0.0,0.0,0.0,0.0,0.0,0.0,0.0,0.0,0.0,0.0,0.0,0.0,0.0,0.0,0.0,0.0,0.0,0.0,0.0,0.0,0.0,0.0,0.0,0.0,0.0,0.0,0.0,0.0,0.0,0.0,0.0,0.0,0.0,0.0,0.0,0.0,0.0,0.0,0.0,0.0,0.0,0.0,0.0,0.0,0.0,0.0,0.0,0.0,0.0,0.0,0.0,0.0,0.0,0.0,0.0,0.0,0.0,0.0,0.0,0.0,0.0,0.0,0.0,0.0,0.0,0.0,0.0,0.0,0.0,0.0,0.0,0.0,0.0,0.0,0.0,0.0,0.0,0.0,0.0,0.0,0.0,0.0,0.0,0.0,0.0,0.0,0.0,0.0,0.0,0.0,0.0,0.0,0.0,0.0,0.0,0.0,0.0,0.0,0.0,0.0,0.0,0.0,0.0,0.0,0.0,0.0,0.0,0.0,0.0,0.0,0.0,0.0,0.0,0.0,0.0,0.0,0.0,0.0,0.0,0.0,0.0,0.0,0.0,0.0,0.0,0.0,0.0,0.0,0.0,0.0,0.0,0.0,0.0,0.0,0.0,0.0,0.0,0.0,0.0,0.0,0.0,0.0,0.0,0.0,0.0,0.0,0.0,0.0,0.0,0.0,0.0,0.0,0.0,0.0,0.0,0.0,0.0,0.0,0.0,0.0,0.0,0.0,0.0,0.0,0.0,0.0,0.0,0.0,0.0,0.0,0.0,0.0,0.0,0.0,0.0,0.0,0.0,0.0,0.0,0.0,0.0,0.0,0.0,0.0,0.0,0.0,0.0,0.0,0.0,0.0,0.0,0.0,0.0,0.0,0.0,0.0,0.0,0.0,0.0,0.0,0.0,0.0,0.0,0.0,0.0,0.0,0.0,0.0,0.0,0.0,0.0,0.0,0.0,0.0,0.0,0.0,0.0,0.0,0.0,0.0,0.0,0.0,0.0,0.0,0.0,0.0,0.0,0.0,0.0,0.0,0.0,0.0,0.0,0.0,0.0,0.0,0.0,0.0,0.0,0.0,0.0,0.0,0.0,0.0,0.0,0.0,0.0,0.0,0.0,0.0,0.0,0.0,0.0,0.0,0.0,0.0,0.0,0.0,0.0,0.0,0.0,0.0,0.0,0.0,0.0,0.0,0.0,0.0,0.0,0.0,0.0,0.0,0.0,0.0,0.0,0.0,0.0,0.0,0.0,0.0,0.0,0.0,0.0,0.0,0.0,0.0,0.0,0.0,0.0,0.0,0.0,0.0,0.0,0.0,0.0,0.0,0.0,0.0,0.0,0.0,0.0,0.0,0.0,0.0,0.0,0.0,0.0,0.0,0.0,0.0,0.0,0.0,0.0,0.0,0.0,0.0,0.0,0.0,0.0,0.0,0.0,0.0,0.0,0.0,0.0,0.0,0.0,0.0,0.0,0.0,0.0,0.0,0.0,0.0,0.0,0.0,0.0,0.0,0.0,0.0,0.0,0.0,0.0,0.0,0.0,0.0,0.0,0.0,0.0,0.0,0.0,0.0,0.0,0.0,0.0,0.0,0.0,0.0,0.0,0.0,0.0,0.0,0.0,0.0,0.0,0.0,0.0,0.0,0.0,0.0,0.0,0.0,0.0,0.0,0.0,0.0,0.0,0.0,0.0,0.0,0.0,0.0,0.0,0.0,0.0,0.0,0.0,0.0,0.0,0.0,0.0,0.0,0.0,0.0,0.0,0.0,0.0,0.0,0.0,0.0,0.0,0.0,0.0,0.0,0.0,0.0,0.0,0.0,0.0,0.0,0.0,0.0,0.0,0.0,0.0,0.0,0.0,0.0,0.0,0.0,0.0,0.0,0.0,0.0,0.0,0.0,0.0,0.0,0.0,0.0,0.0,0.0,0.0,0.0,0.0,0.0,0.0,0.0,0.0,0.0,0.0,0.0,0.0,0.0,0.0,0.0,0.0,0.0,0.0,0.0,0.0,0.0,0.0,0.0,0.0,0.0,0.0,0.0,0.0,0.0,0.0,0.0,0.0,0.0,0.0,0.0,0.0,0.0,0.0,0.0,0.0,0.0,0.0,0.0,0.0,0.0,0.0,0.0,0.0,0.0,0.0,0.0,0.0,0.0,0.0,0.0,0.0,0.0,0.0,0.0,0.0,0.0,0.0,0.0,0.0,0.0,0.0,0.0,0.0,0.0,0.0,0.0,0.0,0.0,0.0,0.0,0.0,0.0,0.0,0.0,0.0,0.0,0.0,0.0,0.0,0.0,0.0,0.0,0.0,0.0,0.0,0.0,0.0,0.0,0.0,0.0,0.0,0.0,0.0,0.0,0.0,0.0,0.0,0.0,0.0,0.0,0.0,0.0,0.0,0.0,0.0,0.0,0.0,0.0,0.0,0.0,0.0,0.0,0.0,0.0,0.0,0.0,0.0,0.0,0.0,0.0,0.0,0.0,0.0,0.0,0.0,0.0,0.0,0.0,0.0,0.0,0.0,0.0,0.0,0.0,0.0,0.0,0.0,0.0,0.0,0.0,0.0,0.0,0.0,0.0,0.0,0.0,0.0,0.0,0.0,0.0,0.0,0.0,0.0,0.0,0.0,0.0,0.0,0.0,0.0,0.0,0.0,0.0,0.0,0.0,0.0,0.0,0.0,0.0,0.0,0.0,0.0,0.0,0.0,0.0,0.0,0.0,0.0,0.0,0.0,0.0,0.0,0.0,0.0,0.0,0.0,0.0,0.0,0.0,0.0,0.0,0.0,0.0,0.0,0.0,0.0,0.0,0.0,0.0,0.0,0.0,0.0,0.0,0.0,0.0,0.0,0.0,0.0,0.0,0.0,0.0,0.0,0.0,0.0,0.0,0.0,0.0,0.0,0.0,0.0,0.0,0.0,0.0,0.0,0.0,0.0,0.0,0.0,0.0,0.0,0.0,0.0,0.0,0.0,0.0,0.0,0.0,0.0,0.0,0.0,0.0,0.0,0.0,0.0,0.0,0.0,0.0,0.0,0.0,0.0,0.0,0.0,0.0,0.0,0.0,0.0,0.0,0.0,0.0,0.0,0.0,0.0,0.0,0.0,0.0,0.0,0.0,0.0,0.0,0.0,0.0,0.0,0.0,0.0,0.0,0.0,0.0,0.0,0.0,0.0,0.0,0.0,0.0,0.0,0.0,0.0,0.0,0.0,0.0,0.0,0.0,0.0,0.0,0.0,0.0,0.0,0.0,0.0,0.0,0.0,0.0,0.0,0.0,0.0,0.0,0.0,0.0,0.0,0.0,0.0,0.0,0.0,0.0,0.0,0.0,0.0,0.0,0.0,0.0,0.0,0.0,0.0,0.0,0.0,0.0,0.0,0.0,0.0,0.0,0.0,0.0,0.0,0.0,0.0,0.0,0.0,0.0,0.0,0.0,0.0,0.0,0.0,0.0,0.0,0.0,0.0,0.0,0.0,0.0,0.0,0.0,0.0,0.0,0.0,0.0,0.0,0.0,0.0,0.0,0.0,0.0,0.0,0.0,0.0,0.0,0.0,0.0,0.0,0.0,0.0,0.0,0.0,0.0,0.0,0.0,0.0,0.0,0.0,0.0,0.0,0.0,0.0,0.0,0.0,0.0,0.0,0.0,0.0,0.0,0.0,0.0,0.0,0.0,0.0,0.0,0.0,0.0,0.0,0.0,0.0,0.0,0.0,0.0,0.0,0.0,0.0,0.0,0.0,0.0,0.0,0.0,0.0,0.0,0.0,0.0,0.0,0.0,0.0,0.0,0.0,0.0,0.0,0.0,0.0,0.0,0.0,0.0,0.0,0.0,0.0,0.0,0.0,0.0,0.0,0.0,0.0,0.0,0.0,0.0,0.0,0.0,0.0,0.0,0.0,0.0,0.0,0.0,0.0,0.0,0.0,0.0,0.0,0.0,0.0,0.0,0.0,0.0,0.0,0.0,0.0,0.0,0.0,0.0,0.0,0.0,0.0,0.0,0.0,0.0,0.0,0.0,0.0,0.0,0.0,0.0,0.0,0.0,0.0,0.0,0.0,0.0,0.0,0.0,0.0,0.0,0.0,0.0,0.0,0.0,0.0,0.0,0.0,0.0,0.0,0.0,0.0,0.0,0.0,0.0,0.0,0.0,0.0,0.0,0.0,0.0,0.0,0.0,0.0,0.0,0.0,0.0,0.0,0.0,0.0,0.0,0.0,0.0,0.0,0.0,0.0,0.0,0.0,0.0,0.0,0.0,0.0,0.0,0.0,0.0,0.0,0.0,0.0,0.0,0.0,0.0,0.0,0.0,0.0,0.0,0.0,0.0,0.0,0.0,0.0,0.0,0.0,0.0,0.0,0.0,0.0,0.0,0.0,0.0,0.0,0.0,0.0,0.0,0.0,0.0,0.0,0.0,0.0,0.0,0.0,0.0,0.0,0.0,0.0,0.0,0.0,0.0,0.0,0.0,0.0,0.0,0.0,0.0,0.0,0.0,0.0,0.0,0.0,0.0,0.0,0.0,0.0,0.0,0.0,0.0,0.0,0.0,0.0,0.0,0.0,0.0,0.0,0.0,0.0,0.0,0.0,0.0,0.0,0.0,0.0,0.0,0.0,0.0,0.0,0.0,0.0,0.0,0.0,0.0,0.0,0.0,0.0,0.0,0.0,0.0,0.0,0.0,0.0,0.0,0.0,0.0,0.0,0.0,0.0,0.0,0.0,0.0,0.0,0.0,0.0,0.0,0.0,0.0,0.0,0.0,0.0,0.0,0.0,0.0,0.0,0.0,0.0,0.0,0.0,0.0,0.0,0.0,0.0,0.0,0.0,0.0,0.0,0.0,0.0,0.0,0.0,0.0,0.0,0.0,0.0,0.0,0.0,0.0,0.0,0.0,0.0,0.0,0.0,0.0,0.0,0.0,0.0,0.0,0.0,0.0,0.0,0.0,0.0,0.0,0.0,0.0,0.0,0.0,0.0,0.0,0.0,0.0,0.0,0.0,0.0,0.0,0.0,0.0,0.0,0.0,0.0,0.0,-1.1663,0.0,0.0,0.0,0.0,0.0,0.0,0.0,0.0,0.0,0.0,0.0,0.0,0.0,0.0,0.0,0.0,0.0,0.0,0.0,0.0,0.0,0.0,0.0,0.0,0.0,0.0,0.0,0.0,0.0,0.0,0.0,0.0,0.0,0.0,0.0,0.0,0.0,0.0,0.0,0.0,0.0,0.0,0.0,0.0,0.0,0.0,0.0,0.0,0.0,0.0,0.0,0.0,0.0,0.0,0.0,0.0,0.0,0.0,0.0,0.0,0.0,0.0,0.0,0.0,0.0,0.0,0.0,0.0,0.0,0.0,0.0,0.0,0.0,0.0,0.0,0.0,0.0,0.0,0.0,0.0,0.0,0.0,0.0,0.0,0.0,0.0,0.0,0.0,0.0,0.0,0.0,0.0,0.0,0.0,0.0,0.0,0.0,0.0,0.0,0.0,0.0,0.0,0.0,0.0,0.0,0.0,0.0,0.0,0.0,0.0,0.0,0.0,0.0,0.0,0.0,0.0,-1.1468,0.0,0.0,0.0,0.0,0.0,0.0,0.0,0.0,0.0,0.0,0.0,0.0,0.0,0.0,0.0,0.0,0.0,0.0,0.0,0.0,0.0,0.0,0.0,0.0,0.0,0.0,0.0,0.0,0.0,0.0,0.0,0.0,0.0,0.0,0.0,0.0,0.0,0.0,0.0,0.0,0.0,0.0,0.0,0.0,0.0,0.0,0.0,0.0,0.0,0.0,0.0,0.0,0.0,0.0,0.0,0.0,0.0,0.0,0.0,0.0,0.0,0.0,0.0,0.0,0.0,0.0,0.0,0.0,0.0,0.0,0.0,0.0,0.0,0.0,0.0,0.0,0.0,0.0,0.0,0.0,0.0,0.0,0.0,0.0,0.0,0.0,0.0,0.0,0.0,0.0,0.0,0.0,0.0,0.0,0.0,0.0,0.0,0.0,0.0,0.0,0.0,0.0,0.0,0.0,0.0,0.0,0.0,0.0,-0.7446,-0.7877,-0.7754,-0.8229,-0.8818,-0.9639,-1.0444,-1.124,-1.1926,0.0,0.0,0.0,0.0,0.0,0.0,0.0,0.0,0.0,0.0,0.0,0.0,0.0,0.0,0.0,0.0,0.0,0.0,0.0,0.0,0.0,0.0,0.0,0.0,0.0,0.0,0.0,0.0,0.0,0.0,0.0,0.0,0.0,0.0,0.0,0.0,0.0,0.0,0.0,0.0,0.0,0.0,0.0,0.0,0.0,0.0,0.0,0.0,0.0,0.0,0.0,0.0,0.0,0.0,0.0,0.0,0.0,0.0,0.0,0.0,0.0,0.0,0.0,0.0,0.0,0.0,0.0,0.0,0.0,0.0,0.0,0.0,0.0,0.0,0.0,0.0,0.0,0.0,0.0,0.0,0.0,0.0,0.0,0.0,0.0,0.0,0.0,0.0061,-0.0195,0.0,0.0,0.0,0.0,0.0,0.0,0.0,0.0,0.0,0.0,0.0,0.0,0.0,0.0,-0.5447,-0.5833,-0.6026,-0.6005,-0.7006,-0.7409,-0.7372,-0.8061,-0.8611,-0.908,-0.902,0.0,-0.9908,-0.8943,0.0,0.0,0.0,0.0,0.0,0.0,0.0,0.0,0.0,0.0,0.0,0.0,0.0,0.0,0.0,0.0,0.0,0.0,0.0,0.0,0.0,0.0,0.0,0.0,0.0,0.0,0.0,0.0,0.0,0.0,0.0,0.0,0.0,0.0,0.0,0.0,0.0,0.0,0.0,0.0,0.0,0.0,0.0,0.0,0.0,0.0,0.0,0.0,0.0,0.0,0.0,0.0,0.0,0.0,0.0,0.0,0.0,0.0,0.0,0.0,0.0,0.0,0.0,0.0,0.0,0.0,0.0,0.0,0.0,0.0,0.0,0.0,0.0,0.0,0.0,0.0,0.0,0.0,0.0,0.0,0.0,0.0,0.0,0.0,0.0,0.0699,-0.0252,-0.0534,-0.0973,-0.152,0.0,0.0,0.0,0.0,0.0,0.0,0.0,0.0,0.0,-0.4127,-0.4215,-0.4669,-0.5451,-0.5779,-0.5909,-0.5933,-0.6666,-0.6969,-0.6835,-0.7336,-0.7759,-0.8096,-0.815,-0.8284,-0.8484,-0.8221,-0.8141,-0.8307,0.0,0.0,0.0,0.0,-1.0665,-1.0822,0.0,0.0,0.0,0.0,0.0,0.0,0.0,0.0,0.0,0.0,0.0,0.0,0.0,0.0,0.0,0.0,0.0,0.0,0.0,0.0,0.0,0.0,0.0,0.0,0.0,0.0,0.0,0.0,0.0,0.0,0.0,0.0,0.0,0.0,0.0,0.0,0.0,0.0,0.0,0.0,0.0,0.0,0.0,0.0,0.0,0.0,0.0,0.0,0.0,0.0,0.0,0.0,0.0,0.0,0.0,0.0,0.0,0.0,0.0,0.0,0.0,0.0,0.0,0.0,0.0,0.0,0.0,0.0,0.0,0.0,0.0,0.0,0.0,0.0,0.0,0.0,0.0,0.0314,-0.0263,-0.0621,-0.1166,-0.1561,0.0,0.0,0.0,0.0,0.0,0.0,-0.2576,-0.3254,-0.3891,-0.4432,-0.4401,-0.4777,-0.5629,-0.5836,-0.6042,-0.6251,-0.6519,-0.6649,-0.6556,-0.6908,-0.7101,-0.7332,-0.7566,-0.7663,-0.7625,-0.7905,-0.8137,-0.8318,-0.8684,-0.8679,-0.8623,-0.9597,-0.9892,-1.002,0.0,0.0,0.0,0.0,0.0,0.0,0.0,0.0,0.0,0.0,0.0,0.0,0.0,0.0,0.0,0.0,0.0,0.0,0.0,0.0,0.0,0.0,0.0,0.0,0.0,0.0,0.0,0.0,0.0,0.0,0.0,0.0,0.0,0.0,0.0,0.0,0.0,0.0,0.0,0.0,0.0,0.0,0.0,0.0,0.0,0.0,0.0,0.0,0.0,0.0,0.0,0.0,0.0,0.0,0.0,0.0,0.0,0.0,0.0,0.0,0.0,0.0,0.0,0.0,0.0,0.0,0.0,0.0,0.0,0.0,0.0,0.0,0.0,0.0,0.0,0.0,0.0,0.0,0.0,-0.0075,-0.0922,0.0,0.0,0.0,0.0,-0.2253,-0.2698,-0.3063,-0.3204,-0.3892,-0.4438,-0.4822,-0.5417,-0.593,-0.6363,-0.6259,-0.6508,-0.7006,-0.6888,-0.683,-0.6822,-0.7189,-0.7241,-0.7098,-0.7244,-0.7365,-0.7541,-0.764,-0.7728,-0.7711,-0.7765,-0.7982,-0.8316,-0.8586,-0.922,-0.9906,0.0,0.0,0.0,0.0,0.0,0.0,0.0,0.0,0.0,0.0,0.0,0.0,0.0,0.0,0.0,0.0,0.0,0.0,0.0,0.0,0.0,0.0,0.0,0.0,0.0,0.0,0.0,0.0,0.0,0.0,0.0,0.0,0.0,0.0,0.0,0.0,0.0,0.0,0.0,0.0,0.0,0.0,0.0,0.0,0.0,0.0,0.0,0.0,0.0,0.0,0.0,0.0,0.0,0.0,0.0,0.0,0.0,0.0,0.0,0.0,0.0,0.0,0.0,0.0,0.0,0.0,0.0,0.0,0.0,0.0,0.0,0.0,0.0,0.0,0.0,0.0,0.0,0.0,0.0,-0.113,-0.1489,0.0,0.0,-0.2338,-0.2579,-0.2538,-0.3118,-0.3665,-0.3864,-0.4221,-0.4851,-0.5718,-0.6083,-0.6442,-0.68,-0.7085,-0.7191,-0.7129,-0.6986,-0.7027,-0.7039,-0.7189,-0.7192,-0.7059,-0.7201,-0.706,-0.6731,-0.6984,-0.7321,-0.7586,-0.7781,-0.8098,-0.8538,-0.855,-0.9001,-0.9541,0.0,0.0,0.0,0.0,0.0,0.0,0.0,0.0,0.0,0.0,0.0,0.0,0.0,0.0,0.0,0.0,0.0,0.0,0.0,0.0,0.0,0.0,0.0,0.0,0.0,0.0,0.0,0.0,0.0,0.0,0.0,0.0,0.0,0.0,0.0,0.0,0.0,0.0,0.0,0.0,0.0,0.0,0.5208,0.0,0.0,0.0,0.0,0.0,0.0,0.0,0.0,0.0,0.0,0.0,0.0,0.0,0.0,0.0,0.0,0.0,0.0,0.0,0.0,0.0,0.0,0.0,0.0,0.0,0.0,0.0,0.0,0.0,0.0,0.0,0.0,0.0,0.0,0.0,-0.1509,-0.2009,-0.2197,-0.2243,-0.2419,-0.2869,-0.3158,-0.3135,-0.3821,-0.4276,-0.457,-0.4912,-0.5545,-0.6315,-0.6544,-0.6888,-0.7359,-0.7645,-0.7727,-0.7404,-0.7364,-0.7274,-0.7039,-0.7039,-0.697,-0.6846,-0.6852,-0.6714,-0.6362,-0.6545,-0.6779,-0.7076,-0.7602,-0.7878,-0.8106,-0.838,-0.873,-0.9155,0.0,0.0,0.0,0.0,0.0,0.0,0.0,0.0,0.0,0.0,0.0,0.0,0.0,0.0,0.0,0.0,0.0,0.0,0.0,0.0,0.0,0.0,0.0,0.0,0.0,0.0,0.0,0.0,0.0,0.0,0.0,0.0,0.0,0.0,0.0,0.0,0.0,0.0,0.0,0.0,0.0,0.0,0.4572,0.0,0.0,0.0,0.0,0.0,0.0,0.0,0.0,0.0,0.0,0.0,0.0,0.0,0.0,0.0,0.0,0.0,0.0,0.0,0.0,0.0,0.0,0.0,0.0,0.0,0.0,0.0,0.0,0.0,0.0,0.0,0.0,0.0,-0.2025,-0.2208,-0.2459,-0.2439,-0.2937,-0.3268,-0.3217,-0.3576,-0.3925,-0.4286,-0.4642,-0.5084,-0.5393,-0.6113,-0.6432,-0.6655,-0.688,-0.7374,-0.8042,-0.7913,-0.7886,-0.8072,-0.7927,-0.748,-0.6751,-0.6745,-0.6677,-0.6557,-0.6365,-0.6325,-0.6282,-0.6285,-0.6207,-0.6177,-0.7143,-0.7319,-0.721,-0.7932,-0.8315,-0.8682,0.0,0.0,0.0,0.0,0.0,0.0,0.0,0.0,0.0,0.0,0.0,0.0,0.0,0.0,0.0,0.0,0.0,0.0,0.0,0.0,0.0,0.0,0.0,0.0,0.0,0.0,0.0,0.0,0.0,0.0,0.0,0.0,0.0,0.0,0.0,0.0,0.0,0.0,0.0,0.0,0.0,0.0,0.4208,0.0,0.0,0.0,0.0,0.0,0.0,0.0,0.0,0.0,0.0,0.0,0.0,0.0,0.0,0.0,0.0,0.0,0.0,0.0,0.0,0.0,0.0,0.0,0.0,0.0,0.0,0.0,0.0,0.0,0.0,0.0,0.0,-0.3463,-0.2915,-0.2853,-0.3013,-0.3479,-0.3509,-0.3582,-0.3689,-0.3984,-0.4281,-0.4656,-0.5073,-0.5525,-0.6229,-0.6585,-0.698,-0.7329,-0.7552,-0.7787,-0.8045,-0.8225,-0.8029,-0.7573,-0.7657,-0.7416,-0.6669,-0.6581,-0.6623,-0.6784,-0.6594,-0.6466,-0.6131,-0.6409,-0.6241,-0.6037,-0.6856,-0.7238,-0.7411,-0.7938,-0.8281,-0.867,0.0,0.0,0.0,0.0,0.0,0.0,0.0,0.0,0.0,0.0,0.0,0.0,0.0,0.0,0.0,0.0,0.0,0.0,0.0,0.0,0.0,0.0,0.0,0.0,0.0,0.0,0.0,0.0,0.0,0.0,0.0,0.0,0.0,0.0,0.0,0.0,0.0,0.0,0.0,0.0,0.0,0.0,0.3335,0.2582,0.2345,0.2234,0.1386,0.0808,0.0373,-0.0222,0.0,0.0,0.0,0.0,0.0,0.0,0.0,0.0,0.0,0.0,0.0,0.0,0.0,0.0,0.0,0.0,0.0,0.0,0.0,0.0,0.0,0.0,0.0,0.0,-0.4146,-0.424,-0.3846,-0.3739,-0.3808,-0.4068,-0.4162,-0.4246,-0.4428,-0.4708,-0.4995,-0.5291,-0.5597,-0.5936,-0.632,-0.6918,-0.7194,-0.7271,-0.749,-0.7686,-0.7743,-0.7853,-0.7651,-0.7258,-0.7395,-0.7185,-0.6644,-0.6573,-0.6739,0.0,-0.6958,-0.6754,-0.6539,-0.6727,-0.6558,0.0,0.0,0.0,0.0,0.0,-0.8316,-0.8729,0.0,0.0,0.0,0.0,0.0,0.0,0.0,0.0,0.0,0.0,0.0,0.0,0.0,0.0,0.0,0.0,0.0,0.0,0.0,0.0,0.0,0.0,0.0,0.0,0.0,0.0,0.0,0.0,0.0,0.0,0.0,0.0,0.0,0.0,0.0,0.0,0.0,0.0,0.0,0.0,0.0,0.0,0.2274,0.2101,0.2044,0.2028,0.1245,0.0946,0.0733,-0.0239,0.0,0.0,0.0,0.0,0.0,0.0,0.0,0.0,0.0,0.0,0.0,0.0,0.0,0.0,0.0,0.0,0.0,0.0,0.0,0.0,0.0,0.0,0.0,0.0,-0.4828,-0.4816,-0.4674,-0.4615,-0.4601,-0.452,-0.481,-0.5097,-0.5196,-0.5395,-0.5698,-0.5909,-0.6225,-0.6335,-0.6233,0.0,0.0,0.0,0.0,-0.7298,-0.7285,-0.718,-0.7071,-0.7161,-0.715,-0.7079,-0.6865,-0.6851,-0.7042,-0.7338,-0.7338,-0.7257,-0.723,-0.7243,-0.7174,-0.7133,-0.706,-0.7096,-0.7275,-0.776,-0.8308,0.0,0.0,0.0,0.0,0.0,0.0,0.0,0.0,0.0,0.0,0.0,0.0,0.0,0.0,0.0,0.0,0.0,0.0,0.0,0.0,0.0,0.0,0.0,0.0,0.0,0.0,0.0,0.0,0.0,0.0,0.0,0.0,0.0,0.0,0.0,0.0,0.0,0.0,0.0,0.0,0.0,0.0,0.0,0.2254,0.1654,0.1491,0.1335,0.0496,0.0166,0.0,-0.1164,-0.1825,-0.2398,-0.3485,0.0,0.0,0.0,0.0,0.0,0.0,0.0,0.0,0.0,0.0,0.0,0.0,0.0,0.0,0.0,0.0,0.0,0.0,0.0,0.0,-0.5628,-0.5665,-0.5612,-0.5232,-0.525,-0.515,-0.4895,-0.52,-0.5398,-0.5497,-0.5701,-0.6017,-0.6548,-0.6554,-0.6779,-0.723,-0.7482,0.0,-0.6912,-0.7233,-0.7172,-0.6942,-0.7263,-0.7343,-0.7183,0.0,0.0,-0.7298,-0.719,-0.7338,-0.7839,-0.7839,-0.795,-0.8108,-0.8136,-0.8199,-0.8225,-0.7749,-0.7894,-0.8359,-0.856,-0.8593,-0.8673,0.0,0.0,0.0,0.0,0.0,0.0,0.0,0.0,0.0,0.0,0.0,0.0,0.0,0.0,0.0,0.0,0.0,0.0,0.0,0.0,0.0,0.0,0.0,0.0,0.0,0.0,0.0,0.0,0.0,0.0,0.0,0.0,0.0,0.0,0.0,0.0,0.0,0.0,0.0,0.0,0.0,0.0,0.0597,0.05,0.0499,0.042,-0.0336,-0.0677,-0.0941,-0.1817,-0.2777,-0.3635,-0.4527,-0.5684,-0.6673,0.0,0.0,0.0,0.0,0.0,0.0,0.0,0.0,0.0,0.0,0.0,0.0,0.0,0.0,-0.6469,0.0,0.0,-0.6465,-0.662,-0.6521,-0.6365,-0.5971,-0.6135,-0.604,-0.5141,-0.5531,-0.5835,-0.5948,-0.6258,-0.6603,-0.6787,-0.6907,-0.6984,-0.7059,-0.7557,-0.76,-0.7107,-0.7318,-0.7364,-0.7131,-0.7235,-0.7303,-0.7232,-0.7471,-0.7544,-0.7544,-0.7475,-0.7739,-0.8237,-0.8237,-0.8287,-0.8514,-0.8594,-0.8682,-0.8886,-0.8532,-0.8621,-0.8893,-0.8898,-0.8848,-0.8706,0.0,0.0,0.0,0.0,0.0,0.0,0.0,0.0,0.0,0.0,0.0,0.0,0.0,0.0,0.0,0.0,0.0,0.0,0.0,0.0,0.0,0.0,0.0,0.0,0.0,0.0,0.0,0.0,0.0,0.0,0.0,0.0,0.0,0.0,0.0,0.0,0.0,0.0,0.0,0.0,0.0,0.0,-0.1506,-0.1183,-0.0839,-0.0681,-0.1191,-0.1629,-0.2087,-0.2843,-0.3922,-0.5058,-0.5934,-0.714,-0.8354,-0.8573,-0.9296,0.0,0.0,0.0,0.0,0.0,0.0,0.0,0.0,0.0,-0.7305,-0.7191,-0.7361,-0.7513,-0.7417,-0.7371,-0.7342,-0.7535,-0.7397,-0.7128,-0.6808,-0.7108,-0.691,-0.5718,-0.601,-0.6323,-0.6452,-0.6964,-0.7241,-0.7064,-0.7321,-0.7261,-0.6824,-0.7487,-0.7737,-0.7287,-0.7398,-0.7544,-0.7406,-0.7202,-0.725,-0.7338,-0.7434,-0.7637,-0.7842,-0.7842,-0.8155,-0.8674,-0.8777,-0.8958,-0.9122,-0.9122,-0.9225,-0.9414,-0.9271,-0.9324,-0.9382,-0.9255,-0.9007,-0.8915,0.0,0.0,0.0,0.0,0.0,0.0,0.0,0.0,0.0,0.0,0.0,0.0,0.0,0.0,0.0,0.0,0.0,0.0,0.0,0.0,0.0,0.0,0.0,0.0,0.0,0.0,0.0,0.0,0.0,0.0,0.0,0.0,0.0,0.0,0.0,0.0,0.0,0.0,0.0,0.0,0.0,0.0,-0.2978,-0.3177,-0.2577,-0.1781,-0.267,-0.2905,-0.3045,-0.4614,-0.5463,-0.6233,-0.7432,-0.8897,-1.0139,-1.0309,0.0,-1.1294,-1.0693,-0.958,-0.8609,-0.8754,-0.8378,-0.8196,0.0,0.0,-0.8746,-0.8499,-0.8636,-0.8656,-0.8358,-0.8365,-0.844,-0.8417,-0.8193,-0.7948,-0.7876,-0.7629,-0.737,-0.7187,-0.7034,-0.6985,-0.6937,-0.7267,-0.7607,-0.776,-0.7874,-0.7947,-0.7874,-0.7759,-0.7593,-0.7367,-0.7364,-0.74,-0.726,-0.7662,-0.7859,-0.7939,-0.8428,-0.8627,-0.8627,-0.8931,-0.9314,-0.9754,-1.0268,-1.0375,-1.0212,-1.0212,-1.0212,-1.0212,-1.0293,-1.0364,-1.052,-0.9673,-0.9295,-0.9203,0.0,0.0,0.0,0.0,0.0,0.0,0.0,0.0,0.0,0.0,0.0,0.0,0.0,0.0,0.0,0.0,0.0,0.0,0.2504,0.0,0.0,0.0,0.0,0.0,0.0,0.0,0.0,0.0,0.0,0.0,0.0,0.0,0.0,0.0,0.0,0.0,0.0,0.0,0.0,0.0,0.0,0.0,-0.4321,-0.4682,-0.4567,-0.4186,-0.4086,-0.4368,0.0,0.0,-0.6806,-0.7708,-0.8897,-1.0019,-1.1083,-1.1444,-1.2116,0.0,-1.1737,0.0,0.0,0.0,-0.9704,-0.9737,-1.0014,-1.0058,-1.0024,-0.9869,-0.987,-0.978,-0.9379,-0.9308,-0.9289,0.0,-0.8931,-0.8872,-0.88,-0.8641,-0.8399,-0.8127,-0.8102,-0.7938,-0.7446,-0.7597,-0.7744,-0.7786,-0.7878,-0.7942,-0.8011,-0.8147,-0.8206,-0.8227,-0.8029,-0.7999,-0.7935,-0.8134,-0.8233,-0.8233,-0.863,-0.8825,-0.8829,-0.923,-0.9673,-1.0347,-1.0552,-1.0663,-1.058,-1.0461,-1.0511,-1.0605,-1.0605,-1.0801,-1.0988,-1.0418,-1.0044,-0.9815,0.0,0.0,0.0,0.0,0.0,0.0,0.0,0.0,0.0,0.0,0.0,0.0,0.0,0.0,0.0,0.0,0.0,0.0,0.0,0.1493,0.0,0.0,0.0,0.0,0.0,0.0,0.0,0.0,0.0,0.0,0.0,0.0,0.0,0.0,0.0,0.0,0.0,0.0,0.0,0.0,0.0,0.0,-0.5694,-0.5913,-0.6224,-0.6444,-0.5491,-0.5693,0.0,0.0,-0.795,-0.909,-1.006,-1.1048,-1.1945,-1.2553,-1.3278,-1.358,-1.2717,0.0,0.0,-1.0992,-1.0937,-1.1106,-1.1154,-1.1286,-1.1289,-1.1112,-1.095,-1.0789,-1.0298,-1.006,0.0,-0.9625,-0.9728,-0.9671,-0.9512,-0.9376,-0.9257,-0.8811,-0.8814,-0.8653,-0.8116,-0.8147,-0.8059,-0.7924,-0.8026,-0.8065,-0.8098,-0.8437,-0.8642,-0.8758,-0.8605,-0.8528,-0.8528,-0.863,-0.873,-0.8733,-0.9172,-0.9267,-0.9229,-0.9754,-1.0343,-1.0984,-1.1053,-1.106,-1.0997,-1.0888,-1.0998,-1.11,-1.1194,-1.1389,-1.1585,-1.1487,-1.1025,-1.057,0.0,0.0,0.0,0.0,0.0,0.0,0.0,0.0,0.0,0.0,0.0,0.0,0.0,0.0,0.0,0.0,0.0,0.0,0.0,0.0326,0.0,0.0,0.0,0.0,0.0,0.0,0.0,0.0,0.0,0.0,0.0,0.0,0.0,0.0,0.0,0.0,0.0,0.0,0.0,0.0,0.0,0.0,-0.7099,-0.7028,-0.7399,-0.7869,-0.7014,0.0,0.0,0.0,-0.8936,-1.0084,-1.0767,-1.1822,0.0,-1.3938,-1.4375,0.0,0.0,0.0,-1.2487,-1.2241,-1.1992,-1.1952,-1.2372,-1.2479,-1.2447,-1.2006,-1.1834,-1.1508,-1.095,-1.0534,-1.0296,-1.0491,-1.0323,-1.0192,-1.0145,-0.9818,-0.9515,-0.9257,-0.8839,-0.8687,0.0,-0.8794,-0.8718,-0.8606,-0.8617,-0.8528,-0.8258,-0.8504,-0.8594,-0.8601,-0.8747,-0.8825,-0.8825,-0.9327,-0.9529,-0.9529,-1.0309,-1.0501,-1.0323,-1.1008,-1.1502,-1.1817,-1.2014,-1.2006,-1.1903,-1.1978,-1.198,-1.198,-1.2273,-1.2565,-1.2759,-1.2953,-1.2263,-1.1308,0.0,0.0,0.0,0.0,0.0,0.0,0.0,0.0,0.0,0.0,0.0,0.0,0.0,0.0,0.0,0.0,0.0,0.0,0.0,-0.1365,0.0,0.0,0.0,0.0,0.0,0.0,0.0,0.0,0.0,0.0,0.0,0.0,0.0,0.0,0.0,0.0,0.0,0.0,0.0,0.0,0.0,0.0,-0.8011,-0.8386,-0.8725,-0.905,0.0,0.0,0.0,0.0,0.0,0.0,-1.1884,0.0,0.0,-1.4395,-1.4767,-1.4703,0.0,0.0,-1.3746,-1.3377,-1.3153,-1.3004,-1.3181,-1.3135,-1.2935,-1.2888,-1.2451,-1.2,-1.1846,-1.1315,-1.0858,-1.0941,-1.0773,-1.0722,-1.0929,-1.0612,-1.0245,-0.9933,-0.9823,0.0,0.0,0.0,0.0,-0.8812,-0.9112,-0.9234,-0.9084,-0.9239,-0.9478,-0.982,-0.9567,-0.9494,-0.962,-0.9821,-0.9821,-0.9826,-1.0285,-1.0644,-1.0916,-1.1051,-1.1383,-1.1808,-1.1778,-1.1784,-1.1903,-1.1781,-1.1975,-1.2273,-1.237,-1.2662,-1.305,-1.305,-1.2936,-1.2718,0.0,0.0,0.0,0.0,0.0,0.0,0.0,0.0,0.0,0.0,0.0,0.0,0.0,0.0,0.0,0.0,0.0,0.0,0.0,0.0,-0.1981,0.0,0.0,0.0,0.0,0.0,0.0,0.0,0.0,0.0,0.0,0.0,0.0,0.0,0.0,0.0,0.0,0.0,0.0,0.0,0.0,0.0,-0.8612,-0.9087,-0.9354,0.0,0.0,0.0,0.0,0.0,0.0,0.0,0.0,0.0,-1.4893,-1.5396,-1.5543,-1.5491,0.0,-1.4858,-1.4792,-1.4236,-1.4055,-1.394,-1.3841,-1.3684,-1.3491,-1.3286,-1.2775,-1.2315,-1.2136,-1.1423,-1.0918,-1.1109,-1.0902,-1.0849,-1.1161,-1.0841,-1.0611,-1.0299,-1.0309,0.0,0.0,0.0,0.0,-0.9531,-0.9719,-0.9884,-0.9926,-0.9899,-1.0048,-1.0396,-1.025,-1.0087,-1.0117,-1.0314,-1.0448,-1.0518,-1.0641,-1.0947,-1.1318,-1.1249,-1.1425,-1.1803,-1.1808,-1.1873,-1.188,-1.1858,-1.2006,-1.2321,-1.2597,-1.2822,-1.3216,-1.3403,-1.3617,-1.372,0.0,0.0,0.0,0.0,0.0,0.0,0.0,0.0,0.0,0.0,0.0,0.0,0.0,0.0,0.0,0.0,0.0,0.0,0.0,0.0,0.0,0.0,0.0,0.0,0.0,0.0,0.0,0.0,0.0,0.0,0.0,0.0,0.0,0.0,0.0,0.0,0.0,0.0,0.0,0.0,0.0,0.0,-0.889,-0.9127,0.0,0.0,0.0,0.0,0.0,0.0,0.0,0.0,0.0,0.0,-1.7121,-1.6781,-1.6845,-1.6779,-1.587,-1.5743,-1.5625,-1.4722,-1.4697,-1.4793,-1.4306,-1.4096,-1.3846,-1.3192,-1.2751,-1.2342,0.0,0.0,-1.0502,-1.0971,-1.0749,-1.0625,-1.0906,-1.0827,-1.0589,0.0,0.0,0.0,0.0,0.0,0.0,-1.0845,0.0,-1.0501,-1.0779,-1.0396,-1.0305,-1.06,-1.0784,-1.0694,-1.0507,-1.0998,-1.1298,-1.1501,-1.1283,-1.1387,-1.1761,-1.1562,-1.1572,-1.1742,-1.2158,-1.2147,-1.192,-1.2294,-1.2258,-1.2162,-1.2851,-1.3134,-1.3256,-1.3987,-1.4274,-1.4244,0.0,0.0,0.0,0.0,0.0,0.0,0.0,0.0,0.0,0.0,0.0,0.0,0.0,0.0,0.0,0.0,0.0,0.0,0.0,0.0,0.0,0.0,0.0,0.0,0.0,0.0,0.0,0.0,0.0,0.0,0.0,0.0,0.0,0.0,0.0,0.0,0.0,0.0,0.0,0.0,0.0,0.0,-0.9134,0.0,0.0,0.0,0.0,0.0,0.0,0.0,0.0,0.0,0.0,0.0,-1.8078,-1.8279,-1.8101,-1.7755,-1.7376,-1.6981,-1.6555,-1.6146,-1.5593,-1.4949,-1.4063,-1.371,-1.3366,-1.2529,-1.2271,-1.2143,0.0,0.0,0.0,-1.1636,-1.1279,0.0,-1.1869,-1.1807,0.0,0.0,0.0,-1.2004,-1.2065,-1.2252,0.0,0.0,-1.1817,-1.1566,-1.1477,-1.1337,-1.1436,-1.1594,-1.1505,-1.1428,-1.1292,-1.1389,-1.1516,-1.157,-1.1549,-1.1505,-1.1609,-1.1477,-1.1407,-1.1452,-1.168,-1.1812,-1.1936,-1.2069,-1.2281,-1.2506,-1.2567,-1.2779,-1.3181,-1.3532,-1.3814,-1.4026,0.0,0.0,0.0,0.0,0.0,0.0,0.0,0.0,0.0,0.0,0.0,0.0,0.0,0.0,0.0,0.0,0.0,0.0,0.0,0.0,0.0,0.0,0.0,0.0,0.0,0.0,0.0,0.0,0.0,0.0,0.0,0.0,0.0,0.0,0.0,0.0,0.0,0.0,0.0,0.0,0.0,0.0,0.0,0.0,0.0,0.0,0.0,0.0,0.0,0.0,0.0,-1.6688,-1.7518,-1.8452,-1.9153,-1.9169,0.0,-1.8587,-1.819,-1.7769,-1.7327,-1.6716,-1.6137,-1.546,-1.4624,-1.3848,-1.317,-1.2596,-1.2164,0.0,0.0,0.0,0.0,0.0,0.0,0.0,-1.1939,-1.2135,-1.2207,0.0,-1.2637,0.0,-1.3009,-1.3159,-1.3245,0.0,-1.2666,-1.2374,-1.2278,-1.199,-1.1951,-1.2365,-1.2154,-1.1956,-1.198,-1.178,-1.1785,-1.178,-1.1758,-1.1798,-1.1788,-1.1561,-1.146,-1.1641,0.0,-1.1893,-1.1988,-1.2274,-1.2439,-1.2637,-1.2854,-1.313,-1.3332,-1.3566,-1.3806,-1.3924,0.0,0.0,0.0,0.0,0.0,0.0,0.0,0.0,0.0,0.0,0.0,0.0,0.0,0.0,0.0,0.0,0.0,0.0,0.0,0.0,0.0,0.0,0.0,0.0,0.0,0.0,0.0,0.0,0.0,0.0,0.0,0.0,0.0,0.0,0.0,0.0,0.0,0.0,0.0,0.0,0.0,0.0,0.0,0.0,0.0,0.0,0.0,0.0,0.0,0.0,-1.6551,-1.7696,-1.8234,-1.9254,-2.0257,-1.9813,-1.9589,-1.9292,-1.8752,-1.841,-1.8011,-1.7056,-1.6589,-1.6162,-1.529,-1.4173,-1.3262,-1.2912,0.0,0.0,-1.12,0.0,-1.0752,-1.1134,0.0,-1.1147,-1.1845,-1.2277,-1.2566,-1.2933,-1.3267,-1.3578,-1.3817,-1.3929,-1.3964,-1.3653,-1.3249,-1.305,-1.3147,-1.2565,-1.237,-1.2861,-1.257,-1.2467,-1.2467,-1.2175,-1.2063,-1.2032,-1.2098,-1.2068,-1.2032,-1.1811,-1.1802,-1.1978,0.0,0.0,-1.2104,-1.2501,-1.2574,-1.2543,-1.3164,-1.3525,-1.3525,-1.3839,-1.3851,-1.3857,0.0,0.0,0.0,0.0,0.0,0.0,0.0,0.0,0.0,0.0,-1.4409,0.0,0.0,0.0,0.0,0.0,0.0,0.0,0.0,0.0,0.0,0.0,0.0,0.0,0.0,0.0,0.0,0.0,0.0,0.0,0.0,0.0,0.0,0.0,0.0,0.0,0.0,0.0,0.0,0.0,0.0,0.0,0.0,0.0,0.0,0.0,0.0,0.0,0.0,0.0,-1.7333,-1.8488,-1.9289,-2.0071,-2.0729,-2.0734,-2.0393,-1.9966,-1.9715,-1.921,-1.8717,-1.817,-1.7433,-1.6404,-1.4947,-1.4058,0.0,0.0,0.0,-1.1498,-1.1099,-1.0824,0.0,-1.1486,0.0,0.0,0.0,0.0,-1.3439,0.0,0.0,0.0,0.0,0.0,0.0,0.0,0.0,-1.3817,-1.3443,-1.3346,-1.3249,-1.3346,-1.2958,-1.2764,-1.2764,-1.2667,-1.2566,-1.2373,-1.2549,-1.2528,-1.2327,-1.2081,-1.197,-1.197,0.0,0.0,-1.2353,-1.2146,-1.2441,-1.2957,-1.2684,-1.2808,-1.3201,-1.3689,-1.3768,-1.3671,0.0,0.0,0.0,0.0,0.0,0.0,0.0,0.0,0.0,0.0,-1.7233,-1.6095,0.0,0.0,0.0,0.0,0.0,0.0,0.0,0.0,0.0,0.0,0.0,0.0,0.0,0.0,0.0,0.0,0.0,0.0,0.0,0.0,0.0,0.0,0.0,0.0,0.0,0.0,0.0,0.0,0.0,0.0,0.0,0.0,0.0,0.0,0.0,0.0,0.0,0.0,-1.7324,-1.8497,-1.9589,-2.0407,-2.0845,-2.0887,-2.0549,-2.0195,-1.9928,-1.9396,-1.8772,-1.8282,-1.7371,-1.6321,-1.533,0.0,0.0,0.0,0.0,-1.1495,-1.1212,0.0,0.0,0.0,0.0,0.0,0.0,0.0,0.0,0.0,0.0,0.0,0.0,0.0,0.0,0.0,0.0,-1.4546,-1.3744,-1.3738,-1.3636,-1.3539,-1.3249,-1.3152,-1.3152,-1.3152,-1.3025,-1.2781,-1.2932,-1.2837,-1.2591,-1.2346,-1.2237,-1.24,-1.2428,0.0,-1.2558,-1.2756,-1.3034,-1.335,-1.3353,-1.3546,-1.3719,-1.3847,-1.3791,-1.3767,0.0,0.0,0.0,0.0,0.0,0.0,0.0,-1.7773,-1.8295,-1.9924,-1.9711,-1.853,-1.641,-1.5302,0.0,0.0,0.0,0.0,0.0,0.0,0.0,0.0,0.0,0.0,0.0,0.0,0.0,0.0,0.0,0.0,0.0,0.0,0.0,0.0,0.0,0.0,0.0,0.0,0.0,0.0,0.0,0.0,0.0,0.0,0.0,0.0,0.0,0.0,0.0,0.0,-1.6892,-1.7937,-1.9199,-2.0043,-2.0535,-2.0472,-2.0218,-2.0,-1.9859,-1.9335,-1.8692,-1.8282,-1.7301,-1.6321,-1.5733,-1.4292,0.0,0.0,0.0,-1.163,-1.1495,0.0,0.0,0.0,0.0,0.0,0.0,0.0,0.0,0.0,0.0,0.0,0.0,0.0,0.0,0.0,0.0,0.0,-1.4136,-1.4027,-1.3931,-1.363,-1.3636,-1.3545,-1.3545,-1.3545,-1.3379,-1.3065,-1.3159,-1.2998,-1.2603,-1.2503,-1.2505,-1.2663,-1.2537,0.0,0.0,-1.3141,-1.3375,-1.3562,-1.3938,-1.4214,-1.4159,-1.397,-1.3888,-1.3929,0.0,0.0,0.0,0.0,0.0,0.0,0.0,-1.8037,-1.8694,-2.0736,-2.0334,-1.9627,-1.9164,-1.7761,0.0,0.0,0.0,0.0,0.0,0.0,0.0,0.0,0.0,0.0,0.0,0.0,0.0,0.0,0.0,0.0,0.0,0.0,0.0,0.0,0.0,0.0,0.0,0.0,0.0,0.0,0.0,0.0,0.0,0.0,0.0,0.0,0.0,0.0,0.0,0.0,0.0,-1.6649,-1.7571,-1.8516,-1.937,-1.9396,0.0,0.0,-1.9599,-1.9277,-1.8922,-1.8692,-1.7856,-1.6788,-1.5643,0.0,0.0,0.0,-1.2428,-1.2157,-1.1957,0.0,0.0,0.0,0.0,0.0,0.0,0.0,0.0,0.0,0.0,0.0,0.0,0.0,0.0,0.0,0.0,0.0,-1.4598,-1.4598,-1.4496,-1.4202,-1.4022,-1.3835,-1.3835,-1.3835,-1.3584,-1.3088,-1.3368,-1.31,-1.2433,-1.2582,-1.257,-1.2398,-1.2631,0.0,0.0,-1.2861,-1.3123,-1.3544,-1.3641,-1.3755,-1.3912,-1.3902,-1.3888,-1.3898,0.0,0.0,0.0,0.0,0.0,0.0,0.0,-1.7413,-1.8141,-2.0993,-2.0476,-1.9989,-2.018,-1.9008,-1.7369,0.0,0.0,0.0,0.0,0.0,0.0,0.0,0.0,0.0,0.0,0.0,0.0,0.0,0.0,0.0,0.0,0.0,0.0,0.0,0.0,0.0,0.0,0.0,0.0,0.0,0.0,0.0,0.0,0.0,0.0,0.0,0.0,0.0,0.0,0.0,0.0,0.0,-1.6664,-1.7208,0.0,0.0,-1.8803,-1.9126,-1.9062,-1.89,-1.8772,-1.8612,-1.77,-1.6555,-1.5673,0.0,0.0,-1.2849,-1.2514,-1.2254,-1.2043,-1.1842,0.0,0.0,0.0,0.0,0.0,0.0,0.0,0.0,0.0,0.0,0.0,0.0,0.0,0.0,0.0,0.0,-1.5402,-1.5166,-1.4865,-1.4826,-1.4485,-1.431,-1.4112,-1.4112,-1.385,-1.3332,-1.3423,-1.3141,-1.2619,-1.2619,-1.2619,-1.2619,-1.2705,0.0,0.0,-1.3087,-1.3333,-1.3556,-1.3884,-1.4046,-1.4206,-1.4322,-1.4214,-1.4103,0.0,0.0,0.0,0.0,0.0,0.0,-1.7028,-1.7207,-1.8109,-2.0763,-2.0435,-2.0076,-2.054,-1.9397,-1.7793,-1.59,0.0,0.0,0.0,0.0,0.0,0.0,0.0,0.0,0.0,0.0,0.0,0.0,0.0,0.0,0.0,0.0,0.0,0.0,0.0,0.0,0.0,0.0,0.0,0.0,0.0,0.0,0.0,0.0,0.0,0.0,0.0,0.0,0.0,0.0,0.0,0.0,0.0,0.0,0.0,0.0,-1.8101,-1.8471,-1.8614,-1.8536,-1.8461,-1.8407,-1.7544,-1.6488,0.0,0.0,-1.3832,-1.3119,-1.2757,-1.2578,-1.2337,-1.219,-1.2067,0.0,0.0,0.0,0.0,0.0,0.0,0.0,0.0,0.0,0.0,0.0,0.0,0.0,0.0,0.0,0.0,-1.58,-1.5396,-1.5183,-1.4933,-1.4688,-1.4496,-1.4496,-1.4221,-1.3689,-1.3604,-1.3319,-1.2705,-1.2705,-1.2705,-1.2619,0.0,0.0,0.0,-1.329,-1.3513,-1.3562,-1.4008,-1.4183,-1.4242,-1.4359,-1.4267,-1.4091,0.0,0.0,0.0,0.0,0.0,0.0,0.0,-1.7849,-1.9001,-2.0184,-2.011,-2.0109,-2.0384,-1.8701,-1.7396,-1.7092,0.0,0.0,0.0,0.0,0.0,0.0,0.0,0.0,0.0,0.0,0.0,0.0,0.0,0.0,0.0,0.0,0.0,0.0,0.0,0.0,0.0,0.0,0.0,0.0,0.0,0.0,0.0,0.0,0.0,0.0,0.0,0.0,0.0,0.0,0.0,0.0,0.0,0.0,0.0,0.0,-1.7056,-1.7385,-1.8167,-1.8261,-1.8108,-1.8337,-1.7631,-1.6647,0.0,0.0,-1.4656,-1.3542,-1.3324,-1.3316,-1.314,-1.279,-1.2621,0.0,0.0,0.0,0.0,0.0,0.0,0.0,0.0,0.0,0.0,0.0,0.0,0.0,0.0,0.0,0.0,-1.6749,-1.6252,-1.5484,-1.5229,-1.5083,-1.5083,-1.5083,-1.479,-1.4218,-1.3966,-1.3502,-1.2705,-1.2705,-1.2619,0.0,0.0,0.0,0.0,-1.329,-1.3513,-1.3544,-1.3803,-1.3912,-1.3882,-1.3896,-1.3887,-1.3811,0.0,0.0,0.0,0.0,0.0,0.0,0.0,-1.5867,-1.6357,-1.7987,-1.8019,-1.825,-1.9287,-1.834,-1.7509,-1.7231,0.0,0.0,0.0,0.0,0.0,0.0,0.0,0.0,0.0,0.0,-1.0089,-1.017,-0.9752,0.0,0.0,0.0,0.0,0.0,0.0,0.0,0.0,0.0,0.0,0.0,0.0,0.0,0.0,0.0,0.0,0.0,0.0,0.0,0.0,0.0,0.0,0.0,0.0,0.0,0.0,0.0,0.0,0.0,-1.6827,-1.7306,-1.7805,-1.7296,-1.6928,-1.6409,-1.5356,-1.4976,-1.4436,-1.3309,-1.3223,-1.3285,-1.3099,-1.294,-1.3029,0.0,0.0,0.0,0.0,0.0,0.0,0.0,0.0,0.0,0.0,0.0,0.0,0.0,0.0,0.0,0.0,-1.7049,-1.664,-1.6071,-1.5698,-1.5458,-1.5083,-1.5083,-1.479,-1.4218,-1.3973,-1.3591,-1.2966,-1.279,0.0,0.0,0.0,0.0,0.0,-1.3354,-1.3591,-1.3704,-1.3991,-1.4012,-1.3908,-1.4082,-1.4077,-1.4091,0.0,0.0,0.0,0.0,0.0,0.0,0.0,-1.5565,-1.5801,-1.6529,-1.6819,-1.7243,-1.7982,-1.7492,-1.7225,-1.7435,0.0,0.0,0.0,0.0,0.0,0.0,0.0,0.0,0.0,-1.0929,-1.0887,-1.0943,-1.0662,-1.0223,-0.97,-0.9638,0.0,0.0,0.0,0.0,0.0,0.0,0.0,0.0,0.0,0.0,-1.4234,0.0,0.0,0.0,0.0,0.0,0.0,0.0,0.0,0.0,0.0,0.0,0.0,0.0,0.0,0.0,0.0,-1.691,-1.7197,-1.6736,-1.6572,0.0,0.0,-1.4976,-1.4644,-1.3705,-1.3543,-1.3442,-1.3248,-1.3079,-1.3199,0.0,0.0,0.0,0.0,0.0,0.0,0.0,0.0,0.0,0.0,0.0,0.0,0.0,0.0,0.0,0.0,-1.7246,-1.6886,-1.6504,-1.6245,-1.5873,-1.5402,-1.5396,-1.5008,-1.4333,-1.3989,-1.3667,-1.3222,-1.2966,0.0,0.0,0.0,0.0,0.0,-1.3517,-1.3717,-1.3824,-1.4008,-1.3995,-1.3919,-1.4186,-1.4269,-1.4209,0.0,0.0,0.0,0.0,0.0,0.0,0.0,0.0,0.0,0.0,-1.6349,-1.683,-1.6645,-1.64,-1.6605,0.0,0.0,0.0,0.0,0.0,0.0,0.0,0.0,0.0,0.0,-1.1471,-1.1283,-1.1509,-1.1184,-1.075,-1.0084,-1.0551,-1.0471,-0.9833,0.0,0.0,-1.0854,-1.1641,-1.2443,-1.3293,-1.354,-1.3957,0.0,0.0,0.0,0.0,0.0,0.0,0.0,0.0,0.0,0.0,0.0,0.0,0.0,0.0,0.0,0.0,0.0,0.0,0.0,0.0,0.0,0.0,0.0,-1.5155,0.0,-1.4461,-1.4115,-1.3823,-1.3675,-1.3322,-1.3186,0.0,0.0,0.0,0.0,0.0,0.0,0.0,0.0,0.0,0.0,0.0,0.0,0.0,0.0,0.0,0.0,-1.7576,-1.7123,-1.6911,-1.6743,-1.6392,-1.5752,-1.5746,-1.5361,-1.4516,-1.4073,-1.3652,-1.3366,-1.3197,0.0,0.0,0.0,0.0,0.0,-1.3671,-1.3773,-1.3779,-1.3798,-1.3805,-1.3931,-1.4397,-1.4434,-1.4229,0.0,0.0,0.0,0.0,0.0,0.0,0.0,0.0,0.0,0.0,0.0,-1.6071,-1.6148,-1.6333,0.0,0.0,0.0,0.0,0.0,0.0,0.0,0.0,0.0,0.0,0.0,-1.2866,-1.2795,-1.2487,-1.2693,-1.2432,-1.1804,-1.1957,-1.1698,-1.0969,-1.1421,-1.187,-1.2253,-1.256,-1.3175,-1.3951,-1.4274,-1.4567,0.0,0.0,0.0,0.0,-1.543,-1.5599,0.0,0.0,0.0,0.0,0.0,0.0,0.0,0.0,-1.6175,-1.589,-1.6729,0.0,-1.5942,-1.5916,0.0,0.0,0.0,0.0,0.0,0.0,0.0,-1.3968,-1.4371,-1.4094,0.0,0.0,0.0,0.0,0.0,0.0,0.0,0.0,0.0,0.0,0.0,0.0,0.0,0.0,0.0,0.0,0.0,-1.79,-1.7468,-1.7032,-1.6929,-1.6475,-1.568,-1.5514,-1.5246,-1.4797,-1.4348,-1.3814,-1.3328,-1.308,0.0,0.0,0.0,0.0,-1.3659,-1.3724,-1.3841,-1.4038,-1.4256,-1.4254,-1.4112,-1.4487,-1.4506,-1.4504,0.0,0.0,0.0,0.0,0.0,0.0,0.0,0.0,0.0,0.0,0.0,0.0,0.0,0.0,0.0,0.0,0.0,0.0,0.0,0.0,0.0,0.0,0.0,0.0,-1.3483,-1.3442,-1.3353,-1.321,-1.3358,-1.317,-1.2731,-1.2837,-1.256,-1.1964,-1.22,-1.2608,-1.3092,-1.2936,-1.3333,-1.4111,-1.4252,0.0,0.0,0.0,0.0,0.0,-1.5496,-1.5711,0.0,-1.5936,-1.607,-1.6175,0.0,0.0,0.0,0.0,-1.6037,-1.5826,-1.6468,-1.6441,-1.6227,-1.6029,-1.5931,-1.5793,0.0,0.0,0.0,0.0,0.0,0.0,-1.4202,0.0,0.0,0.0,0.0,0.0,0.0,0.0,0.0,0.0,0.0,0.0,0.0,0.0,0.0,0.0,0.0,0.0,0.0,-1.8002,-1.7652,-1.729,-1.6955,-1.6432,-1.5704,-1.5623,-1.5301,-1.4829,-1.4345,-1.3858,-1.3395,-1.3313,-1.316,0.0,0.0,0.0,-1.3638,-1.3853,-1.3997,-1.4102,-1.4262,-1.4316,-1.4361,-1.452,-1.4668,-1.4763,0.0,0.0,0.0,0.0,0.0,0.0,0.0,0.0,0.0,0.0,0.0,0.0,0.0,0.0,0.0,0.0,0.0,0.0,0.0,0.0,0.0,0.0,0.0,-1.4454,-1.4258,-1.3761,-1.3622,-1.3892,-1.3852,-1.3696,-1.3412,-1.3664,-1.3521,-1.3077,-1.2843,-1.3041,-1.3667,-1.308,-1.339,-1.4121,-1.4094,0.0,0.0,0.0,0.0,0.0,0.0,0.0,0.0,-1.5913,-1.6061,-1.6182,-1.5995,0.0,0.0,0.0,0.0,0.0,-1.6331,-1.6743,-1.6912,-1.643,-1.6428,-1.6363,0.0,0.0,0.0,0.0,0.0,0.0,0.0,0.0,0.0,0.0,0.0,0.0,0.0,0.0,0.0,0.0,0.0,0.0,0.0,0.0,0.0,0.0,0.0,0.0,0.0,-1.8102,-1.7652,-1.7595,-1.6826,-1.6314,-1.6059,-1.5896,-1.5481,-1.4747,-1.4234,-1.3824,-1.3588,-1.3588,-1.3373,0.0,0.0,0.0,-1.3667,-1.4045,-1.4166,-1.4088,-1.4135,-1.4302,-1.4529,-1.4623,-1.4717,-1.4952,0.0,0.0,0.0,0.0,0.0,0.0,0.0,0.0,0.0,0.0,0.0,0.0,0.0,0.0,0.0,0.0,0.0,0.0,0.0,0.0,0.0,0.0,-1.5816,-1.4965,-1.4775,-1.4629,-1.4592,-1.4714,-1.522,-1.5154,-1.4674,-1.5212,-1.5015,-1.4326,-1.3467,-1.352,-1.4289,-1.3846,-1.4066,-1.4743,-1.4485,0.0,0.0,0.0,0.0,0.0,0.0,0.0,0.0,-1.5331,-1.5637,-1.5986,-1.559,0.0,0.0,0.0,0.0,0.0,-1.6927,-1.7429,-1.7392,-1.6763,-1.6437,-1.6251,0.0,0.0,0.0,0.0,0.0,0.0,0.0,0.0,0.0,0.0,0.0,0.0,0.0,0.0,0.0,0.0,0.0,0.0,0.0,0.0,0.0,0.0,0.0,0.0,0.0,0.0,-1.7871,-1.7491,-1.6951,-1.6686,-1.6562,-1.5974,-1.5403,-1.4851,-1.4631,-1.4085,-1.3341,-1.3341,-1.3314,0.0,0.0,-1.3849,-1.3913,-1.4198,-1.4243,-1.4115,-1.4355,-1.4482,-1.4583,-1.5077,-1.5104,-1.5075,0.0,0.0,0.0,0.0,0.0,0.0,0.0,0.0,0.0,0.0,0.0,0.0,0.0,0.0,0.0,0.0,0.0,0.0,0.0,0.0,0.0,-1.8026,-1.7108,-1.6434,-1.5799,-1.5439,-1.5568,-1.6216,-1.61,-1.6155,-1.6253,-1.5929,-1.5397,-1.4609,-1.4063,-1.4232,-1.4928,-1.4223,-1.4462,-1.5248,0.0,0.0,0.0,0.0,0.0,0.0,0.0,0.0,0.0,0.0,-1.5426,-1.5638,-1.5314,0.0,0.0,0.0,0.0,0.0,-1.6257,-1.6973,-1.733,-1.6875,-1.7021,-1.7213,0.0,0.0,0.0,0.0,0.0,0.0,0.0,0.0,0.0,0.0,0.0,0.0,0.0,0.0,0.0,0.0,0.0,0.0,0.0,0.0,0.0,0.0,0.0,0.0,0.0,0.0,-1.7525,-1.7276,-1.6935,-1.6702,-1.664,-1.6245,-1.5785,-1.5255,-1.4747,-1.4183,-1.3665,-1.3506,-1.3339,-1.3138,0.0,-1.3975,-1.3916,-1.4372,-1.4489,-1.4426,-1.447,-1.4548,-1.4751,-1.51,-1.5258,-1.5404,0.0,0.0,0.0,0.0,0.0,0.0,0.0,0.0,0.0,0.0,0.0,0.0,0.0,0.0,0.0,0.0,0.0,0.0,0.0,0.0,-1.8653,-1.8518,-1.8256,-1.7774,-1.6936,-1.6313,-1.6485,-1.7397,-1.6877,-1.6787,-1.7216,-1.6116,-1.5352,-1.481,-1.4653,-1.4885,-1.5405,-1.4743,-1.4912,-1.5565,0.0,0.0,0.0,0.0,0.0,0.0,0.0,0.0,0.0,0.0,0.0,0.0,0.0,0.0,0.0,-1.5102,-1.509,-1.5216,-1.5735,-1.6476,-1.7142,-1.713,0.0,0.0,0.0,0.0,0.0,0.0,0.0,0.0,0.0,0.0,0.0,0.0,0.0,0.0,0.0,0.0,0.0,0.0,0.0,0.0,0.0,0.0,0.0,0.0,0.0,0.0,0.0,0.0,-1.7353,-1.7345,-1.6816,-1.6665,-1.675,-1.6288,-1.594,-1.5504,-1.4836,-1.4321,-1.4014,-1.3783,-1.3422,-1.3162,-1.3889,-1.4057,-1.3937,-1.4487,-1.4671,-1.465,-1.4566,-1.4723,-1.5021,-1.5143,-1.5424,-1.5784,0.0,0.0,0.0,0.0,0.0,0.0,0.0,0.0,0.0,0.0,0.0,0.0,0.0,0.0,0.0,0.0,0.0,0.0,0.0,0.0,-1.8922,-1.8928,-1.8831,-1.8473,-1.7946,-1.7217,-1.7098,-1.7731,-1.7478,-1.7151,-1.6879,-1.5789,-1.5227,-1.5249,-1.5296,-1.5383,-1.5606,-1.5682,-1.5725,-1.5589,-1.5658,0.0,0.0,0.0,0.0,0.0,0.0,0.0,0.0,0.0,0.0,0.0,0.0,0.0,-1.5102,-1.5102,-1.5079,-1.5213,-1.6188,-1.6627,-1.6996,-1.775,0.0,0.0,0.0,0.0,0.0,0.0,0.0,0.0,0.0,0.0,0.0,0.0,0.0,0.0,0.0,0.0,0.0,0.0,0.0,0.0,0.0,0.0,0.0,0.0,0.0,0.0,0.0,0.0,0.0,-1.7635,-1.7002,-1.6772,-1.7026,-1.6063,-1.5485,-1.5261,-1.5138,-1.4785,-1.4095,-1.3893,-1.374,-1.374,-1.3969,-1.4048,-1.408,-1.4422,-1.4646,-1.4734,-1.465,-1.494,-1.5328,-1.5636,-1.5915,-1.6127,0.0,0.0,0.0,0.0,0.0,0.0,0.0,0.0,0.0,0.0,0.0,0.0,0.0,0.0,0.0,0.0,0.0,0.0,0.0,0.0,-1.9515,-1.9581,-1.9495,-1.9233,-1.8825,-1.8521,-1.8625,-1.9312,-1.8819,-1.8115,-1.6988,-1.6364,-1.6097,-1.6139,-1.5921,-1.6003,-1.628,-1.6133,-1.6156,-1.6193,-1.612,-1.6114,0.0,0.0,0.0,0.0,0.0,0.0,0.0,0.0,-1.4616,-1.4708,0.0,0.0,-1.4735,-1.4735,-1.4685,-1.4786,-1.5118,-1.6225,-1.7281,-1.7455,0.0,0.0,0.0,0.0,0.0,0.0,0.0,0.0,0.0,0.0,0.0,0.0,0.0,0.0,0.0,0.0,0.0,0.0,0.0,0.0,0.0,0.0,0.0,0.0,0.0,0.0,0.0,0.0,0.0,-1.741,-1.6919,-1.6688,-1.6759,-1.6272,-1.5857,-1.558,-1.5218,-1.4776,-1.4425,-1.4217,-1.4072,-1.4015,-1.4275,-1.4419,-1.4416,-1.4786,-1.4992,-1.5042,-1.4996,-1.5119,-1.5322,-1.5625,-1.6092,-1.6686,0.0,0.0,0.0,0.0,0.0,0.0,0.0,0.0,0.0,0.0,0.0,0.0,0.0,0.0,0.0,0.0,0.0,0.0,0.0,-1.9379,-1.9613,-1.9883,-1.9822,-1.9653,-1.939,-1.9288,-1.9375,-1.9655,-1.9101,-1.8221,-1.7179,-1.6861,-1.6615,-1.6507,-1.6476,-1.6601,-1.6788,-1.6597,-1.6554,-1.6657,-1.6619,-1.6506,0.0,0.0,0.0,0.0,0.0,0.0,0.0,0.0,0.0,0.0,0.0,0.0,0.0,0.0,0.0,0.0,-1.4939,-1.6119,0.0,0.0,0.0,0.0,0.0,0.0,0.0,0.0,0.0,0.0,0.0,0.0,0.0,0.0,0.0,0.0,0.0,0.0,0.0,0.0,0.0,0.0,0.0,0.0,0.0,0.0,0.0,0.0,0.0,0.0,0.0,0.0,-1.7028,-1.6821,-1.6821,-1.6542,-1.6272,-1.607,-1.5576,-1.5141,-1.4776,-1.4649,-1.4425,-1.4289,-1.4456,-1.4544,-1.4599,-1.4902,-1.5053,-1.5204,-1.5235,-1.5319,-1.5436,-1.58,-1.6209,-1.6742,0.0,0.0,0.0,0.0,0.0,0.0,0.0,0.0,0.0,0.0,0.0,0.0,0.0,0.0,0.0,0.0,0.0,0.0,-1.9278,-1.8921,-1.9043,-1.9844,-1.9686,-1.9592,-1.9618,-1.932,-1.895,-1.8513,-1.7928,-1.7516,-1.7278,-1.7,-1.6721,-1.6409,-1.7028,-1.7239,-1.7098,-1.7163,-1.7115,-1.691,-1.7128,-1.6952,-1.6648,0.0,0.0,0.0,0.0,0.0,0.0,0.0,0.0,0.0,0.0,0.0,0.0,0.0,-1.5384,-1.576,-1.576,0.0,0.0,0.0,0.0,0.0,0.0,0.0,0.0,0.0,0.0,0.0,0.0,0.0,0.0,0.0,0.0,0.0,0.0,0.0,0.0,0.0,0.0,0.0,0.0,0.0,0.0,0.0,0.0,0.0,0.0,0.0,0.0,0.0,-1.752,-1.7235,-1.7235,-1.6821,-1.6603,-1.6603,-1.6403,-1.5912,-1.5204,-1.5007,-1.4792,-1.4569,-1.4497,-1.4475,-1.4636,-1.4568,-1.4804,-1.5219,-1.5459,-1.5461,-1.5591,-1.606,-1.619,-1.6116,0.0,0.0,0.0,0.0,0.0,0.0,0.0,0.0,0.0,0.0,0.0,0.0,0.0,0.0,0.0,0.0,0.0,0.0,0.0,-1.8713,-1.8778,-1.8904,-1.9088,-1.9096,-1.8986,-1.8751,-1.8328,-1.7712,-1.8076,-1.7963,-1.7401,-1.731,-1.7163,-1.7066,-1.7597,-1.7441,-1.6951,-1.7242,-1.7166,-1.6967,-1.7397,-1.7325,-1.6875,0.0,0.0,0.0,0.0,0.0,0.0,0.0,0.0,0.0,0.0,0.0,0.0,0.0,-1.5115,-1.5219,-1.5219,0.0,0.0,0.0,0.0,0.0,0.0,0.0,0.0,0.0,0.0,0.0,0.0,0.0,0.0,0.0,0.0,0.0,0.0,0.0,0.0,0.0,0.0,0.0,0.0,0.0,0.0,0.0,0.0,0.0,0.0,0.0,0.0,0.0,-1.8066,-1.7725,-1.7725,-1.7392,-1.7176,-1.7028,-1.683,-1.6412,-1.585,-1.5647,-1.5363,-1.4991,-1.4991,-1.484,-1.4598,-1.4692,-1.4811,-1.5036,-1.539,-1.5664,-1.5813,-1.608,-1.6439,-1.6705,0.0,0.0,0.0,0.0,0.0,0.0,0.0,0.0,0.0,0.0,0.0,0.0,0.0,0.0,0.0,0.0,0.0,0.0,0.0,0.0,-1.8263,-1.8702,-1.8664,-1.8649,-1.8673,-1.8822,-1.8339,-1.7316,-1.7933,-1.8027,-1.7635,-1.7778,-1.7763,-1.7697,-1.8305,-1.8104,-1.7218,-1.7363,-1.7257,-1.6938,-1.7479,-1.7477,-1.7213,0.0,0.0,0.0,0.0,0.0,0.0,0.0,0.0,0.0,0.0,0.0,0.0,-1.5137,-1.5321,-1.5494,0.0,0.0,0.0,0.0,0.0,0.0,0.0,0.0,0.0,0.0,0.0,0.0,0.0,0.0,0.0,0.0,0.0,0.0,0.0,0.0,0.0,0.0,0.0,0.0,0.0,0.0,0.0,0.0,0.0,0.0,0.0,0.0,0.0,0.0,-1.8539,-1.8212,-1.8008,-1.7803,-1.7598,-1.7314,-1.7185,-1.6908,-1.6542,-1.614,-1.5788,-1.5275,-1.5133,-1.4927,-1.4745,-1.4793,-1.4889,-1.5162,-1.545,-1.5748,-1.604,-1.6201,-1.6422,-1.6667,0.0,0.0,0.0,0.0,0.0,0.0,0.0,0.0,0.0,0.0,0.0,0.0,0.0,0.0,0.0,0.0,0.0,0.0,0.0,0.0,-1.7666,-1.8933,-1.8478,-1.8411,-1.8917,-1.9388,-1.897,-1.7461,-1.7658,-1.7839,-1.7946,-1.8396,-1.8385,-1.8203,0.0,-1.8676,-1.7552,-1.7393,-1.7189,-1.6895,-1.7254,-1.7399,-1.7425,-1.7385,0.0,0.0,0.0,0.0,0.0,0.0,0.0,0.0,0.0,0.0,0.0,-1.541,-1.5753,-1.6164,0.0,0.0,0.0,0.0,0.0,0.0,0.0,0.0,0.0,0.0,0.0,0.0,0.0,0.0,0.0,0.0,0.0,0.0,0.0,0.0,0.0,0.0,0.0,0.0,0.0,0.0,0.0,0.0,0.0,0.0,0.0,0.0,0.0,0.0,-1.8942,-1.8607,-1.8076,-1.8076,-1.7852,0.0,-1.7482,-1.7385,-1.7055,-1.6585,-1.6061,-1.5497,-1.515,-1.4935,-1.496,-1.4836,-1.5023,-1.5374,-1.5528,-1.5794,-1.6124,-1.6273,-1.6281,-1.6214,0.0,0.0,0.0,0.0,0.0,0.0,0.0,0.0,0.0,0.0,0.0,0.0,0.0,0.0,0.0,0.0,0.0,0.0,0.0,0.0,-1.778,-1.8061,-1.917,-2.0033,-2.0387,-2.0419,-2.0061,-1.9313,-1.8306,-1.7756,0.0,0.0,0.0,-1.7681,0.0,-1.7805,-1.66,-1.6309,-1.6243,-1.6374,-1.6384,-1.6486,-1.6699,-1.7166,-1.7106,0.0,0.0,0.0,0.0,0.0,0.0,0.0,0.0,-1.5488,-1.5614,-1.5614,-1.5732,0.0,0.0,0.0,0.0,0.0,0.0,0.0,0.0,0.0,0.0,0.0,0.0,0.0,0.0,0.0,0.0,0.0,0.0,0.0,0.0,0.0,0.0,0.0,0.0,0.0,0.0,0.0,0.0,0.0,0.0,0.0,0.0,0.0,0.0,-1.9736,-1.9274,-1.9008,-1.8875,-1.8549,-1.8101,0.0,-1.7444,-1.7005,-1.6169,-1.6615,-1.6482,-1.5921,-1.5576,-1.5355,-1.5363,-1.5016,-1.4967,-1.5142,-1.5221,-1.556,-1.594,-1.602,-1.6093,-1.6204,0.0,0.0,0.0,0.0,0.0,0.0,0.0,0.0,0.0,0.0,0.0,0.0,0.0,0.0,0.0,0.0,0.0,0.0,0.0,0.0,0.0,0.0,-1.959,-2.0391,-2.0582,-2.0311,-1.9849,-1.9345,0.0,0.0,0.0,0.0,0.0,-1.838,0.0,-1.8009,-1.6831,-1.6207,-1.5961,-1.598,-1.6042,-1.6283,-1.6709,-1.6865,-1.6799,-1.6602,-1.6725,0.0,0.0,0.0,0.0,0.0,0.0,0.0,-1.5798,-1.5798,-1.5798,-1.5888,0.0,0.0,0.0,0.0,0.0,0.0,0.0,0.0,0.0,0.0,0.0,0.0,0.0,0.0,0.0,0.0,0.0,0.0,0.0,0.0,0.0,0.0,0.0,0.0,0.0,0.0,0.0,0.0,0.0,0.0,0.0,-1.9854,-1.9617,-1.9199,-1.8924,-1.868,-1.8423,-1.824,-1.787,-1.7436,-1.7254,-1.6986,-1.6449,-1.6337,-1.6195,-1.6076,-1.5781,-1.5647,-1.5576,-1.5078,-1.5073,-1.5314,-1.5255,-1.5431,-1.5827,-1.6079,-1.6111,-1.6164,0.0,0.0,0.0,0.0,0.0,0.0,0.0,0.0,0.0,0.0,0.0,0.0,0.0,0.0,0.0,0.0,0.0,0.0,0.0,0.0,0.0,0.0,-1.9727,-2.0259,-2.0304,-1.9889,-1.938,0.0,0.0,0.0,0.0,0.0,0.0,-1.915,0.0,-1.8178,-1.7149,-1.6163,-1.5699,-1.5554,-1.5605,-1.6009,-1.6546,-1.6297,-1.6157,-1.6157,-1.6216,-1.5976,-1.568,-1.597,0.0,0.0,0.0,0.0,-1.5793,-1.5793,-1.5743,-1.584,0.0,0.0,0.0,0.0,0.0,0.0,0.0,0.0,0.0,0.0,0.0,0.0,0.0,0.0,0.0,0.0,0.0,0.0,0.0,0.0,0.0,0.0,0.0,0.0,0.0,0.0,0.0,0.0,0.0,0.0,-1.9765,-1.9732,-1.9324,-1.8527,-1.8445,-1.8272,-1.7853,-1.7791,-1.7564,-1.7183,-1.6924,-1.685,-1.6869,-1.6221,-1.5986,-1.6152,-1.6009,-1.5938,-1.5797,-1.5367,-1.5235,-1.5446,-1.5298,-1.5423,-1.5702,-1.6162,-1.6158,-1.6032,0.0,0.0,0.0,0.0,0.0,0.0,0.0,0.0,0.0,0.0,0.0,0.0,0.0,0.0,0.0,0.0,0.0,0.0,0.0,0.0,0.0,0.0,-1.9857,-2.0487,-2.0472,-2.0272,-1.9688,0.0,0.0,0.0,0.0,0.0,0.0,-1.8741,0.0,0.0,-1.5942,-1.4953,-1.4508,-1.4474,-1.4268,-1.443,-1.4874,-1.4965,-1.4945,-1.4784,-1.4945,-1.5103,-1.5285,-1.5345,-1.5585,0.0,0.0,0.0,-1.5467,-1.5467,-1.5202,0.0,0.0,0.0,0.0,0.0,0.0,0.0,0.0,0.0,0.0,0.0,0.0,0.0,0.0,0.0,0.0,0.0,0.0,0.0,0.0,0.0,0.0,0.0,0.0,0.0,0.0,0.0,0.0,0.0,0.0,0.0,-1.9901,-1.9867,-1.9521,-1.8841,-1.8698,-1.8566,-1.8334,-1.8017,-1.7573,-1.7009,-1.6457,-1.6243,-1.626,-1.6579,-1.6775,-1.6757,-1.6742,-1.6491,-1.6087,-1.6131,-1.5735,-1.5232,-1.5406,-1.5346,-1.5327,-1.5517,-1.5642,-1.5658,0.0,0.0,0.0,0.0,0.0,0.0,0.0,0.0,0.0,0.0,0.0,0.0,0.0,0.0,0.0,0.0,0.0,0.0,0.0,0.0,0.0,-1.8777,-1.9554,-1.998,-2.0086,-1.9533,0.0,0.0,0.0,0.0,0.0,-1.9324,-1.9594,0.0,0.0,0.0,0.0,0.0,0.0,-1.478,-1.4245,0.0,0.0,-1.5034,-1.5211,-1.5481,-1.5077,-1.4963,-1.4975,-1.4975,-1.5269,-1.5594,-1.535,0.0,0.0,0.0,-1.5036,0.0,0.0,0.0,0.0,0.0,0.0,0.0,0.0,0.0,0.0,0.0,0.0,0.0,0.0,0.0,0.0,0.0,0.0,0.0,0.0,0.0,0.0,0.0,0.0,0.0,0.0,0.0,0.0,0.0,0.0,-2.0688,-1.9659,-1.9625,-1.9205,-1.8269,-1.8178,-1.8016,-1.7785,-1.7658,-1.727,-1.6674,-1.6372,-1.6257,-1.6336,-1.6792,-1.6929,-1.6936,-1.6876,-1.6691,-1.6351,-1.6102,-1.5791,-1.5371,-1.5314,-1.5307,-1.5284,-1.5906,-1.5955,-1.5761,0.0,0.0,0.0,0.0,0.0,0.0,0.0,0.0,0.0,0.0,0.0,0.0,0.0,0.0,0.0,0.0,0.0,0.0,0.0,0.0,0.0,-1.8506,-1.8977,-1.9298,-1.9424,0.0,0.0,0.0,0.0,0.0,-1.9223,-1.9565,-2.0322,0.0,-1.9777,0.0,0.0,0.0,0.0,0.0,0.0,0.0,0.0,0.0,-1.5922,-1.6317,-1.5463,-1.512,-1.4973,-1.4737,-1.4952,-1.527,-1.4942,-1.5099,0.0,0.0,0.0,0.0,0.0,0.0,0.0,0.0,0.0,0.0,0.0,0.0,0.0,0.0,0.0,0.0,0.0,0.0,0.0,0.0,0.0,0.0,0.0,0.0,0.0,0.0,0.0,0.0,0.0,0.0,0.0,0.0,0.0,-2.056,-1.9435,-1.9389,-1.8874,-1.7844,-1.781,-1.7656,-1.7379,-1.7334,-1.7054,-1.6488,-1.6545,-1.6598,-1.6638,-1.6959,-1.7032,-1.6919,-1.7039,-1.6899,-1.6542,-1.6245,-1.5874,-1.5584,-1.5455,-1.5367,-1.5279,-1.622,-1.6207,-1.5891,0.0,0.0,0.0,0.0,0.0,0.0,0.0,0.0,0.0,0.0,0.0,0.0,-1.4858,-1.4846,-1.473,-1.4627,0.0,0.0,0.0,0.0,0.0,-1.7719,-1.8226,0.0,-1.8485,0.0,0.0,0.0,0.0,0.0,-1.9223,-1.9243,-2.0252,-2.2036,-2.0939,-1.9101,-1.6668,0.0,0.0,0.0,0.0,0.0,0.0,0.0,0.0,0.0,0.0,0.0,-1.5515,-1.4635,-1.4645,-1.5028,-1.5007,-1.4718,-1.4376,0.0,0.0,0.0,0.0,0.0,0.0,0.0,0.0,0.0,0.0,0.0,0.0,0.0,0.0,0.0,0.0,0.0,0.0,0.0,0.0,0.0,0.0,0.0,0.0,0.0,0.0,0.0,0.0,0.0,0.0,0.0,0.0,-1.9901,-1.9362,-1.9326,-1.8913,-1.8107,-1.8084,-1.792,-1.7656,-1.7434,-1.7099,-1.6761,-1.7011,-1.7124,-1.6997,-1.7257,-1.7222,-1.6987,-1.7312,-1.7107,-1.6639,-1.6804,-1.6393,-1.5769,-1.5981,-1.5671,-1.5325,-1.608,-1.6131,-1.5928,0.0,0.0,0.0,0.0,0.0,0.0,0.0,0.0,0.0,0.0,0.0,0.0,0.0,-1.4926,-1.4846,-1.473,-1.5105,0.0,0.0,0.0,0.0,-1.7996,-1.8459,-1.8849,-1.9144,0.0,0.0,0.0,0.0,-1.6958,-1.7777,-1.8414,-1.8875,-1.9322,-1.9646,-1.9247,-1.8089,-1.6301,0.0,0.0,0.0,0.0,0.0,0.0,0.0,0.0,0.0,0.0,0.0,0.0,0.0,-1.539,-1.5206,-1.4789,-1.4349,-1.38,-1.3506,0.0,0.0,0.0,0.0,0.0,0.0,0.0,0.0,0.0,0.0,0.0,0.0,0.0,0.0,0.0,0.0,0.0,0.0,0.0,0.0,0.0,0.0,0.0,0.0,0.0,0.0,0.0,0.0,0.0,0.0,0.0,-1.9865,-1.9467,-1.9045,-1.8422,-1.8398,-1.8302,-1.7986,-1.7711,-1.7434,-1.7099,-1.7081,-1.6984,-1.6911,-1.7067,-1.7022,-1.6829,-1.7217,-1.7044,-1.6523,-1.6806,-1.6545,-1.6017,-1.6085,-1.5908,-1.5689,-1.6289,-1.6329,-1.6193,0.0,0.0,0.0,0.0,0.0,0.0,0.0,0.0,0.0,0.0,0.0,0.0,0.0,0.0,-1.5398,-1.5456,-1.595,-1.6267,-1.6362,-1.6981,-1.7536,-1.7945,-1.8413,-1.8807,0.0,0.0,0.0,0.0,0.0,0.0,0.0,-1.7686,-1.7905,-1.8103,-1.8338,-1.8516,0.0,0.0,0.0,-1.6208,0.0,0.0,-1.767,0.0,0.0,0.0,0.0,0.0,0.0,0.0,0.0,0.0,0.0,-1.4858,-1.3989,-1.3307,-1.318,0.0,0.0,0.0,0.0,0.0,0.0,0.0,0.0,0.0,0.0,0.0,0.0,0.0,0.0,0.0,0.0,0.0,0.0,0.0,0.0,0.0,0.0,0.0,0.0,0.0,0.0,0.0,0.0,0.0,0.0,0.0,-2.0163,-1.9805,-1.9321,-1.8732,-1.8667,-1.8452,-1.8084,-1.792,-1.7656,-1.7379,-1.7245,-1.7078,-1.6864,-1.6953,-1.6857,-1.6614,-1.7136,-1.7021,-1.6589,-1.6803,-1.6621,-1.6263,-1.6202,-1.607,-1.6052,-1.6578,-1.6607,-1.6465,0.0,0.0,0.0,0.0,0.0,0.0,0.0,0.0,0.0,-1.5414,0.0,0.0,0.0,0.0,0.0,-1.6824,-1.7268,-1.7357,-1.7078,-1.7022,-1.718,-1.7499,0.0,0.0,0.0,0.0,0.0,0.0,0.0,0.0,0.0,0.0,-1.7391,0.0,-1.7313,-1.6884,-1.7248,0.0,-1.7179,-1.685,0.0,-1.7781,-1.8105,0.0,0.0,0.0,-2.0272,-1.9799,0.0,-1.8518,0.0,0.0,0.0,0.0,0.0,0.0,0.0,0.0,0.0,0.0,0.0,0.0,0.0,0.0,0.0,0.0,0.0,0.0,0.0,0.0,0.0,0.0,0.0,0.0,0.0,0.0,0.0,0.0,0.0,0.0,0.0,0.0,0.0,0.0,0.0,0.0,0.0,-2.0822,-2.0202,-2.0153,-1.9799,-1.9011,-1.8774,-1.8452,-1.8139,-1.8084,-1.792,-1.7523,-1.7534,-1.7357,-1.7011,-1.7011,-1.6807,-1.6446,-1.7134,-1.7199,-1.6807,-1.688,-1.683,-1.6603,-1.6412,-1.6342,-1.6395,-1.6991,-1.6955,-1.6727,0.0,0.0,0.0,0.0,0.0,0.0,0.0,0.0,-1.6172,0.0,0.0,0.0,-1.6612,-1.6803,-1.7277,-1.8092,-1.7779,-1.7679,-1.8034,-1.7611,-1.7577,-1.8107,-1.8674,0.0,0.0,0.0,0.0,0.0,0.0,0.0,0.0,0.0,0.0,0.0,-1.617,-1.5774,-1.556,-1.5239,0.0,0.0,-1.6157,-1.7102,0.0,0.0,0.0,0.0,0.0,-2.0485,-2.0167,0.0,-1.9619,-1.8251,0.0,0.0,0.0,0.0,0.0,0.0,-1.343,0.0,0.0,0.0,0.0,0.0,0.0,0.0,0.0,0.0,0.0,0.0,0.0,0.0,0.0,0.0,0.0,0.0,0.0,0.0,0.0,0.0,0.0,0.0,0.0,0.0,0.0,0.0,-2.1015,-2.0809,-2.0202,-1.9756,-1.9368,-1.917,-1.8893,-1.8625,-1.8452,-1.8247,-1.803,-1.7799,-1.77,-1.7534,-1.7357,-1.7256,-1.7237,-1.7185,-1.7471,-1.761,-1.7599,-1.7475,-1.7235,-1.683,-1.6769,-1.6551,-1.636,-1.6668,-1.6702,-1.6691,0.0,0.0,0.0,0.0,0.0,0.0,0.0,0.0,-1.7502,0.0,0.0,0.0,-1.8271,-1.8918,-1.9481,-1.9894,-1.9343,-1.8955,-1.9104,-1.8337,-1.798,-1.8115,-1.8596,-1.8929,0.0,0.0,0.0,0.0,0.0,0.0,0.0,0.0,0.0,0.0,0.0,0.0,0.0,0.0,0.0,0.0,-1.6411,0.0,0.0,-1.9882,-2.0687,0.0,0.0,0.0,-2.1596,-2.2007,-2.1011,0.0,0.0,0.0,0.0,0.0,0.0,0.0,0.0,0.0,0.0,0.0,0.0,0.0,0.0,-1.3942,0.0,0.0,0.0,0.0,0.0,0.0,0.0,0.0,0.0,0.0,0.0,0.0,0.0,0.0,0.0,0.0,0.0,0.0,0.0,-2.0897,-2.1043,-2.0921,-2.0419,-1.9674,-1.9275,-1.9275,-1.8999,-1.8786,-1.8614,-1.841,-1.8182,-1.7897,-1.7799,-1.7689,-1.7479,-1.7644,-1.7669,-1.7621,-1.7915,-1.8027,-1.7991,-1.7947,-1.7647,-1.7116,-1.7047,-1.683,-1.6551,-1.6691,-1.6751,-1.689,0.0,0.0,0.0,0.0,0.0,0.0,0.0,0.0,0.0,0.0,-1.9613,-1.9924,-2.0938,-2.1777,-2.2182,-2.1966,-2.1331,-2.0687,-2.0053,-1.9095,-1.8283,-1.7789,-1.8216,-1.8474,-1.8417,0.0,0.0,0.0,0.0,0.0,0.0,0.0,0.0,0.0,0.0,0.0,0.0,0.0,0.0,-1.5437,-1.731,-1.8596,0.0,0.0,-2.2024,0.0,-2.2983,-2.3112,-2.2988,-2.3105,-2.1904,0.0,0.0,0.0,0.0,0.0,-1.4654,0.0,0.0,0.0,0.0,0.0,0.0,0.0,-1.4177,-1.4252,-1.4499,0.0,0.0,0.0,0.0,0.0,0.0,0.0,0.0,0.0,0.0,0.0,0.0,0.0,0.0,0.0,0.0,0.0,-2.0824,-2.0871,-2.1027,-2.0994,-2.0602,-1.9837,-1.9368,-1.9368,-1.9105,-1.8881,-1.8614,-1.8614,-1.8344,-1.7909,-1.7909,-1.7822,-1.7623,-1.8067,-1.8159,-1.8019,-1.8416,-1.8477,-1.8236,-1.8312,-1.8008,-1.747,-1.7314,-1.7107,-1.6978,-1.6908,-1.7038,-1.7245,-2.1217,0.0,0.0,0.0,0.0,0.0,0.0,0.0,0.0,0.0,-2.0452,-2.1299,-2.3179,-2.2815,-2.2768,-2.3477,-2.2255,-2.114,-2.0569,-1.9459,-1.8554,-1.8052,-1.8509,-1.8714,-1.8543,-1.8985,0.0,0.0,0.0,0.0,0.0,0.0,0.0,0.0,0.0,0.0,0.0,0.0,0.0,-1.5118,-1.5789,0.0,-2.0378,-2.0419,-2.1396,-2.2741,-2.2706,-2.3045,-2.3346,0.0,-2.1508,-2.0314,0.0,0.0,0.0,0.0,0.0,0.0,0.0,0.0,0.0,0.0,0.0,0.0,-1.4053,-1.4001,-1.4293,0.0,0.0,0.0,0.0,0.0,0.0,0.0,0.0,0.0,0.0,0.0,0.0,0.0,0.0,0.0,0.0,0.0,-2.0853,-1.9949,-2.0032,-1.9982,-1.983,-1.9574,-1.9368,-1.9223,-1.8958,-1.8732,-1.8614,-1.8464,-1.8302,-1.8084,-1.8084,-1.8191,-1.8487,-1.8384,-1.8629,-1.9084,-1.8892,-1.8922,-1.9017,-1.8643,-1.8134,-1.7647,-1.7529,-1.7401,-1.7332,-1.7176,-1.7245,-1.7461,-2.143,0.0,0.0,0.0,0.0,0.0,0.0,0.0,0.0,0.0,0.0,0.0,-2.4103,-2.4117,-2.4224,-2.4355,-2.3358,-2.2367,-2.1481,-2.0398,-1.9425,-1.8552,-1.8517,-1.8462,-1.835,-1.8589,0.0,0.0,0.0,0.0,0.0,0.0,0.0,0.0,0.0,0.0,0.0,0.0,-1.4536,-1.5555,-1.645,0.0,-2.1012,-2.1263,-2.2287,-2.3523,-2.3295,-2.3295,-2.3116,-2.1812,-2.1127,0.0,0.0,-1.8857,-1.8736,0.0,-1.7395,-1.7387,0.0,0.0,0.0,-1.6525,0.0,0.0,0.0,-1.4785,0.0,0.0,0.0,0.0,0.0,0.0,0.0,0.0,0.0,0.0,0.0,0.0,0.0,0.0,0.0,0.0,0.0,0.0,-2.0118,-1.9654,-1.9656,-1.9656,-1.9617,-1.942,-1.9397,-1.957,-1.9287,-1.9187,-1.9336,-1.9235,-1.9078,-1.8919,-1.8783,-1.8851,-1.9054,-1.8985,-1.9122,-1.9367,-1.9276,-1.9186,-1.9008,-1.8741,-1.8405,-1.7988,-1.7716,-1.7529,-1.747,-1.7392,-1.7529,-1.7735,-2.1468,0.0,0.0,0.0,0.0,0.0,0.0,0.0,0.0,0.0,0.0,0.0,0.0,0.0,0.0,0.0,0.0,-2.4107,0.0,0.0,0.0,-1.9483,-1.8815,-1.8437,-1.8426,-1.8334,-1.8187,0.0,0.0,0.0,0.0,0.0,0.0,0.0,0.0,0.0,0.0,0.0,0.0,-1.6738,0.0,-1.9206,-2.0699,-2.1812,-2.288,-2.3787,-2.3754,-2.3376,-2.2592,-2.1345,0.0,-2.0648,-1.9576,-1.9326,0.0,0.0,0.0,0.0,0.0,0.0,0.0,0.0,0.0,-1.763,0.0,0.0,0.0,0.0,0.0,0.0,0.0,0.0,0.0,0.0,0.0,0.0,0.0,0.0,0.0,0.0,0.0,0.0,0.0,0.0,-1.95,-1.9902,-1.9629,-1.954,-1.9809,-1.9536,-1.9582,-2.0116,-1.9825,-1.9847,-2.017,-2.0006,-1.9854,-1.9748,-1.9547,-1.9522,-1.9565,-1.9555,-1.9552,-1.9497,-1.9479,-1.9257,-1.8875,-1.8808,-1.8607,-1.8337,-1.792,-1.7725,-1.7666,-1.7598,-1.7735,-1.8086,-2.1393,-2.1142,0.0,0.0,0.0,0.0,0.0,0.0,0.0,0.0,0.0,0.0,0.0,0.0,0.0,0.0,0.0,0.0,-2.5516,0.0,0.0,0.0,-2.0297,-1.9715,-1.9692,-1.908,-1.8598,0.0,0.0,0.0,0.0,0.0,0.0,0.0,-1.6253,0.0,0.0,0.0,-1.7185,0.0,-1.8931,-1.8678,0.0,-2.0113,-2.1307,-2.2306,-2.3132,-2.2696,-2.1664,0.0,-2.0671,-2.0259,0.0,-1.9124,0.0,0.0,0.0,0.0,0.0,0.0,0.0,0.0,-1.846,0.0,0.0,0.0,0.0,0.0,0.0,0.0,0.0,0.0,0.0,0.0,0.0,0.0,0.0,0.0,0.0,0.0,0.0,0.0,0.0,0.0,-1.9569,-2.089,-1.9716,-1.9426,-2.0616,-2.0195,-2.0072,-2.0514,-2.049,-2.0457,-2.0355,-2.0181,-2.0006,-1.9901,-1.9736,-1.9798,-2.0086,-1.9508,-1.9543,-1.9998,-1.9254,-1.9093,-1.9218,-1.8942,-1.8808,-1.8674,-1.8144,-1.8076,-1.8134,-1.7784,-1.792,-1.8329,-2.0903,-2.0869,0.0,0.0,0.0,0.0,0.0,0.0,0.0,0.0,0.0,0.0,0.0,0.0,0.0,0.0,0.0,-2.7603,0.0,0.0,0.0,0.0,0.0,0.0,-2.0077,-1.9504,-1.8934,-1.841,-1.841,0.0,0.0,0.0,0.0,0.0,-1.679,0.0,-1.8937,0.0,0.0,0.0,0.0,0.0,0.0,-2.0584,-2.1996,-2.2386,-2.2513,-2.2216,-2.167,0.0,-2.0339,0.0,0.0,0.0,0.0,0.0,0.0,0.0,0.0,0.0,0.0,0.0,0.0,0.0,-1.6723,0.0,-1.68,0.0,0.0,0.0,0.0,0.0,0.0,0.0,0.0,0.0,0.0,0.0,0.0,0.0,0.0,0.0,0.0,0.0,0.0,0.0,0.0,-1.8843,-2.0557,-2.0134,-2.029,-2.1148,-2.0996,-2.0962,-2.1162,-2.0956,-2.0761,-2.0661,-2.0426,-2.0415,-2.0597,-2.0006,-1.9874,-2.0085,-1.9641,-1.9424,-1.9285,-1.9142,-1.9008,-1.8942,-1.8741,-1.8539,-1.8414,-1.8202,-1.8496,-1.9021,-2.0445,0.0,0.0,0.0,0.0,0.0,0.0,0.0,0.0,0.0,0.0,0.0,-2.8017,-2.8631,0.0,0.0,0.0,-2.9232,0.0,0.0,-2.504,0.0,0.0,0.0,0.0,0.0,-1.9465,-1.8838,0.0,0.0,0.0,0.0,0.0,0.0,0.0,-1.8491,-2.0379,0.0,0.0,-1.9114,-1.9023,-1.869,-1.8563,-2.1089,-2.22,-2.2292,-2.2007,-2.1835,-2.1647,-2.0772,-2.0243,0.0,-2.0286,0.0,0.0,0.0,0.0,0.0,-1.7259,0.0,0.0,0.0,0.0,0.0,0.0,0.0,0.0,0.0,0.0,0.0,0.0,0.0,0.0,0.0,0.0,0.0,0.0,0.0,0.0,0.0,0.0,0.0,0.0,0.0,0.0,0.0,-1.8179,-1.8583,-2.0699,-2.0317,-2.0619,-2.1837,-2.1559,-2.1687,-2.2174,-2.1741,-2.1481,-2.1568,-2.1047,-2.085,-2.0839,-2.032,-2.0062,-2.0042,-1.9792,-1.9553,-1.9351,-1.9351,-1.9341,-1.9208,-1.9208,-1.9008,-1.8808,-1.8617,-1.8954,-1.9387,-2.0121,-2.0503,0.0,0.0,0.0,0.0,0.0,0.0,0.0,0.0,0.0,0.0,0.0,0.0,0.0,0.0,0.0,-3.1336,-3.0759,0.0,-2.6788,0.0,0.0,-2.3411,0.0,0.0,0.0,0.0,0.0,0.0,0.0,0.0,0.0,0.0,0.0,-1.9112,-2.01,-1.9422,-2.0178,-2.1766,-2.1261,-2.164,-2.234,0.0,-2.0904,-2.1504,-2.1809,0.0,0.0,-2.083,-2.0656,0.0,0.0,0.0,0.0,0.0,0.0,0.0,0.0,0.0,0.0,-1.7252,0.0,0.0,0.0,0.0,-1.6633,0.0,0.0,0.0,0.0,0.0,0.0,-1.7448,0.0,0.0,0.0,0.0,0.0,0.0,0.0,0.0,0.0,0.0,0.0,-1.9467,-1.845,-1.8875,-2.1435,-2.0921,-2.1248,-2.2614,-2.2363,-2.2603,-2.3423,-2.2256,-2.1945,-2.2439,-2.1603,-2.1042,-2.0722,-2.0142,-1.9924,-1.9911,-1.9404,-1.934,-1.9605,-1.9605,-1.9605,-1.9539,-1.9341,-1.9407,-1.9473,-1.9008,-1.8952,-1.9158,0.0,0.0,0.0,0.0,0.0,0.0,0.0,-2.1748,0.0,0.0,0.0,0.0,0.0,0.0,-3.1901,0.0,0.0,-3.1685,-3.0434,-2.9184,0.0,0.0,0.0,-2.5073,0.0,0.0,0.0,0.0,0.0,0.0,0.0,0.0,0.0,0.0,0.0,-1.8776,0.0,0.0,0.0,0.0,0.0,-2.0997,-2.2088,0.0,0.0,-2.1376,-2.1037,-2.0989,0.0,-2.0379,-1.9983,-1.9807,-1.9968,-1.9681,-1.9207,-1.8839,-1.8614,0.0,0.0,0.0,-1.8348,-1.6941,0.0,0.0,0.0,0.0,0.0,0.0,0.0,0.0,0.0,0.0,-1.8766,-1.8597,-1.7385,0.0,0.0,0.0,0.0,0.0,0.0,0.0,0.0,0.0,0.0,-1.8411,-1.7663,-1.824,0.0,-2.0787,-2.1066,-2.1848,-2.2101,-2.2166,-2.2104,-2.1863,-2.1654,-2.1614,-2.1186,-2.0914,-2.0658,-2.0351,-2.018,-1.9998,-1.9846,-1.9868,-1.9944,-1.9922,-1.9857,-1.9802,-1.9791,-1.9726,-1.9539,-1.9285,-1.9473,-1.9891,-2.108,0.0,0.0,0.0,0.0,0.0,0.0,0.0,0.0,0.0,-2.7508,0.0,-3.1343,0.0,-3.2286,0.0,-3.2949,-3.2156,-3.0616,-3.0024,0.0,-2.8546,-2.7332,0.0,0.0,0.0,0.0,0.0,0.0,-2.0526,0.0,0.0,0.0,0.0,0.0,0.0,0.0,0.0,-1.9817,0.0,0.0,-2.0905,0.0,0.0,-2.1348,-2.1428,0.0,-2.093,-2.09,-2.0463,-2.0053,-1.9686,-1.9999,-1.9793,-1.934,-1.8959,-1.8773,-1.8498,-1.7704,-1.8013,0.0,-1.7051,-1.7363,0.0,-1.6584,0.0,0.0,0.0,0.0,0.0,0.0,0.0,0.0,-1.9206,-1.7885,-1.6584,0.0,-1.5048,0.0,0.0,0.0,0.0,0.0,0.0,-1.6249,-1.783,-1.7384,-1.7971,0.0,0.0,-2.073,-2.1535,-2.1764,-2.1913,-2.2128,-2.1875,-2.1717,-2.1638,-2.125,-2.0903,-2.0786,-2.0658,-2.0464,-2.0281,-2.0281,-2.0281,-2.0335,-2.0324,-2.0248,-2.0205,-2.0107,-1.9987,-1.9878,-1.9615,-1.973,-2.0062,0.0,0.0,0.0,0.0,-2.1891,0.0,0.0,0.0,-2.5642,0.0,-2.7841,-2.9332,-3.1392,-3.165,-3.2265,-3.3752,-3.342,0.0,-3.1223,-3.0651,0.0,0.0,-2.8053,-2.7524,-2.7019,0.0,0.0,0.0,0.0,0.0,0.0,0.0,0.0,0.0,-1.8768,0.0,-1.9244,-1.9657,-2.0363,-2.1187,-2.1187,-2.1433,-2.1835,-2.1522,-2.1537,-2.1698,-2.1675,-2.1384,-2.1044,-2.1021,-2.0641,-2.0165,-1.9833,-2.0105,-2.0334,-1.93,-1.9348,-1.9516,-1.8518,-1.8241,-1.8109,-1.758,0.0,0.0,0.0,0.0,-1.8253,0.0,0.0,0.0,0.0,0.0,0.0,-1.9356,-1.8511,-1.7206,-1.5107,0.0,0.0,0.0,0.0,0.0,0.0,-1.6685,-1.6789,-1.7687,-1.7666,0.0,0.0,0.0,-2.0237,-2.1758,-2.1439,-2.1916,-2.3352,-2.2232,-2.1945,-2.2427,-2.1591,-2.1094,-2.0903,-2.0903,-2.085,-2.0733,-2.0669,-2.0669,-2.0669,-2.0733,-2.0733,-2.0669,-2.0313,-2.0248,-2.041,-2.0074,-1.9802,-1.9671,-2.0887,-2.1632,-2.2464,0.0,-2.2153,-2.2188,0.0,0.0,0.0,0.0,-2.9858,-3.0902,-3.2277,-3.2423,-3.232,-3.1942,-3.1622,0.0,0.0,0.0,0.0,-2.9677,-2.8799,-2.8246,-2.8114,-2.6659,0.0,-2.4506,0.0,0.0,-2.0947,0.0,0.0,0.0,0.0,0.0,-1.8231,-1.8748,-1.9668,-2.0769,-2.0769,-2.1019,0.0,0.0,-2.1537,-2.1651,-2.124,-2.095,-2.0638,-2.0175,-1.9674,-1.9318,-1.9227,-1.93,-1.936,-1.9071,-1.9083,-1.9131,-1.8867,-1.8782,-1.8662,-1.8133,-1.8001,-1.7893,0.0,0.0,0.0,0.0,0.0,0.0,0.0,0.0,0.0,0.0,0.0,0.0,0.0,0.0,0.0,-1.6454,0.0,0.0,-1.5911,-1.6453,-1.6992,-1.7322,-1.7577,0.0,0.0,0.0,0.0,-2.0072,-2.0925,-2.1342,-2.135,-2.1565,-2.1631,-2.1557,-2.129,-2.1158,-2.1094,-2.0967,-2.0903,-2.0839,-2.0733,-2.0669,-2.0733,-2.0786,-2.0786,-2.0669,-2.0711,-2.0711,-2.0711,-2.0205,-1.9998,-1.9977,-2.1308,0.0,0.0,-2.3616,0.0,0.0,-2.5056,0.0,0.0,-2.9195,-3.0201,0.0,-3.1484,-3.1773,-3.1663,-3.1064,-3.0943,0.0,0.0,0.0,0.0,-2.94,-2.9051,-2.8751,-2.8522,-2.7392,0.0,-2.4963,0.0,0.0,-2.0322,0.0,0.0,0.0,0.0,-1.7716,0.0,-1.8885,-1.9621,-2.0259,-2.054,0.0,0.0,-2.1336,-2.1463,-2.1542,-2.1148,-2.0807,-2.0538,-1.9861,-1.9377,-1.8987,-1.8987,-1.8987,-1.8987,-1.8987,-1.8987,-1.8987,-1.8987,-1.8987,-1.8975,-1.8915,-1.8891,-1.8879,-1.8819,-1.9275,-1.9793,0.0,0.0,0.0,0.0,0.0,0.0,0.0,0.0,0.0,0.0,0.0,0.0,0.0,0.0,0.0,-1.5831,-1.6552,-1.6992,-1.6789,0.0,0.0,0.0,0.0,0.0,-1.9365,-2.0433,-2.0866,-2.0618,-2.1322,-2.1518,-2.1148,-2.1244,-2.1232,-2.1086,-2.1192,-2.1043,-2.0774,-2.1014,-2.1053,-2.0914,-2.1083,-2.1031,-2.0914,-2.0967,-2.1031,-2.0967,-2.0722,-2.0582,-2.0635,0.0,0.0,0.0,0.0,0.0,0.0,0.0,-2.7348,0.0,-2.9094,0.0,-3.0295,-3.004,-3.0446,-3.0704,-3.0642,0.0,-3.0315,-2.9533,-2.9922,-2.9625,-2.8546,-2.8955,-2.8979,-2.8522,-2.7849,0.0,0.0,0.0,0.0,0.0,0.0,0.0,0.0,0.0,0.0,0.0,-1.9353,-1.9866,0.0,-2.0354,-2.0827,-2.1221,-2.1336,-2.14,-2.1404,-2.1148,-2.0878,-2.0469,-1.9961,-1.942,-1.8987,-1.8987,-1.8987,-1.8987,-1.8987,-1.9035,-1.9095,-1.9095,-1.9143,-1.9312,-1.978,-1.9889,-2.0021,-2.0502,-2.0658,-2.0718,-2.0718,-2.0779,-2.0959,0.0,0.0,0.0,0.0,0.0,0.0,0.0,0.0,0.0,0.0,0.0,0.0,0.0,-1.6905,0.0,0.0,0.0,0.0,0.0,0.0,0.0,-1.9049,-1.9941,0.0,-2.0553,0.0,-2.149,-2.1092,-2.121,-2.1152,-2.0853,-2.1275,-2.1167,-2.0612,-2.1225,-2.1397,-2.1192,-2.1295,-2.1279,-2.1221,-2.1296,-2.1296,-2.1285,-2.1348,-2.1348,-2.1348,0.0,0.0,0.0,0.0,0.0,-2.6334,-2.7939,-2.811,-2.8423,-2.9579,-3.0086,-3.0345,-3.0333,-3.0276,-3.0072,-2.9637,-2.96,0.0,0.0,0.0,0.0,-2.8522,-2.8595,-2.8607,-2.851,-2.7115,-2.5985,0.0,0.0,0.0,0.0,0.0,0.0,0.0,0.0,0.0,-1.8178,-1.8454,0.0,-2.0216,-2.0205,-2.0684,-2.1336,-2.1285,-2.1423,-2.1553,-2.1087,-2.0665,-2.0306,-1.9905,-1.942,-1.8987,-1.8987,-1.8987,-1.8987,-1.8987,-1.93,-1.9636,-1.9636,-1.9973,-2.0358,-2.0454,-2.0466,-2.049,-2.0562,-2.0935,-2.126,-2.126,-2.1608,-2.1945,-2.2041,0.0,0.0,0.0,0.0,0.0,0.0,0.0,0.0,0.0,0.0,0.0,0.0,0.0,0.0,0.0,0.0,0.0,0.0,0.0,0.0,0.0,0.0,0.0,0.0,0.0,-2.1428,-2.0948,-2.0787,-2.0614,-2.0404,-2.0405,-2.0394,-2.0346,-2.0476,-2.07,-2.0956,-2.0906,-2.109,-2.14,-2.1561,-2.1686,-2.18,-2.1937,-2.2111,-2.2161,0.0,0.0,0.0,0.0,0.0,0.0,0.0,-2.8373,0.0,-2.9521,-2.9351,-2.9156,-2.9008,-2.894,-2.8751,-2.8498,-2.8234,-2.7969,-2.7705,-2.7693,-2.7813,-2.8089,-2.8102,0.0,-2.8102,-2.7067,-2.5997,-2.4903,0.0,0.0,0.0,0.0,0.0,0.0,0.0,-1.7472,0.0,0.0,0.0,-1.9838,-2.0109,-2.0663,-2.125,-2.1109,-2.1241,-2.1444,-2.0818,-2.0487,-2.0248,-1.9893,-1.942,-1.8987,-1.8987,-1.8987,-1.8987,-1.8987,-1.9167,-1.9372,-1.9372,-1.9768,-2.0249,-2.0538,-2.0827,-2.1091,-2.1356,-2.162,-2.1813,-2.1813,-2.2017,-2.2101,-2.1837,-2.1127,0.0,0.0,0.0,0.0,0.0,0.0,0.0,0.0,0.0,0.0,0.0,0.0,0.0,0.0,0.0,0.0,0.0,0.0,0.0,0.0,0.0,0.0,0.0,0.0,0.0,-2.0748,-2.0818,-2.0594,-2.0052,-2.0282,-2.0201,-1.9939,-2.0306,-2.051,-2.0618,-2.0606,-2.0913,-2.1374,-2.1582,-2.1872,-2.2173,-2.2371,-2.2494,-2.2543,0.0,-2.548,0.0,0.0,-2.6731,0.0,-2.8366,-2.851,-2.8703,-2.9232,-2.8621,-2.8028,-2.7963,-2.7963,-2.7915,-2.7806,-2.7408,-2.7055,-2.6947,-2.6935,-2.7128,-2.7536,-2.756,-2.756,-2.756,-2.7031,-2.6021,0.0,0.0,0.0,0.0,0.0,0.0,0.0,0.0,0.0,0.0,0.0,-1.9634,-1.9592,-1.9989,-2.0488,-2.0977,-2.0815,-2.0909,-2.1082,-2.05,-2.0248,-2.0151,-1.9913,-1.942,-1.8987,-1.8987,-1.8915,-1.8819,-1.8819,-1.8903,-1.8987,-1.8987,-1.9456,-2.0057,-2.0502,-2.1007,-2.1488,-2.1777,-2.2029,-2.2161,-2.2053,-2.2029,-2.1861,-2.1332,-2.0863,0.0,0.0,0.0,0.0,0.0,0.0,0.0,0.0,0.0,0.0,0.0,0.0,0.0,0.0,0.0,0.0,0.0,0.0,0.0,0.0,0.0,-2.0621,-2.014,0.0,-2.1583,0.0,-2.1009,-2.0652,-1.9793,-2.0237,-2.0133,-1.9626,-2.0193,-2.0445,-2.0437,-2.0768,-2.1103,-2.138,-2.1692,-2.2116,-2.2482,-2.2678,-2.2739,-2.2739,0.0,0.0,0.0,0.0,0.0,0.0,0.0,-2.851,-2.8703,-2.9232,-2.8799,-2.8505,-2.8652,-2.8718,-2.8524,-2.8037,-2.7952,-2.7569,-2.6959,-2.6935,-2.6959,-2.7007,-2.7007,-2.7007,-2.7007,-2.6466,-2.5624,0.0,0.0,0.0,0.0,0.0,0.0,0.0,0.0,0.0,0.0,-1.9227,-1.9636,-2.0445,-1.9797,-1.9906,-2.0346,-2.0252,-2.0264,-2.0392,-2.0297,-2.0079,-1.9841,-1.9793,-1.942,-1.8987,-1.8987,-1.8662,-1.8277,-1.8277,-1.8614,-1.8987,-1.8987,-1.9756,-2.055,-2.0598,-2.1007,-2.1284,-2.0827,-2.1476,-2.2053,-2.1584,-2.1476,-2.132,-2.0791,-2.0622,-2.0306,0.0,0.0,0.0,0.0,0.0,0.0,0.0,0.0,0.0,0.0,0.0,0.0,0.0,0.0,0.0,0.0,0.0,0.0,-1.8685,0.0,-2.0905,-2.0754,-2.1693,0.0,-2.1332,-2.1188,-2.0652,-1.978,-1.9829,-1.9829,-1.978,-1.9963,-2.0322,-2.0843,-2.1813,-2.1959,-2.1607,-2.2347,-2.2641,-2.2678,-2.286,-2.2848,-2.2909,0.0,0.0,0.0,0.0,0.0,0.0,0.0,-2.851,-2.8595,-2.8799,-2.8643,-2.851,-2.8578,-2.8433,-2.8232,-2.8013,-2.7492,-2.7115,-2.6834,-2.6445,-2.6408,-2.6736,-2.6749,-2.6749,-2.6749,-2.6445,-2.5731,0.0,0.0,0.0,0.0,0.0,0.0,0.0,0.0,-1.9564,-2.0273,-2.0057,-2.0145,-2.0366,-1.9873,-1.9868,-2.0122,-1.9885,-2.0013,-2.0284,-1.9975,-1.9849,-1.9732,-1.942,-1.9167,-1.8987,-1.8987,-1.8843,-1.8614,-1.8289,-1.835,-1.8446,-1.8133,-1.8831,-1.9648,-1.977,-2.0354,-2.0863,-2.0622,-2.0923,-2.1187,-2.0842,-2.1116,-2.1235,-2.0682,-2.0574,-2.0499,0.0,0.0,0.0,0.0,0.0,0.0,0.0,0.0,0.0,0.0,0.0,0.0,0.0,0.0,0.0,0.0,0.0,0.0,-1.785,0.0,-2.0767,-2.0072,-2.1357,-2.1508,-2.0669,-2.1267,-2.1058,-2.0068,-2.0409,-2.0499,-2.0443,-2.0667,-2.079,-2.0852,-2.1568,-2.1802,-2.1748,-2.2278,-2.2623,-2.286,-2.2969,-2.309,-2.321,-2.6791,0.0,-2.7152,0.0,-2.7957,-2.8077,-2.845,-2.851,-2.851,-2.851,-2.851,-2.851,-2.8578,-2.8251,-2.8001,-2.8078,-2.7262,-2.6709,-2.6709,-2.6205,-2.6082,-2.6463,-2.6404,0.0,-2.6404,-2.6177,-2.5729,-2.4966,-2.3935,0.0,0.0,0.0,0.0,0.0,-2.0261,-2.0562,-2.1067,-2.0911,-2.0684,-2.0354,-1.9941,-1.9801,-1.9731,-1.9531,-1.9614,-1.9877,-1.9531,-1.9497,-1.9492,-1.9119,-1.8987,-1.8987,-1.8987,-1.8879,-1.8686,-1.8313,-1.8205,-1.8121,-1.7748,-1.8193,-1.8811,-1.8875,-1.9402,-1.9853,-1.9684,-2.0021,-2.0361,-2.0389,-2.0782,-2.0936,-2.0385,-2.0213,-2.0113,-2.0036,0.0,0.0,0.0,0.0,0.0,0.0,0.0,-1.7782,-1.7226,0.0,0.0,0.0,0.0,0.0,0.0,0.0,0.0,0.0,0.0,0.0,0.0,-2.1218,-2.1445,-2.0588,-2.1424,-2.1289,-2.0298,-2.0809,-2.1084,-2.1141,-2.1519,-2.1494,-2.1244,-2.1736,-2.1993,-2.1972,-2.2485,-2.2799,-2.303,-2.3198,-2.333,-2.3463,-2.6719,-2.6935,-2.7272,-2.8318,-2.8498,-2.8498,-2.851,-2.851,-2.851,-2.851,-2.851,-2.8578,-2.8803,-2.8317,-2.8078,-2.8243,-2.7336,-2.6709,-2.6709,-2.6205,-2.591,0.0,0.0,-2.5618,-2.5618,-2.5394,-2.5312,-2.53,0.0,0.0,-2.2931,0.0,-2.0887,-2.138,-2.138,-2.168,-2.2137,-2.162,-2.1091,-2.0562,-2.0009,-1.9468,-1.9011,-1.8999,-1.8999,-1.9011,-1.8999,-1.8999,-1.8999,-1.8987,-1.8987,-1.8987,-1.8987,-1.8638,-1.8205,-1.8205,-1.8205,-1.8205,-1.8193,-1.8205,-1.8205,-1.8205,-1.8217,-1.8097,-1.7568,-1.8662,-1.9937,-2.0306,-2.0425,-2.027,-1.9678,-1.9263,-1.8948,-1.8682,0.0,0.0,0.0,0.0,0.0,0.0,-1.6417,-1.6333,-1.5781,0.0,0.0,0.0,0.0,0.0,0.0,0.0,0.0,-1.9761,-2.0891,0.0,-2.0611,-2.1599,-2.1873,-2.1381,-2.17,-2.1321,-2.0395,-2.0841,-2.1338,-2.1903,-2.2432,-2.2478,-2.2126,-2.284,-2.2799,-2.2359,-2.328,-2.3509,-2.3403,-2.3569,-2.3628,-2.3628,-2.637,-2.6959,-2.7572,-2.7909,-2.7669,-2.7681,-2.8402,-2.821,-2.8102,-2.8462,-2.851,-2.851,-2.8578,-2.8579,-2.8536,0.0,-2.8285,-2.7866,0.0,-2.7046,-2.6644,-2.6144,-2.605,-2.591,-2.5828,-2.5618,-2.5523,-2.5523,0.0,0.0,0.0,-2.2101,-2.1777,-2.1945,-2.1945,-2.2041,-2.2125,-2.1223,-2.0754,-2.0538,-1.9514,-1.8994,-1.8839,-1.8774,-1.8786,-1.8851,-1.8851,-1.8946,-1.8987,-1.8987,-1.8987,-1.8987,-1.8987,-1.8867,-1.8662,-1.8301,-1.8205,-1.8121,-1.776,-1.7664,-1.7664,-1.7751,-1.7701,-1.7616,-1.7448,-1.7996,-1.8505,-1.8366,-1.9234,-1.966,-1.8473,-1.8742,-1.904,-1.8657,-1.8559,0.0,0.0,0.0,0.0,0.0,0.0,-1.625,0.0,-1.6539,0.0,0.0,0.0,0.0,0.0,0.0,0.0,0.0,-2.081,0.0,-2.0217,-2.1357,-2.1488,-2.0574,-2.1807,-2.199,-2.1285,-2.1782,-2.2133,-2.2347,-2.2912,-2.3062,-2.2827,-2.3242,-2.3289,-2.309,-2.3636,-2.3772,-2.3772,-2.391,-2.391,-2.3982,-2.6129,-2.6647,-2.7176,-2.7392,-2.7152,-2.7152,-2.7813,-2.7813,-2.7837,-2.8174,-2.8378,-2.851,-2.851,-2.8578,0.0,-2.8803,-2.8353,-2.8101,-2.8127,-2.7678,-2.7229,-2.6834,-2.647,-2.6205,-2.6064,0.0,0.0,-2.5465,-2.4659,-2.3809,-2.2967,-2.2438,-2.2197,-2.2197,-2.2197,-2.2197,-2.2149,-2.1464,-2.102,-2.071,-1.9793,-1.9207,-1.8951,-1.875,-1.8744,-1.8798,-1.8851,-1.8946,-1.8987,-1.8987,-1.8999,-1.8946,-1.8999,-1.8999,-1.8874,-1.859,-1.8506,-1.8386,-1.7857,-1.7568,-1.7364,-1.7255,-1.7002,-1.6871,-1.7075,-1.723,-1.7383,-1.735,-1.8259,-1.8838,-1.8004,-1.821,-1.8639,-1.8955,-1.8351,-1.7861,-1.8001,0.0,0.0,0.0,0.0,0.0,0.0,-1.7112,0.0,0.0,0.0,0.0,0.0,0.0,0.0,-1.9648,-2.0949,0.0,-2.0423,-2.1151,-2.1155,-2.041,-2.1268,-2.1695,-2.1716,-2.2002,-2.2394,-2.287,-2.3179,-2.3271,-2.3305,-2.3326,-2.3308,-2.3249,-2.3612,-2.3715,-2.3754,-2.4053,-2.4203,-2.4274,-2.5997,-2.6093,0.0,0.0,-2.6875,0.0,-2.6923,-2.7356,-2.7681,-2.7717,-2.8186,-2.851,-2.851,-2.851,-2.8578,-2.8724,0.0,0.0,0.0,-2.7927,-2.7644,-2.7755,-2.6919,-2.6396,-2.6408,-2.566,-2.5312,-2.5312,-2.4278,-2.352,-2.3015,-2.2462,-2.2197,-2.2197,-2.2197,-2.2197,-2.2197,-2.2149,-2.1726,-2.1033,-2.0534,-1.9885,-1.9289,-1.8934,-1.8798,-1.8798,-1.8946,-1.8987,-1.8987,-1.8987,-1.8946,-1.8851,-1.8946,-1.8893,-1.8851,-1.8946,-1.8987,-1.8867,-1.835,-1.782,-1.7291,-1.6715,-1.6188,-1.5924,-1.6416,-1.6489,-1.6563,-1.7086,-1.7633,-1.8052,-1.8157,-1.7772,-1.7921,-1.9292,-1.7934,-1.6975,-1.7817,0.0,0.0,0.0,0.0,0.0,0.0,-1.7626,-1.8455,0.0,0.0,0.0,0.0,0.0,-2.0243,-2.0706,-2.1259,-2.1395,-2.1117,-2.1011,-2.0926,-2.083,-2.0462,-2.0808,-2.169,-2.163,-2.2223,-2.3339,-2.3245,-2.3318,-2.359,-2.3225,-2.3062,-2.3119,-2.3388,-2.3487,-2.3553,-2.4152,-2.4478,-2.462,0.0,0.0,-2.6274,-2.6839,-2.625,-2.5973,-2.6803,-2.7043,-2.7272,-2.7669,-2.8186,-2.851,-2.851,-2.851,-2.851,-2.8578,-2.8494,-2.837,-2.8166,-2.812,-2.7875,-2.7372,-2.6761,-2.6336,-2.6166,-2.5576,-2.5312,-2.5312,-2.4278,-2.3713,-2.3568,-2.263,-2.2197,-2.2197,-2.2197,-2.2197,-2.2161,-2.157,-2.1271,-2.1009,-1.9888,-1.9385,-1.9233,-1.8814,-1.8732,-1.8798,-1.8946,-1.8987,-1.8987,-1.8987,-1.8999,-1.8946,-1.8987,-1.8999,-1.8946,-1.8987,-1.8987,-1.8867,-1.835,-1.782,-1.7291,-1.6715,-1.6188,-1.5828,-1.5948,-1.6284,-1.6608,-1.6704,-1.7507,-1.8085,-1.7934,-1.813,-1.8314,-1.8387,-1.7991,-1.7597,-1.7405,-1.6896,0.0,0.0,-1.6502,-1.6961,-1.7727,-1.8513,-1.8852,0.0,0.0,0.0,0.0,-1.9808,-2.0502,-2.0985,-2.1546,-2.1626,-2.1275,-2.1315,-2.151,-2.1849,-2.1407,-2.1404,-2.1869,-2.2416,-2.2832,-2.3116,-2.3508,-2.3819,-2.3982,-2.391,-2.389,-2.4037,-2.4222,-2.4406,-2.4477,-2.4724,-2.4778,-2.4778,-2.5347,-2.5468,-2.5696,-2.6007,-2.5637,-2.5516,-2.6093,-2.6394,-2.6743,-2.7284,-2.7609,-2.7885,-2.8126,-2.815,-2.815,-2.815,-2.8433,-2.8603,-2.839,-2.8378,-2.8244,-2.794,-2.7124,-2.6564,-2.6478,-2.5709,-2.5192,-2.4939,-2.4157,-2.364,-2.3388,-2.257,-2.2197,-2.2197,-2.2197,-2.2197,-2.2173,-2.1689,-2.1448,-2.1254,-2.0252,-1.9878,-1.9866,-1.9206,-1.9034,-1.9173,-1.903,-1.8987,-1.8987,-1.8946,-1.8893,-1.8893,-1.8893,-1.8893,-1.8946,-1.8999,-1.8819,-1.8518,-1.7989,-1.7448,-1.6931,-1.6356,-1.6008,-1.5852,-1.6104,-1.638,-1.6644,-1.6931,-1.7448,-1.7882,-1.813,-1.8118,-1.813,-1.8313,-1.7797,-1.7272,-1.7069,-1.6608,0.0,-1.6697,-1.7105,-1.7685,-1.8493,-1.9107,-1.9346,-1.9043,0.0,0.0,-1.9251,-2.0206,-2.0836,-2.1104,-2.1358,-2.1465,-2.1315,-2.1199,-2.1276,-2.1538,-2.1433,-2.16,-2.1937,-2.257,-2.3038,-2.3296,-2.3618,-2.3878,-2.4099,-2.3869,-2.3866,-2.4023,-2.4206,-2.4388,-2.4527,-2.4854,-2.5005,-2.5005,-2.4895,-2.498,-2.5099,-2.5254,-2.5278,-2.5265,-2.5349,-2.5805,-2.6262,-2.6743,-2.6875,-2.7103,-2.756,-2.7669,-2.7717,-2.7717,-2.821,-2.8578,-2.8724,-2.8578,-2.8578,-2.8724,-2.7565,-2.6935,-2.6935,-2.5865,-2.5083,-2.4638,-2.4061,-2.3544,-2.3087,-2.2474,-2.2197,-2.2197,-2.2197,-2.2185,-2.2123,-2.1937,-2.1812,-2.1588,-2.0938,-2.0668,-2.0612,-1.9772,-1.953,-1.9567,-1.9222,-1.9059,-1.8999,-1.8851,-1.8798,-1.8798,-1.8798,-1.8798,-1.8798,-1.8893,-1.8502,-1.7927,-1.7483,-1.6919,-1.6356,-1.59,-1.5852,-1.6032,-1.6476,-1.6644,-1.6895,-1.7424,-1.7532,-1.7799,-1.8583,-1.8165,-1.7897,-1.8524,-1.7616,-1.6783,-1.6706,0.0,-1.6539,-1.6995,-1.78,-1.8518,-1.8933,-1.9497,-1.9798,-1.9798,-1.9926,-1.999,0.0,-2.0603,-2.0976,-2.0976,-2.1066,-2.1118,-2.1186,-2.0847,-2.0791,-2.0974,-2.1303,-2.1727,-2.2219,-2.2763,-2.3238,-2.3628,-2.3688,-2.3865,-2.4131,-2.3721,-2.3692,-2.3872,-2.3983,-2.4149,-2.4313,-2.4815,-2.5118,-2.523,-2.5121,-2.5011,-2.5132,-2.5993,-2.5562,-2.5266,-2.5635,-2.5912,-2.6129,-2.6214,-2.6635,-2.6959,-2.7043,-2.7452,-2.7717,-2.7717,-2.821,-2.851,-2.851,-2.851,-2.851,-2.859,-2.75,-2.6935,-2.6935,-2.5865,-2.5264,-2.518,-2.4242,-2.3725,-2.3628,-2.2654,-2.2197,-2.2197,-2.2197,-2.2123,-2.1937,-2.1812,-2.1612,-2.1416,-2.073,-2.0656,-2.0817,-2.0217,-1.9894,-1.978,-1.9586,-1.9275,-1.8934,-1.8721,-1.8679,-1.8798,-1.8679,-1.8679,-1.8798,-1.8667,-1.8033,-1.7349,-1.7265,-1.6444,-1.5664,-1.5727,-1.6025,-1.6371,-1.656,-1.6967,-1.7448,-1.7977,-1.8085,-1.8343,-1.9147,-1.908,-1.87,-1.8068,-1.7738,-1.7321,-1.6402,0.0,-1.7127,-1.7318,-1.8232,-1.8883,-1.8846,-1.9434,-1.9798,-1.9798,-1.9926,-2.0042,-2.0182,-2.0271,-2.0322,-2.0322,-2.0848,-2.0939,-2.0654,-2.0651,-2.1184,-2.2153,-2.2191,-2.2695,-2.3573,-2.3826,-2.3859,-2.3891,-2.3995,-2.4099,-2.4234,-2.42,-2.4346,-2.4644,-2.4757,-2.4813,-2.4883,-2.5077,-2.5174,-2.5174,-2.4646,-2.4653,-2.4786,-2.5253,-2.5095,-2.5004,-2.5252,-2.5409,-2.5637,-2.5935,-2.6008,-2.6166,-2.6454,-2.6695,-2.6851,-2.6851,-2.7344,-2.7789,-2.8065,-2.8354,-2.8378,-2.8102,-2.7344,-2.6659,-2.6069,-2.5564,-2.5312,-2.5312,-2.4278,-2.3773,-2.3749,-2.269,-2.2197,-2.2197,-2.2061,-2.1999,-2.1862,-2.1675,-2.1463,-2.1365,-2.0968,-2.0989,-2.1105,-2.0591,-2.037,-2.0332,-1.966,-1.9306,-1.91,-1.8666,-1.8572,-1.8679,-1.8518,-1.8572,-1.8679,-1.8614,-1.8135,-1.7514,-1.6931,-1.6634,-1.6538,-1.6515,-1.6729,-1.6967,-1.7216,-1.7565,-1.7939,-1.8426,-1.8586,-1.8762,-1.9226,-1.917,-1.8903,-1.8202,-1.808,0.0,0.0,-1.7188,-1.754,-1.7883,-1.8462,-1.8883,-1.9117,-1.9455,-1.9708,-1.9708,-1.9811,-1.9914,-1.9965,-2.0029,-2.008,-1.9965,-2.0502,-2.0682,-2.0511,-2.0612,-2.0961,-2.1498,-2.176,-2.2137,-2.2519,-2.3298,-2.3514,-2.3425,-2.3923,-2.4157,-2.4292,-2.4292,-2.4478,-2.4778,-2.4778,-2.4892,-2.5005,-2.5061,-2.5118,-2.523,-2.42,-2.4345,-2.4452,-2.4568,-2.4644,-2.4765,-2.4882,-2.4992,-2.5123,-2.5538,-2.5362,-2.5326,-2.5805,-2.5961,-2.6032,-2.6093,-2.661,-2.7103,-2.7512,-2.7921,-2.8017,-2.7741,-2.7091,-2.6298,-2.5336,-2.5312,-2.5312,-2.5312,-2.4386,-2.3881,-2.3749,-2.2811,-2.2243,-2.2123,-2.1937,-2.1812,-2.18,-2.1526,-2.1388,-2.1336,-2.1221,-2.1273,-2.1342,-2.0958,-2.086,-2.0781,-1.9936,-1.9491,-1.9233,-1.8669,-1.8515,-1.8518,-1.8356,-1.841,-1.8572,-1.8572,-1.8342,-1.7914,-1.6787,-1.6847,-1.7216,-1.7179,-1.7312,-1.7552,-1.7753,-1.8084,-1.8454,-1.8715,-1.8893,-1.9052,-1.917,-1.9052,-1.8819,-1.8481,0.0,0.0,0.0,-1.7678,-1.8007,-1.8397,-1.8669,-1.8914,-1.9331,-1.9473,-1.9565,-1.9512,-1.9656,-1.9759,-1.9759,-1.9875,-1.9926,-1.9798,-2.0195,-2.041,-2.041,-2.0562,-2.0727,-2.0908,-2.1302,-2.1538,-2.1654,-2.2567,-2.3037,-2.3137,-2.365,-2.4026,-2.4292,-2.4292,-2.4478,-2.4721,-2.4734,-2.4778,-2.4948,-2.5075,-2.5174,-2.523,-2.42,-2.42,-2.4338,-2.4786,-2.4646,-2.4641,-2.5094,-2.4938,-2.4801,-2.4848,-2.4885,-2.4933,-2.5171,-2.5539,-2.5898,-2.6093,-2.661,-2.6947,-2.6995,-2.7031,-2.7248,-2.7705,-2.6719,-2.5889,-2.5324,-2.5312,-2.5312,-2.5312,-2.4747,-2.423,-2.3761,-2.3054,-2.2389,-2.1937,-2.1761,-2.1612,-2.1463,-2.1388,-2.1336,-2.1221,-2.1221,-2.1273,-2.1388,-2.1353,-2.1175,-2.0875,-2.0696,-2.0053,-1.928,-1.8963,-1.864,-1.8367,-1.8193,-1.8259,-1.8422,-1.8422,-1.8494,-1.8278,-1.712,-1.6738,-1.6723,-1.6971,-1.7384,-1.78,-1.7784,-1.837,-1.8898,-1.8839,-1.8893,-1.9052,-1.917,-1.9011,-1.8725,-1.843,0.0,0.0,-1.7654,-1.8154,-1.8522,-1.8559,-1.9052,-1.9331,-1.9223,-1.9328,-1.9368,-1.9223,-1.9473,-1.9617,-1.9617,-1.9759,-1.9798,-1.9798,-1.9926,-2.0093,-2.0233,-2.0398,-2.0822,-2.1446,-2.1498,-2.1852,-2.2497,-2.2454,-2.2769,-2.3379,-2.3319,-2.3633,-2.4292,-2.4292,-2.4421,-2.462,-2.4892,-2.4892,-2.4848,-2.5313,-2.5369,-2.523,-2.42,-2.42,-2.4258,-2.4441,-2.4388,-2.4403,-2.4515,-2.4618,-2.4646,-2.4646,-2.4718,-2.4861,-2.4921,-2.511,-2.5217,-2.5289,-2.5479,-2.5801,-2.6196,-2.5983,-2.6092,-2.6695,-2.6009,-2.5516,-2.5312,-2.5241,-2.5182,-2.5182,-2.4505,-2.408,-2.3878,-2.297,-2.2398,-2.2197,-2.1741,-2.1463,-2.1388,-2.1336,-2.1221,-2.1221,-2.1221,-2.1221,-2.1273,-2.1273,-2.1221,-2.1024,-2.0638,-2.0095,-1.9448,-1.9068,-1.8619,-1.8193,-1.8139,-1.815,-1.8193,-1.8193,-1.8247,-1.8209,-1.7879,-1.788,-1.7932,-1.788,-1.8137,-1.8383,-1.8236,-1.8484,-1.8721,-1.8679,-1.8786,-1.8839,-1.8839,-1.8798,-1.878,-1.8682,0.0,-1.8534,-1.8485,-1.8682,-1.8855,-1.8855,-1.9024,-1.9158,-1.9182,-1.9223,-1.9275,-1.9328,-1.9512,-1.9565,-1.946,-1.9617,-1.9708,-1.9798,-1.9862,-1.9926,-2.008,-2.036,-2.0628,-2.0887,-2.0976,-2.1157,-2.1445,-2.2101,-2.2336,-2.2271,-2.3302,-2.3751,-2.3817,-2.4147,-2.4478,-2.4694,-2.4319,-2.424,-2.4407,-2.4476,-2.4517,-2.4558,-2.3504,-2.3701,-2.3804,-2.3876,-2.4013,-2.4127,-2.42,-2.4345,-2.4418,-2.4418,-2.4502,-2.4646,-2.4718,-2.4718,-2.4718,-2.479,-2.479,-2.5015,-2.5429,-2.5254,-2.5338,-2.5829,-2.5504,-2.5312,-2.5241,-2.5182,-2.5052,-2.4981,-2.4484,-2.4143,-2.3955,-2.303,-2.2526,-2.2297,-2.1632,-2.1336,-2.1336,-2.1221,-2.1221,-2.1221,-2.1221,-2.1221,-2.1221,-2.1221,-2.1221,-2.1175,-2.0768,-2.024,-1.9654,-1.9447,-1.8931,-1.838,-1.838,-1.8265,-1.8205,-1.8139,-1.8139,-1.8205,-1.8313,-1.8476,-1.8637,-1.8422,-1.8583,-1.8679,-1.8367,-1.8464,-1.8614,-1.8572,-1.8625,-1.8679,-1.8614,-1.8679,-1.8732,-1.8798,-1.8798,-1.8851,-1.8999,-1.8987,-1.8987,-1.8987,-1.8987,-1.9052,-1.9117,-1.9117,-1.917,-1.9263,-1.946,-1.9512,-1.9473,-1.9617,-1.9708,-1.9759,-1.9798,-1.9862,-1.9926,-2.0195,-2.041,-2.0511,-2.0549,-2.069,-2.0949,-2.1734,-2.2033,-2.2113,-2.3371,-2.3835,-2.3764,-2.4204,-2.4443,-2.4426,-2.4155,-2.401,-2.4014,-2.4068,-2.4123,-2.4232,-2.2228,-2.2599,-2.2996,-2.3137,-2.3557,-2.397,-2.42,-2.42,-2.42,-2.42,-2.42,-2.4273,-2.4502,-2.449,-2.4574,-2.479,-2.479,-2.479,-2.479,-2.4981,-2.517,-2.53,-2.5312,-2.5241,-2.5123,-2.5123,-2.4981,-2.479,-2.479,-2.4519,-2.3979,-2.3337,-2.2689,-2.2178,-2.1527,-2.1221,-2.1221,-2.1221,-2.1221,-2.1221,-2.1221,-2.1221,-2.1221,-2.1221,-2.1221,-2.1221,-2.1221,-2.0527,-1.9769,-2.0251,-1.9734,-1.8896,-1.8896,-1.8663,-1.8367,-1.8139,-1.8259,-1.8367,-1.8139,-1.8247,-1.8422,-1.8422,-1.8518,-1.8506,-1.8193,-1.8344,-1.856,-1.8422,-1.8518,-1.8614,-1.8614,-1.8614,-1.8614,-1.8798,-1.8798,-1.8851,-1.8999,-1.8987,-1.8987,-1.8987,-1.8987,-1.8987,-1.8987,-1.8987,-1.8987,-1.8987,-1.9263,-1.9473,-1.9617,-1.9708,-1.9759,-1.9617,-1.9759,-1.9798,-1.9798,-1.9926,-2.0156,-2.0511,-2.0296,-2.063,-2.1511,-2.1368,-2.1977,-2.3197,-2.3405,-2.3778,-2.4279,-2.4536,-2.4216,-2.375,-2.4493,-2.4415,-2.3946,-2.4326,-2.438,-2.438,-2.2573,-2.2823,-2.2925,-2.2996,-2.3485,-2.3897,-2.397,-2.4116,-2.42,-2.42,-2.42,-2.4189,-2.4273,-2.4273,-2.4345,-2.4345,-2.4345,-2.4418,-2.4574,-2.4425,-2.4354,-2.4412,-2.4908,-2.5052,-2.4861,-2.4778,-2.4634,-2.4574,-2.4418,-2.4264,-2.4091,-2.3225,-2.2661,-2.2488,-2.1613,-2.1221,-2.1221,-2.1221,-2.1221,-2.1221,-2.1221,-2.1221,-2.1158,-2.1031,-2.1094,-2.1158,-2.1031,-2.062,-2.0171,-1.9975,-1.9711,-1.939,-1.9011,-1.8485,-1.8073,-1.8084,-1.803,-1.7931,-1.7963,-1.8084,-1.8193,-1.8193,-1.8313,-1.841,-1.8313,-1.8302,-1.8302,-1.8367,-1.8422,-1.8464,-1.8464,-1.8518,-1.8614,-1.8798,-1.8798,-1.8851,-1.8999,-1.8987,-1.8987,-1.8987,-1.8987,-1.9052,-1.9117,-1.9117,-1.9117,-1.9117,-1.9105,-1.9198,-1.9473,-1.9512,-1.9565,-1.9617,-1.9759,-1.9798,-1.9798,-1.9926,-2.0042,-2.0144,-2.0182,-2.0424,-2.0835,-2.1134,-2.1329,-2.1524,-2.2457,-2.2946,-2.3173,-2.3819,-2.3955,-2.3725,-2.3703,-2.3231,-2.264,-2.2899,-2.3002,-2.3108,-2.2154,-2.2517,-2.2722,-2.2782,-2.3268,-2.3751,-2.3897,-2.397,-2.4116,-2.42,-2.42,-2.42,-2.42,-2.42,-2.42,-2.42,-2.42,-2.4181,-2.4188,-2.4015,-2.3897,-2.3897,-2.4272,-2.4519,-2.439,-2.4247,-2.4281,-2.4345,-2.4273,-2.42,-2.4177,-2.3362,-2.288,-2.2639,-2.1824,-2.1353,-2.1221,-2.1221,-2.1158,-2.1094,-2.1094,-2.1031,-2.0978,-2.085,-2.0914,-2.0978,-2.0903,-2.0512,-1.9969,-1.9998,-1.9652,-1.9216,-1.8885,-1.8328,-1.7865,-1.792,-1.7822,-1.7711,-1.781,-1.7865,-1.792,-1.792,-1.815,-1.8367,-1.8313,-1.8193,-1.8139,-1.8259,-1.8259,-1.8259,-1.8259,-1.8464,-1.8625,-1.8679,-1.8786,-1.8893,-1.8987,-1.8946,-1.8946,-1.8946,-1.8946,-1.8946,-1.8946,-1.9011,-1.9064,-1.9117,-1.9105,-1.9158,-1.9328,-1.9368,-1.942,-1.9512,-1.9617,-1.9708,-1.9798,-1.9862,-1.9926,-1.999,-2.0093,-2.0361,-2.0772,-2.1095,-2.1172,-2.1199,-2.218,-2.259,-2.2644,-2.3231,-2.3299,-2.3071,-2.311,-2.2692,-2.2103,-2.2355,-2.2506,-2.261,-2.129,-2.18,-2.233,-2.2557,-2.2977,-2.3446,-2.3824,-2.3824,-2.397,-2.4127,-2.42,-2.4189,-2.42,-2.42,-2.42,-2.42,-2.42,-2.4066,-2.3793,-2.3712,-2.3688,-2.3688,-2.3653,-2.3572,-2.3618,-2.3735,-2.386,-2.42,-2.42,-2.4189,-2.4105,-2.3555,-2.3063,-2.265,-2.2044,-2.1541,-2.1169,-2.1169,-2.1031,-2.0903,-2.0903,-2.0786,-2.0669,-2.0669,-2.0669,-2.0733,-2.085,-2.0313,-1.9599,-2.0202,-1.9593,-1.8623,-1.8554,-1.8103,-1.7656,-1.7711,-1.7656,-1.7656,-1.7656,-1.7656,-1.7656,-1.7656,-1.803,-1.8313,-1.8096,-1.803,-1.8084,-1.8084,-1.8084,-1.8084,-1.8139,-1.841,-1.8614,-1.8614,-1.8827,-1.8987,-1.8999,-1.8839,-1.8798,-1.8798,-1.8798,-1.8744,-1.8625,-1.8744,-1.8851,-1.8999,-1.9117,-1.917,-1.917,-1.9328,-1.9368,-1.9368,-1.942,-1.9565,-1.9798,-1.9811,-1.9862,-1.999,-1.999,-2.0372,-2.104,-2.1054,-2.1324,-2.1812,-2.2258,-2.2498,-2.2551,-2.2645,-2.2483,-2.2156,-2.2694,-2.2546,-2.2072,-2.2424,-2.2622,-2.2671,-2.137,-2.168,-2.1865,-2.2308,-2.2904,-2.3298,-2.3446,-2.3593,-2.3751,-2.397,-2.397,-2.4055,-2.4189,-2.42,-2.42,-2.42,-2.42,-2.4143,-2.41,-2.3732,-2.3431,-2.3431,-2.2971,-2.2879,-2.3208,-2.3821,-2.4074,-2.397,-2.397,-2.3897,-2.3728,-2.2767,-2.2295,-2.2218,-2.135,-2.0899,-2.0797,-2.0797,-2.0797,-2.0733,-2.0733,-2.0733,-2.0669,-2.054,-2.054,-2.0669,-2.054,-2.0512,-2.0529,-2.0307,-1.9283,-1.8147,-1.843,-1.8047,-1.759,-1.7656,-1.7545,-1.7434,-1.7534,-1.7534,-1.7534,-1.7534,-1.77,-1.7822,-1.7822,-1.7822,-1.7822,-1.7909,-1.7963,-1.8018,-1.8313,-1.8367,-1.853,-1.8744,-1.8732,-1.8721,-1.8839,-1.8732,-1.8614,-1.8614,-1.8614,-1.8679,-1.8744,-1.8798,-1.8905,-1.9117,-1.9011,-1.8958,-1.9052,-1.917,-1.9223,-1.9223,-1.9473,-1.9565,-1.9656,-1.9875,-1.9926,-1.9862,-2.008,-2.0246,-2.0425,-2.0578,-2.0758,-2.0964,-2.1193,-2.1508,-2.1891,-2.2047,-2.2018,-2.1976,-2.2199,-2.1941,-2.1417,-2.1613,-2.1808,-2.2118,-2.1204,-2.1452,-2.1669,-2.1931,-2.2429,-2.2893,-2.2944,-2.3216,-2.353,-2.3751,-2.3751,-2.3824,-2.3897,-2.3897,-2.3897,-2.3897,-2.3897,-2.3795,-2.3557,-2.3296,-2.3078,-2.3078,-2.2759,-2.2849,-2.3356,-2.3523,-2.3648,-2.3751,-2.3751,-2.3666,-2.3582,-2.3066,-2.2573,-2.2092,-2.1587,-2.1106,-2.0669,-2.0669,-2.0669,-2.054,-2.054,-2.0475,-2.041,-2.0281,-2.0346,-2.041,-2.041,-2.0384,-2.0313,-1.9508,-1.8686,-1.7924,-1.7844,-1.7509,-1.72,-1.7301,-1.7256,-1.72,-1.7368,-1.7379,-1.7379,-1.7379,-1.7434,-1.7545,-1.7656,-1.7755,-1.7799,-1.7909,-1.7963,-1.803,-1.8193,-1.8367,-1.8422,-1.8583,-1.8625,-1.8614,-1.8679,-1.8572,-1.8518,-1.8518,-1.8518,-1.8518,-1.8583,-1.8691,-1.8786,-1.8893,-1.8893,-1.8946,-1.8987,-1.9052,-1.9117,-1.9182,-1.9251,-1.9356,-1.9512,-1.972,-1.9772,-1.9708,-1.9978,-2.0131,-2.0182,-2.0246,-2.041,-2.0612,-2.0675,-2.0933,-2.127,-2.1297,-2.1449,-2.1586,-2.1586,-2.1399,-2.1229,-2.1423,-2.1568,-2.1753,-2.0892,-2.1183,-2.1424,-2.1501,-2.1849,-2.2182,-2.2375,-2.2783,-2.3165,-2.3396,-2.3475,-2.353,-2.3593,-2.3593,-2.3593,-2.3593,-2.3593,-2.3425,-2.295,-2.2916,-2.2916,-2.2916,-2.2838,-2.2983,-2.3385,-2.2916,-2.2938,-2.3519,-2.3441,-2.3441,-2.3519,-2.3441,-2.2961,-2.211,-2.2021,-2.1565,-2.0727,-2.0727,-2.0618,-2.0346,-2.0346,-2.0281,-2.0085,-2.0085,-2.0085,-2.0151,-2.0281,-2.0153,-1.9683,-1.8788,-1.8339,-1.7999,-1.7337,-1.7094,-1.7027,-1.6987,-1.7065,-1.7197,-1.7387,-1.7464,-1.7497,-1.742,-1.7398,-1.7433,-1.7623,-1.77,-1.7799,-1.7854,-1.7975,-1.803,-1.8084,-1.8259,-1.8367,-1.8367,-1.8464,-1.856,-1.856,-1.8464,-1.8367,-1.8367,-1.8367,-1.8422,-1.8422,-1.8518,-1.856,-1.8614,-1.8774,-1.8946,-1.8946,-1.8999,-1.9052,-1.917,-1.9052,-1.9158,-1.9368,-1.9512,-1.9565,-1.9565,-1.9823,-2.0042,-2.0182,-2.0093,-2.0258,-2.0511,-2.0511,-2.0649,-2.0759,-2.0736,-2.0898,-2.1144,-2.1046,-2.1082,-2.118,-2.1423,-2.152,-2.1506,-2.0328,-2.0413,-2.0599,-2.0994,-2.1112,-2.1236,-2.1469,-2.1858,-2.2295,-2.2656,-2.3105,-2.3372,-2.3593,-2.3593,-2.3593,-2.3593,-2.3593,-2.357,-2.3503,-2.3492,-2.3492,-2.3492,-2.2933,-2.2661,-2.2728,-2.2132,-2.2259,-2.3372,-2.2939,-2.2877,-2.3065,-2.267,-2.2407,-2.2276,-2.1848,-2.1344,-2.0896,-2.0896,-2.0588,-2.0151,-2.0151,-2.014,-2.0085,-2.0085,-2.0085,-2.0085,-2.0151,-1.9951,-1.9625,-1.9514,-1.9194,-1.8643,-1.7915,-1.7774,-1.7756,-1.714,-1.7437,-1.7843,-1.7901,-1.8196,-1.8403,-1.801,-1.7912,-1.7802,-1.7433,-1.739,-1.7434,-1.7656,-1.7767,-1.7822,-1.803,-1.8139,-1.8193,-1.8367,-1.8422,-1.8422,-1.8422,-1.8422,-1.8367,-1.8139,-1.8313,-1.8422,-1.8422,-1.8422,-1.8464,-1.8614,-1.8518,-1.8583,-1.8798,-1.8851,-1.8905,-1.8999,-1.9117,-1.917,-1.9223,-1.9368,-1.942,-1.942,-1.9565,-1.9772,-2.0042,-2.0309,-2.0461,-2.0511,-2.0612,-2.0712,-2.0699,-2.0699,-2.0825,-2.0938,-2.0997,-2.0997,-2.1033,-2.118,-2.118,-2.1015,-1.9603,-1.9779,-1.9988,-2.0179,-2.0435,-2.0615,-2.0695,-2.115,-2.151,-2.1653,-2.2147,-2.2451,-2.2524,-2.2763,-2.3001,-2.3075,-2.3075,-2.315,-2.3224,-2.3298,-2.3298,-2.3298,-2.2699,-2.2446,-2.2446,-2.164,-2.1585,-2.2358,-2.2413,-2.2473,-2.2619,-2.2673,-2.2422,-2.1898,-2.1691,-2.1166,-2.0456,-2.0456,-2.0336,-2.0085,-2.0085,-2.0085,-2.0085,-2.0085,-2.0085,-2.0085,-2.0085,-1.9998,-1.9832,-1.9632,-1.9339,-1.8899,-1.7911,-1.7857,-1.7986,-1.7434,-1.7765,-1.8284,-1.8392,-1.8348,-1.8261,-1.8054,-1.801,-1.7879,-1.7387,-1.7693,-1.8027,-1.7768,-1.7822,-1.8011,-1.8339,-1.8224,-1.8176,-1.8462,-1.8267,-1.8139,-1.8205,-1.8096,-1.7986,-1.7877,-1.803,-1.8084,-1.8041,-1.815,-1.8259,-1.8302,-1.8367,-1.8476,-1.8679,-1.8679,-1.8732,-1.8774,-1.8905,-1.897,-1.897,-1.917,-1.9275,-1.9275,-1.942,-1.9617,-1.9862,-2.0029,-2.0182,-2.0347,-2.0398,-2.0485,-2.0636,-2.0699,-2.0812,-2.0961,-2.0835,-2.0772,-2.0772,-2.0822,-2.0871,-2.0881]}]]